<?xml version="1.0" encoding="UTF-8" standalone="no" ?>
<gpx xmlns="http://www.topografix.com/GPX/1/1" xmlns:xsi="http://www.w3.org/2001/XMLSchema-instance" xsi:schemaLocation="http://www.topografix.com/GPX/1/1 http://www.topografix.com/GPX/1/1/gpx.xsd" version="1.1" creator="VisuGPX - https://www.visugpx.com">
  <metadata>
    <name>20191208_074353</name>
    <desc><![CDATA[Randonnée La Montagne]]></desc>
  </metadata>
  <trk>
    <name><![CDATA[20191208_074353.gpx]]></name>
    <trkseg>
      <trkpt lat="47.18369" lon="-1.67618">
        <ele>45.41012</ele>
        <time>2019-12-08T06:43:55Z</time>
      </trkpt>
      <trkpt lat="47.1837" lon="-1.67618">
        <ele>45.8778</ele>
        <time>2019-12-08T06:43:56Z</time>
      </trkpt>
      <trkpt lat="47.18369" lon="-1.67615">
        <ele>45.764183</ele>
        <time>2019-12-08T06:43:57Z</time>
      </trkpt>
      <trkpt lat="47.18366" lon="-1.67601">
        <ele>44.47211</ele>
        <time>2019-12-08T06:44:03Z</time>
      </trkpt>
      <trkpt lat="47.18362" lon="-1.67587">
        <ele>45.71398</ele>
        <time>2019-12-08T06:44:12Z</time>
      </trkpt>
      <trkpt lat="47.18359" lon="-1.67573">
        <ele>45.108902</ele>
        <time>2019-12-08T06:44:19Z</time>
      </trkpt>
      <trkpt lat="47.18355" lon="-1.67559">
        <ele>45.66642</ele>
        <time>2019-12-08T06:44:26Z</time>
      </trkpt>
      <trkpt lat="47.18351" lon="-1.67545">
        <ele>46.79203</ele>
        <time>2019-12-08T06:44:34Z</time>
      </trkpt>
      <trkpt lat="47.1835" lon="-1.67545">
        <ele>46.147312</ele>
        <time>2019-12-08T06:44:35Z</time>
      </trkpt>
      <trkpt lat="47.18341" lon="-1.6754">
        <ele>46.139385</ele>
        <time>2019-12-08T06:44:43Z</time>
      </trkpt>
      <trkpt lat="47.1834" lon="-1.6754">
        <ele>46.49081</ele>
        <time>2019-12-08T06:44:44Z</time>
      </trkpt>
      <trkpt lat="47.1833" lon="-1.67544">
        <ele>46.56215</ele>
        <time>2019-12-08T06:44:51Z</time>
      </trkpt>
      <trkpt lat="47.18329" lon="-1.67544">
        <ele>46.588573</ele>
        <time>2019-12-08T06:44:52Z</time>
      </trkpt>
      <trkpt lat="47.1832" lon="-1.67549">
        <ele>47.92028</ele>
        <time>2019-12-08T06:44:59Z</time>
      </trkpt>
      <trkpt lat="47.18319" lon="-1.6755">
        <ele>47.648125</ele>
        <time>2019-12-08T06:45:00Z</time>
      </trkpt>
      <trkpt lat="47.1831" lon="-1.67555">
        <ele>47.23857</ele>
        <time>2019-12-08T06:45:06Z</time>
      </trkpt>
      <trkpt lat="47.18301" lon="-1.67561">
        <ele>46.89772</ele>
        <time>2019-12-08T06:45:13Z</time>
      </trkpt>
      <trkpt lat="47.18293" lon="-1.67567">
        <ele>46.89772</ele>
        <time>2019-12-08T06:45:20Z</time>
      </trkpt>
      <trkpt lat="47.18284" lon="-1.67573">
        <ele>46.42475</ele>
        <time>2019-12-08T06:45:26Z</time>
      </trkpt>
      <trkpt lat="47.18275" lon="-1.67578">
        <ele>46.802597</ele>
        <time>2019-12-08T06:45:33Z</time>
      </trkpt>
      <trkpt lat="47.18265" lon="-1.67581">
        <ele>46.765606</ele>
        <time>2019-12-08T06:45:40Z</time>
      </trkpt>
      <trkpt lat="47.18256" lon="-1.67588">
        <ele>46.76825</ele>
        <time>2019-12-08T06:45:47Z</time>
      </trkpt>
      <trkpt lat="47.18247" lon="-1.67592">
        <ele>46.945282</ele>
        <time>2019-12-08T06:45:53Z</time>
      </trkpt>
      <trkpt lat="47.18238" lon="-1.67599">
        <ele>46.86073</ele>
        <time>2019-12-08T06:45:59Z</time>
      </trkpt>
      <trkpt lat="47.18229" lon="-1.67605">
        <ele>46.472313</ele>
        <time>2019-12-08T06:46:05Z</time>
      </trkpt>
      <trkpt lat="47.18221" lon="-1.67609">
        <ele>46.408897</ele>
        <time>2019-12-08T06:46:11Z</time>
      </trkpt>
      <trkpt lat="47.18211" lon="-1.67614">
        <ele>46.76825</ele>
        <time>2019-12-08T06:46:18Z</time>
      </trkpt>
      <trkpt lat="47.18203" lon="-1.6762">
        <ele>46.474957</ele>
        <time>2019-12-08T06:46:24Z</time>
      </trkpt>
      <trkpt lat="47.18194" lon="-1.67626">
        <ele>46.334915</ele>
        <time>2019-12-08T06:46:31Z</time>
      </trkpt>
      <trkpt lat="47.18184" lon="-1.67631">
        <ele>46.683697</ele>
        <time>2019-12-08T06:46:38Z</time>
      </trkpt>
      <trkpt lat="47.18176" lon="-1.67637">
        <ele>46.644062</ele>
        <time>2019-12-08T06:46:43Z</time>
      </trkpt>
      <trkpt lat="47.18167" lon="-1.67644">
        <ele>47.14609</ele>
        <time>2019-12-08T06:46:50Z</time>
      </trkpt>
      <trkpt lat="47.18158" lon="-1.6765">
        <ele>46.971703</ele>
        <time>2019-12-08T06:46:57Z</time>
      </trkpt>
      <trkpt lat="47.18148" lon="-1.67655">
        <ele>46.2715</ele>
        <time>2019-12-08T06:47:04Z</time>
      </trkpt>
      <trkpt lat="47.18139" lon="-1.67659">
        <ele>46.799957</ele>
        <time>2019-12-08T06:47:11Z</time>
      </trkpt>
      <trkpt lat="47.1813" lon="-1.67666">
        <ele>46.659916</ele>
        <time>2019-12-08T06:47:18Z</time>
      </trkpt>
      <trkpt lat="47.18121" lon="-1.6767">
        <ele>47.077393</ele>
        <time>2019-12-08T06:47:25Z</time>
      </trkpt>
      <trkpt lat="47.18111" lon="-1.67676">
        <ele>46.884506</ele>
        <time>2019-12-08T06:47:32Z</time>
      </trkpt>
      <trkpt lat="47.18103" lon="-1.67683">
        <ele>47.53979</ele>
        <time>2019-12-08T06:47:38Z</time>
      </trkpt>
      <trkpt lat="47.18094" lon="-1.67686">
        <ele>46.884506</ele>
        <time>2019-12-08T06:47:45Z</time>
      </trkpt>
      <trkpt lat="47.18084" lon="-1.67691">
        <ele>47.415604</ele>
        <time>2019-12-08T06:47:52Z</time>
      </trkpt>
      <trkpt lat="47.18075" lon="-1.67698">
        <ele>47.08268</ele>
        <time>2019-12-08T06:47:59Z</time>
      </trkpt>
      <trkpt lat="47.18065" lon="-1.67704">
        <ele>46.731255</ele>
        <time>2019-12-08T06:48:06Z</time>
      </trkpt>
      <trkpt lat="47.18057" lon="-1.67709">
        <ele>46.694263</ele>
        <time>2019-12-08T06:48:12Z</time>
      </trkpt>
      <trkpt lat="47.18048" lon="-1.67715">
        <ele>47.03776</ele>
        <time>2019-12-08T06:48:18Z</time>
      </trkpt>
      <trkpt lat="47.1804" lon="-1.67722">
        <ele>47.58207</ele>
        <time>2019-12-08T06:48:25Z</time>
      </trkpt>
      <trkpt lat="47.18038" lon="-1.67723">
        <ele>47.394466</ele>
        <time>2019-12-08T06:48:26Z</time>
      </trkpt>
      <trkpt lat="47.18029" lon="-1.67728">
        <ele>48.121094</ele>
        <time>2019-12-08T06:48:32Z</time>
      </trkpt>
      <trkpt lat="47.18028" lon="-1.67728">
        <ele>47.743248</ele>
        <time>2019-12-08T06:48:33Z</time>
      </trkpt>
      <trkpt lat="47.18018" lon="-1.67734">
        <ele>47.788166</ele>
        <time>2019-12-08T06:48:40Z</time>
      </trkpt>
      <trkpt lat="47.1801" lon="-1.67741">
        <ele>47.5715</ele>
        <time>2019-12-08T06:48:47Z</time>
      </trkpt>
      <trkpt lat="47.18007" lon="-1.67754">
        <ele>47.08268</ele>
        <time>2019-12-08T06:48:56Z</time>
      </trkpt>
      <trkpt lat="47.1801" lon="-1.67768">
        <ele>46.916214</ele>
        <time>2019-12-08T06:49:03Z</time>
      </trkpt>
      <trkpt lat="47.18014" lon="-1.67782">
        <ele>46.799957</ele>
        <time>2019-12-08T06:49:09Z</time>
      </trkpt>
      <trkpt lat="47.18016" lon="-1.67795">
        <ele>46.657272</ele>
        <time>2019-12-08T06:49:16Z</time>
      </trkpt>
      <trkpt lat="47.18019" lon="-1.6781">
        <ele>47.254425</ele>
        <time>2019-12-08T06:49:23Z</time>
      </trkpt>
      <trkpt lat="47.18023" lon="-1.67823">
        <ele>46.871296</ele>
        <time>2019-12-08T06:49:30Z</time>
      </trkpt>
      <trkpt lat="47.18026" lon="-1.67836">
        <ele>46.408897</ele>
        <time>2019-12-08T06:49:36Z</time>
      </trkpt>
      <trkpt lat="47.18029" lon="-1.67849">
        <ele>46.72597</ele>
        <time>2019-12-08T06:49:43Z</time>
      </trkpt>
      <trkpt lat="47.18032" lon="-1.67862">
        <ele>46.815807</ele>
        <time>2019-12-08T06:49:49Z</time>
      </trkpt>
      <trkpt lat="47.18033" lon="-1.67877">
        <ele>46.79467</ele>
        <time>2019-12-08T06:49:55Z</time>
      </trkpt>
      <trkpt lat="47.18027" lon="-1.67889">
        <ele>47.024548</ele>
        <time>2019-12-08T06:50:01Z</time>
      </trkpt>
      <trkpt lat="47.1802" lon="-1.67897">
        <ele>46.9215</ele>
        <time>2019-12-08T06:50:09Z</time>
      </trkpt>
      <trkpt lat="47.18018" lon="-1.6791">
        <ele>47.529224</ele>
        <time>2019-12-08T06:50:16Z</time>
      </trkpt>
      <trkpt lat="47.18022" lon="-1.67925">
        <ele>46.90036</ele>
        <time>2019-12-08T06:50:23Z</time>
      </trkpt>
      <trkpt lat="47.18028" lon="-1.67936">
        <ele>47.172516</ele>
        <time>2019-12-08T06:50:29Z</time>
      </trkpt>
      <trkpt lat="47.18034" lon="-1.67948">
        <ele>46.67841</ele>
        <time>2019-12-08T06:50:36Z</time>
      </trkpt>
      <trkpt lat="47.18041" lon="-1.67958">
        <ele>46.20016</ele>
        <time>2019-12-08T06:50:43Z</time>
      </trkpt>
      <trkpt lat="47.18047" lon="-1.67968">
        <ele>45.801174</ele>
        <time>2019-12-08T06:50:49Z</time>
      </trkpt>
      <trkpt lat="47.18053" lon="-1.6798">
        <ele>46.358696</ele>
        <time>2019-12-08T06:50:56Z</time>
      </trkpt>
      <trkpt lat="47.18059" lon="-1.67992">
        <ele>46.43532</ele>
        <time>2019-12-08T06:51:03Z</time>
      </trkpt>
      <trkpt lat="47.18066" lon="-1.68002">
        <ele>46.23979</ele>
        <time>2019-12-08T06:51:10Z</time>
      </trkpt>
      <trkpt lat="47.18071" lon="-1.68013">
        <ele>45.71398</ele>
        <time>2019-12-08T06:51:16Z</time>
      </trkpt>
      <trkpt lat="47.18077" lon="-1.68024">
        <ele>45.489388</ele>
        <time>2019-12-08T06:51:22Z</time>
      </trkpt>
      <trkpt lat="47.18084" lon="-1.68034">
        <ele>45.370483</ele>
        <time>2019-12-08T06:51:28Z</time>
      </trkpt>
      <trkpt lat="47.1809" lon="-1.68046">
        <ele>45.542233</ele>
        <time>2019-12-08T06:51:35Z</time>
      </trkpt>
      <trkpt lat="47.18097" lon="-1.68056">
        <ele>45.22516</ele>
        <time>2019-12-08T06:51:42Z</time>
      </trkpt>
      <trkpt lat="47.18102" lon="-1.68068">
        <ele>45.798534</ele>
        <time>2019-12-08T06:51:49Z</time>
      </trkpt>
      <trkpt lat="47.18108" lon="-1.68078">
        <ele>45.589794</ele>
        <time>2019-12-08T06:51:56Z</time>
      </trkpt>
      <trkpt lat="47.18115" lon="-1.68089">
        <ele>45.201378</ele>
        <time>2019-12-08T06:52:04Z</time>
      </trkpt>
      <trkpt lat="47.18121" lon="-1.68099">
        <ele>44.178818</ele>
        <time>2019-12-08T06:52:10Z</time>
      </trkpt>
      <trkpt lat="47.18126" lon="-1.6811">
        <ele>44.77069</ele>
        <time>2019-12-08T06:52:17Z</time>
      </trkpt>
      <trkpt lat="47.18133" lon="-1.6812">
        <ele>44.836746</ele>
        <time>2019-12-08T06:52:23Z</time>
      </trkpt>
      <trkpt lat="47.18139" lon="-1.6813">
        <ele>44.509106</ele>
        <time>2019-12-08T06:52:29Z</time>
      </trkpt>
      <trkpt lat="47.18145" lon="-1.6814">
        <ele>44.715202</ele>
        <time>2019-12-08T06:52:36Z</time>
      </trkpt>
      <trkpt lat="47.1815" lon="-1.68152">
        <ele>44.58837</ele>
        <time>2019-12-08T06:52:43Z</time>
      </trkpt>
      <trkpt lat="47.18157" lon="-1.68163">
        <ele>44.635933</ele>
        <time>2019-12-08T06:52:50Z</time>
      </trkpt>
      <trkpt lat="47.18163" lon="-1.68174">
        <ele>44.14447</ele>
        <time>2019-12-08T06:52:56Z</time>
      </trkpt>
      <trkpt lat="47.18169" lon="-1.68183">
        <ele>44.23695</ele>
        <time>2019-12-08T06:53:02Z</time>
      </trkpt>
      <trkpt lat="47.18176" lon="-1.68193">
        <ele>44.22638</ele>
        <time>2019-12-08T06:53:08Z</time>
      </trkpt>
      <trkpt lat="47.18182" lon="-1.68203">
        <ele>44.461544</ele>
        <time>2019-12-08T06:53:14Z</time>
      </trkpt>
      <trkpt lat="47.18188" lon="-1.68215">
        <ele>44.173534</ele>
        <time>2019-12-08T06:53:20Z</time>
      </trkpt>
      <trkpt lat="47.18194" lon="-1.68225">
        <ele>44.01764</ele>
        <time>2019-12-08T06:53:26Z</time>
      </trkpt>
      <trkpt lat="47.18201" lon="-1.68236">
        <ele>43.745487</ele>
        <time>2019-12-08T06:53:33Z</time>
      </trkpt>
      <trkpt lat="47.18207" lon="-1.68247">
        <ele>43.277805</ele>
        <time>2019-12-08T06:53:40Z</time>
      </trkpt>
      <trkpt lat="47.18213" lon="-1.68257">
        <ele>43.63451</ele>
        <time>2019-12-08T06:53:47Z</time>
      </trkpt>
      <trkpt lat="47.18219" lon="-1.68268">
        <ele>43.626583</ele>
        <time>2019-12-08T06:53:54Z</time>
      </trkpt>
      <trkpt lat="47.18225" lon="-1.6828">
        <ele>43.534103</ele>
        <time>2019-12-08T06:54:00Z</time>
      </trkpt>
      <trkpt lat="47.18232" lon="-1.68291">
        <ele>43.372925</ele>
        <time>2019-12-08T06:54:07Z</time>
      </trkpt>
      <trkpt lat="47.18239" lon="-1.683">
        <ele>43.322723</ele>
        <time>2019-12-08T06:54:14Z</time>
      </trkpt>
      <trkpt lat="47.18245" lon="-1.6831">
        <ele>43.328007</ele>
        <time>2019-12-08T06:54:20Z</time>
      </trkpt>
      <trkpt lat="47.18251" lon="-1.68323">
        <ele>43.07171</ele>
        <time>2019-12-08T06:54:27Z</time>
      </trkpt>
      <trkpt lat="47.18258" lon="-1.68333">
        <ele>43.51825</ele>
        <time>2019-12-08T06:54:33Z</time>
      </trkpt>
      <trkpt lat="47.18264" lon="-1.68344">
        <ele>43.217033</ele>
        <time>2019-12-08T06:54:39Z</time>
      </trkpt>
      <trkpt lat="47.1827" lon="-1.68356">
        <ele>43.325367</ele>
        <time>2019-12-08T06:54:46Z</time>
      </trkpt>
      <trkpt lat="47.18276" lon="-1.68367">
        <ele>42.662155</ele>
        <time>2019-12-08T06:54:53Z</time>
      </trkpt>
      <trkpt lat="47.18282" lon="-1.68378">
        <ele>42.207684</ele>
        <time>2019-12-08T06:54:59Z</time>
      </trkpt>
      <trkpt lat="47.1829" lon="-1.68384">
        <ele>41.95138</ele>
        <time>2019-12-08T06:55:06Z</time>
      </trkpt>
      <trkpt lat="47.183" lon="-1.68386">
        <ele>41.77435</ele>
        <time>2019-12-08T06:55:13Z</time>
      </trkpt>
      <trkpt lat="47.18308" lon="-1.68378">
        <ele>42.078213</ele>
        <time>2019-12-08T06:55:20Z</time>
      </trkpt>
      <trkpt lat="47.18317" lon="-1.68379">
        <ele>42.416424</ele>
        <time>2019-12-08T06:55:26Z</time>
      </trkpt>
      <trkpt lat="47.18326" lon="-1.68384">
        <ele>42.86561</ele>
        <time>2019-12-08T06:55:33Z</time>
      </trkpt>
      <trkpt lat="47.18335" lon="-1.68391">
        <ele>42.670082</ele>
        <time>2019-12-08T06:55:39Z</time>
      </trkpt>
      <trkpt lat="47.18343" lon="-1.68399">
        <ele>42.791626</ele>
        <time>2019-12-08T06:55:45Z</time>
      </trkpt>
      <trkpt lat="47.1835" lon="-1.6841">
        <ele>42.382072</ele>
        <time>2019-12-08T06:55:52Z</time>
      </trkpt>
      <trkpt lat="47.18358" lon="-1.68419">
        <ele>42.397926</ele>
        <time>2019-12-08T06:55:58Z</time>
      </trkpt>
      <trkpt lat="47.18365" lon="-1.68428">
        <ele>42.138985</ele>
        <time>2019-12-08T06:56:04Z</time>
      </trkpt>
      <trkpt lat="47.18373" lon="-1.68435">
        <ele>42.279026</ele>
        <time>2019-12-08T06:56:10Z</time>
      </trkpt>
      <trkpt lat="47.18379" lon="-1.68445">
        <ele>42.675365</ele>
        <time>2019-12-08T06:56:16Z</time>
      </trkpt>
      <trkpt lat="47.18386" lon="-1.68456">
        <ele>43.60809</ele>
        <time>2019-12-08T06:56:23Z</time>
      </trkpt>
      <trkpt lat="47.18391" lon="-1.6847">
        <ele>43.896095</ele>
        <time>2019-12-08T06:56:30Z</time>
      </trkpt>
      <trkpt lat="47.18396" lon="-1.68481">
        <ele>44.350567</ele>
        <time>2019-12-08T06:56:36Z</time>
      </trkpt>
      <trkpt lat="47.18402" lon="-1.68492">
        <ele>43.46805</ele>
        <time>2019-12-08T06:56:43Z</time>
      </trkpt>
      <trkpt lat="47.18411" lon="-1.68498">
        <ele>43.650364</ele>
        <time>2019-12-08T06:56:50Z</time>
      </trkpt>
      <trkpt lat="47.18415" lon="-1.6851">
        <ele>44.044064</ele>
        <time>2019-12-08T06:56:57Z</time>
      </trkpt>
      <trkpt lat="47.18415" lon="-1.68525">
        <ele>43.985935</ele>
        <time>2019-12-08T06:57:05Z</time>
      </trkpt>
      <trkpt lat="47.18414" lon="-1.68539">
        <ele>42.54854</ele>
        <time>2019-12-08T06:57:10Z</time>
      </trkpt>
      <trkpt lat="47.18414" lon="-1.68555">
        <ele>43.230244</ele>
        <time>2019-12-08T06:57:17Z</time>
      </trkpt>
      <trkpt lat="47.18416" lon="-1.68569">
        <ele>42.907887</ele>
        <time>2019-12-08T06:57:23Z</time>
      </trkpt>
      <trkpt lat="47.18421" lon="-1.68581">
        <ele>42.662155</ele>
        <time>2019-12-08T06:57:30Z</time>
      </trkpt>
      <trkpt lat="47.18427" lon="-1.68592">
        <ele>42.757275</ele>
        <time>2019-12-08T06:57:36Z</time>
      </trkpt>
      <trkpt lat="47.18432" lon="-1.68604">
        <ele>42.712357</ele>
        <time>2019-12-08T06:57:42Z</time>
      </trkpt>
      <trkpt lat="47.18436" lon="-1.68616">
        <ele>42.474552</ele>
        <time>2019-12-08T06:57:48Z</time>
      </trkpt>
      <trkpt lat="47.18441" lon="-1.6863">
        <ele>41.65016</ele>
        <time>2019-12-08T06:57:55Z</time>
      </trkpt>
      <trkpt lat="47.18444" lon="-1.68642">
        <ele>41.177197</ele>
        <time>2019-12-08T06:58:01Z</time>
      </trkpt>
      <trkpt lat="47.18449" lon="-1.68655">
        <ele>41.25118</ele>
        <time>2019-12-08T06:58:07Z</time>
      </trkpt>
      <trkpt lat="47.18455" lon="-1.68668">
        <ele>41.002808</ele>
        <time>2019-12-08T06:58:14Z</time>
      </trkpt>
      <trkpt lat="47.18459" lon="-1.68681">
        <ele>40.881264</ele>
        <time>2019-12-08T06:58:20Z</time>
      </trkpt>
      <trkpt lat="47.18465" lon="-1.68693">
        <ele>40.33167</ele>
        <time>2019-12-08T06:58:27Z</time>
      </trkpt>
      <trkpt lat="47.18469" lon="-1.68706">
        <ele>40.661953</ele>
        <time>2019-12-08T06:58:33Z</time>
      </trkpt>
      <trkpt lat="47.18473" lon="-1.6872">
        <ele>39.779434</ele>
        <time>2019-12-08T06:58:40Z</time>
      </trkpt>
      <trkpt lat="47.18477" lon="-1.68733">
        <ele>39.187565</ele>
        <time>2019-12-08T06:58:47Z</time>
      </trkpt>
      <trkpt lat="47.18482" lon="-1.68745">
        <ele>38.431873</ele>
        <time>2019-12-08T06:58:53Z</time>
      </trkpt>
      <trkpt lat="47.18491" lon="-1.68753">
        <ele>37.760735</ele>
        <time>2019-12-08T06:59:00Z</time>
      </trkpt>
      <trkpt lat="47.185" lon="-1.68748">
        <ele>38.294476</ele>
        <time>2019-12-08T06:59:06Z</time>
      </trkpt>
      <trkpt lat="47.18509" lon="-1.68744">
        <ele>38.61419</ele>
        <time>2019-12-08T06:59:13Z</time>
      </trkpt>
      <trkpt lat="47.18518" lon="-1.68739">
        <ele>38.49529</ele>
        <time>2019-12-08T06:59:19Z</time>
      </trkpt>
      <trkpt lat="47.18527" lon="-1.68734">
        <ele>38.445084</ele>
        <time>2019-12-08T06:59:25Z</time>
      </trkpt>
      <trkpt lat="47.18536" lon="-1.6873">
        <ele>38.849354</ele>
        <time>2019-12-08T06:59:32Z</time>
      </trkpt>
      <trkpt lat="47.18544" lon="-1.68724">
        <ele>38.45037</ele>
        <time>2019-12-08T06:59:39Z</time>
      </trkpt>
      <trkpt lat="47.18553" lon="-1.68718">
        <ele>38.743664</ele>
        <time>2019-12-08T06:59:45Z</time>
      </trkpt>
      <trkpt lat="47.18561" lon="-1.68711">
        <ele>38.701385</ele>
        <time>2019-12-08T06:59:51Z</time>
      </trkpt>
      <trkpt lat="47.1857" lon="-1.68705">
        <ele>39.282684</ele>
        <time>2019-12-08T06:59:58Z</time>
      </trkpt>
      <trkpt lat="47.18578" lon="-1.68698">
        <ele>39.546913</ele>
        <time>2019-12-08T07:00:05Z</time>
      </trkpt>
      <trkpt lat="47.18585" lon="-1.68689">
        <ele>39.169067</ele>
        <time>2019-12-08T07:00:11Z</time>
      </trkpt>
      <trkpt lat="47.18593" lon="-1.68681">
        <ele>39.84549</ele>
        <time>2019-12-08T07:00:18Z</time>
      </trkpt>
      <trkpt lat="47.18601" lon="-1.68673">
        <ele>40.0648</ele>
        <time>2019-12-08T07:00:24Z</time>
      </trkpt>
      <trkpt lat="47.18609" lon="-1.68664">
        <ele>38.82293</ele>
        <time>2019-12-08T07:00:31Z</time>
      </trkpt>
      <trkpt lat="47.18617" lon="-1.68656">
        <ele>38.793865</ele>
        <time>2019-12-08T07:00:38Z</time>
      </trkpt>
      <trkpt lat="47.18624" lon="-1.68646">
        <ele>38.865208</ele>
        <time>2019-12-08T07:00:45Z</time>
      </trkpt>
      <trkpt lat="47.18631" lon="-1.68637">
        <ele>38.294476</ele>
        <time>2019-12-08T07:00:51Z</time>
      </trkpt>
      <trkpt lat="47.18638" lon="-1.68628">
        <ele>38.33411</ele>
        <time>2019-12-08T07:00:57Z</time>
      </trkpt>
      <trkpt lat="47.18644" lon="-1.68618">
        <ele>38.260124</ele>
        <time>2019-12-08T07:01:02Z</time>
      </trkpt>
      <trkpt lat="47.18652" lon="-1.68609">
        <ele>38.054028</ele>
        <time>2019-12-08T07:01:09Z</time>
      </trkpt>
      <trkpt lat="47.1866" lon="-1.68601">
        <ele>37.567852</ele>
        <time>2019-12-08T07:01:16Z</time>
      </trkpt>
      <trkpt lat="47.18667" lon="-1.68591">
        <ele>37.76602</ele>
        <time>2019-12-08T07:01:22Z</time>
      </trkpt>
      <trkpt lat="47.18675" lon="-1.68584">
        <ele>37.876995</ele>
        <time>2019-12-08T07:01:30Z</time>
      </trkpt>
      <trkpt lat="47.18685" lon="-1.68589">
        <ele>38.394882</ele>
        <time>2019-12-08T07:01:38Z</time>
      </trkpt>
      <trkpt lat="47.18694" lon="-1.68587">
        <ele>38.630043</ele>
        <time>2019-12-08T07:01:46Z</time>
      </trkpt>
      <trkpt lat="47.18704" lon="-1.68587">
        <ele>38.759518</ele>
        <time>2019-12-08T07:01:53Z</time>
      </trkpt>
      <trkpt lat="47.18705" lon="-1.68573">
        <ele>38.984108</ele>
        <time>2019-12-08T07:02:03Z</time>
      </trkpt>
      <trkpt lat="47.18714" lon="-1.68566">
        <ele>39.93533</ele>
        <time>2019-12-08T07:02:12Z</time>
      </trkpt>
      <trkpt lat="47.18722" lon="-1.68559">
        <ele>40.73858</ele>
        <time>2019-12-08T07:02:19Z</time>
      </trkpt>
      <trkpt lat="47.18731" lon="-1.68555">
        <ele>41.74264</ele>
        <time>2019-12-08T07:02:25Z</time>
      </trkpt>
      <trkpt lat="47.18739" lon="-1.68549">
        <ele>42.870895</ele>
        <time>2019-12-08T07:02:33Z</time>
      </trkpt>
      <trkpt lat="47.18748" lon="-1.68542">
        <ele>43.54203</ele>
        <time>2019-12-08T07:02:40Z</time>
      </trkpt>
      <trkpt lat="47.18757" lon="-1.68537">
        <ele>44.22374</ele>
        <time>2019-12-08T07:02:47Z</time>
      </trkpt>
      <trkpt lat="47.18765" lon="-1.68529">
        <ele>44.987354</ele>
        <time>2019-12-08T07:02:54Z</time>
      </trkpt>
      <trkpt lat="47.18775" lon="-1.68527">
        <ele>45.425972</ele>
        <time>2019-12-08T07:03:00Z</time>
      </trkpt>
      <trkpt lat="47.18784" lon="-1.68524">
        <ele>45.76947</ele>
        <time>2019-12-08T07:03:07Z</time>
      </trkpt>
      <trkpt lat="47.18793" lon="-1.68521">
        <ele>47.29142</ele>
        <time>2019-12-08T07:03:14Z</time>
      </trkpt>
      <trkpt lat="47.18801" lon="-1.68514">
        <ele>47.76703</ele>
        <time>2019-12-08T07:03:20Z</time>
      </trkpt>
      <trkpt lat="47.18811" lon="-1.68509">
        <ele>48.995686</ele>
        <time>2019-12-08T07:03:27Z</time>
      </trkpt>
      <trkpt lat="47.18812" lon="-1.68508">
        <ele>48.9217</ele>
        <time>2019-12-08T07:03:28Z</time>
      </trkpt>
      <trkpt lat="47.18821" lon="-1.68502">
        <ele>48.85036</ele>
        <time>2019-12-08T07:03:36Z</time>
      </trkpt>
      <trkpt lat="47.18823" lon="-1.68501">
        <ele>48.97455</ele>
        <time>2019-12-08T07:03:37Z</time>
      </trkpt>
      <trkpt lat="47.18832" lon="-1.68495">
        <ele>49.18593</ele>
        <time>2019-12-08T07:03:47Z</time>
      </trkpt>
      <trkpt lat="47.18841" lon="-1.68489">
        <ele>49.34975</ele>
        <time>2019-12-08T07:03:55Z</time>
      </trkpt>
      <trkpt lat="47.1885" lon="-1.68482">
        <ele>50.18999</ele>
        <time>2019-12-08T07:04:02Z</time>
      </trkpt>
      <trkpt lat="47.18851" lon="-1.68481">
        <ele>50.44365</ele>
        <time>2019-12-08T07:04:03Z</time>
      </trkpt>
      <trkpt lat="47.18852" lon="-1.6848">
        <ele>50.205845</ele>
        <time>2019-12-08T07:04:04Z</time>
      </trkpt>
      <trkpt lat="47.18861" lon="-1.68478">
        <ele>50.422512</ele>
        <time>2019-12-08T07:04:10Z</time>
      </trkpt>
      <trkpt lat="47.18871" lon="-1.68473">
        <ele>50.67353</ele>
        <time>2019-12-08T07:04:17Z</time>
      </trkpt>
      <trkpt lat="47.18872" lon="-1.68472">
        <ele>50.773933</ele>
        <time>2019-12-08T07:04:18Z</time>
      </trkpt>
      <trkpt lat="47.18882" lon="-1.68468">
        <ele>51.67495</ele>
        <time>2019-12-08T07:04:32Z</time>
      </trkpt>
      <trkpt lat="47.18883" lon="-1.6847">
        <ele>51.72251</ele>
        <time>2019-12-08T07:04:33Z</time>
      </trkpt>
      <trkpt lat="47.18891" lon="-1.68479">
        <ele>51.928608</ele>
        <time>2019-12-08T07:04:40Z</time>
      </trkpt>
      <trkpt lat="47.18893" lon="-1.6848">
        <ele>52.039585</ele>
        <time>2019-12-08T07:04:41Z</time>
      </trkpt>
      <trkpt lat="47.18903" lon="-1.68483">
        <ele>52.005234</ele>
        <time>2019-12-08T07:04:46Z</time>
      </trkpt>
      <trkpt lat="47.18913" lon="-1.6848">
        <ele>51.928608</ele>
        <time>2019-12-08T07:04:53Z</time>
      </trkpt>
      <trkpt lat="47.18922" lon="-1.68473">
        <ele>52.2906</ele>
        <time>2019-12-08T07:05:00Z</time>
      </trkpt>
      <trkpt lat="47.18923" lon="-1.68472">
        <ele>52.46499</ele>
        <time>2019-12-08T07:05:01Z</time>
      </trkpt>
      <trkpt lat="47.18925" lon="-1.68471">
        <ele>52.7345</ele>
        <time>2019-12-08T07:05:02Z</time>
      </trkpt>
      <trkpt lat="47.18926" lon="-1.6847">
        <ele>52.60239</ele>
        <time>2019-12-08T07:05:03Z</time>
      </trkpt>
      <trkpt lat="47.18935" lon="-1.68465">
        <ele>52.811127</ele>
        <time>2019-12-08T07:05:09Z</time>
      </trkpt>
      <trkpt lat="47.18936" lon="-1.68464">
        <ele>52.33816</ele>
        <time>2019-12-08T07:05:10Z</time>
      </trkpt>
      <trkpt lat="47.18945" lon="-1.68462">
        <ele>52.24304</ele>
        <time>2019-12-08T07:05:15Z</time>
      </trkpt>
      <trkpt lat="47.18955" lon="-1.68458">
        <ele>52.54162</ele>
        <time>2019-12-08T07:05:21Z</time>
      </trkpt>
      <trkpt lat="47.18964" lon="-1.68455">
        <ele>53.35544</ele>
        <time>2019-12-08T07:05:27Z</time>
      </trkpt>
      <trkpt lat="47.18965" lon="-1.68454">
        <ele>53.36865</ele>
        <time>2019-12-08T07:05:28Z</time>
      </trkpt>
      <trkpt lat="47.18967" lon="-1.68454">
        <ele>53.402996</ele>
        <time>2019-12-08T07:05:29Z</time>
      </trkpt>
      <trkpt lat="47.18968" lon="-1.68453">
        <ele>53.144054</ele>
        <time>2019-12-08T07:05:30Z</time>
      </trkpt>
      <trkpt lat="47.18977" lon="-1.68455">
        <ele>53.08064</ele>
        <time>2019-12-08T07:05:36Z</time>
      </trkpt>
      <trkpt lat="47.18987" lon="-1.68451">
        <ele>53.38186</ele>
        <time>2019-12-08T07:05:44Z</time>
      </trkpt>
      <trkpt lat="47.18997" lon="-1.68455">
        <ele>53.606453</ele>
        <time>2019-12-08T07:05:51Z</time>
      </trkpt>
      <trkpt lat="47.18998" lon="-1.68456">
        <ele>52.927387</ele>
        <time>2019-12-08T07:05:52Z</time>
      </trkpt>
      <trkpt lat="47.19005" lon="-1.68465">
        <ele>52.88247</ele>
        <time>2019-12-08T07:05:58Z</time>
      </trkpt>
      <trkpt lat="47.19011" lon="-1.68477">
        <ele>52.8032</ele>
        <time>2019-12-08T07:06:05Z</time>
      </trkpt>
      <trkpt lat="47.19015" lon="-1.6849">
        <ele>52.927387</ele>
        <time>2019-12-08T07:06:12Z</time>
      </trkpt>
      <trkpt lat="47.19019" lon="-1.68502">
        <ele>52.768852</ele>
        <time>2019-12-08T07:06:18Z</time>
      </trkpt>
      <trkpt lat="47.19024" lon="-1.68516">
        <ele>52.182266</ele>
        <time>2019-12-08T07:06:25Z</time>
      </trkpt>
      <trkpt lat="47.19028" lon="-1.68528">
        <ele>52.227184</ele>
        <time>2019-12-08T07:06:32Z</time>
      </trkpt>
      <trkpt lat="47.19037" lon="-1.68534">
        <ele>52.015804</ele>
        <time>2019-12-08T07:06:39Z</time>
      </trkpt>
      <trkpt lat="47.19047" lon="-1.68529">
        <ele>51.915398</ele>
        <time>2019-12-08T07:06:45Z</time>
      </trkpt>
      <trkpt lat="47.19057" lon="-1.68525">
        <ele>52.206047</ele>
        <time>2019-12-08T07:06:52Z</time>
      </trkpt>
      <trkpt lat="47.19066" lon="-1.68518">
        <ele>52.15056</ele>
        <time>2019-12-08T07:06:59Z</time>
      </trkpt>
      <trkpt lat="47.19074" lon="-1.68511">
        <ele>52.076576</ele>
        <time>2019-12-08T07:07:06Z</time>
      </trkpt>
      <trkpt lat="47.19084" lon="-1.68508">
        <ele>51.941822</ele>
        <time>2019-12-08T07:07:13Z</time>
      </trkpt>
      <trkpt lat="47.19093" lon="-1.68503">
        <ele>51.32353</ele>
        <time>2019-12-08T07:07:19Z</time>
      </trkpt>
      <trkpt lat="47.19102" lon="-1.68503">
        <ele>51.57983</ele>
        <time>2019-12-08T07:07:25Z</time>
      </trkpt>
      <trkpt lat="47.19111" lon="-1.68497">
        <ele>51.413364</ele>
        <time>2019-12-08T07:07:33Z</time>
      </trkpt>
      <trkpt lat="47.19119" lon="-1.6849">
        <ele>51.06987</ele>
        <time>2019-12-08T07:07:40Z</time>
      </trkpt>
      <trkpt lat="47.19128" lon="-1.68484">
        <ele>50.53349</ele>
        <time>2019-12-08T07:07:46Z</time>
      </trkpt>
      <trkpt lat="47.19137" lon="-1.6848">
        <ele>49.088165</ele>
        <time>2019-12-08T07:07:52Z</time>
      </trkpt>
      <trkpt lat="47.19146" lon="-1.68475">
        <ele>47.730034</ele>
        <time>2019-12-08T07:07:59Z</time>
      </trkpt>
      <trkpt lat="47.19154" lon="-1.6847">
        <ele>47.101173</ele>
        <time>2019-12-08T07:08:06Z</time>
      </trkpt>
      <trkpt lat="47.19157" lon="-1.68457">
        <ele>45.698128</ele>
        <time>2019-12-08T07:08:19Z</time>
      </trkpt>
      <trkpt lat="47.19161" lon="-1.68444">
        <ele>44.05199</ele>
        <time>2019-12-08T07:08:27Z</time>
      </trkpt>
      <trkpt lat="47.19162" lon="-1.68431">
        <ele>42.23939</ele>
        <time>2019-12-08T07:08:38Z</time>
      </trkpt>
      <trkpt lat="47.19165" lon="-1.68417">
        <ele>39.953823</ele>
        <time>2019-12-08T07:08:48Z</time>
      </trkpt>
      <trkpt lat="47.19171" lon="-1.68406">
        <ele>37.14509</ele>
        <time>2019-12-08T07:09:00Z</time>
      </trkpt>
      <trkpt lat="47.19178" lon="-1.68413">
        <ele>35.966633</ele>
        <time>2019-12-08T07:09:09Z</time>
      </trkpt>
      <trkpt lat="47.19187" lon="-1.68407">
        <ele>30.972734</ele>
        <time>2019-12-08T07:09:31Z</time>
      </trkpt>
      <trkpt lat="47.19191" lon="-1.68394">
        <ele>28.843061</ele>
        <time>2019-12-08T07:09:40Z</time>
      </trkpt>
      <trkpt lat="47.19195" lon="-1.68382">
        <ele>27.429445</ele>
        <time>2019-12-08T07:09:48Z</time>
      </trkpt>
      <trkpt lat="47.19203" lon="-1.68391">
        <ele>26.642048</ele>
        <time>2019-12-08T07:09:58Z</time>
      </trkpt>
      <trkpt lat="47.19205" lon="-1.68405">
        <ele>27.088593</ele>
        <time>2019-12-08T07:10:05Z</time>
      </trkpt>
      <trkpt lat="47.19205" lon="-1.68421">
        <ele>27.566843</ele>
        <time>2019-12-08T07:10:12Z</time>
      </trkpt>
      <trkpt lat="47.19204" lon="-1.68435">
        <ele>27.74652</ele>
        <time>2019-12-08T07:10:18Z</time>
      </trkpt>
      <trkpt lat="47.19204" lon="-1.68451">
        <ele>28.85363</ele>
        <time>2019-12-08T07:10:25Z</time>
      </trkpt>
      <trkpt lat="47.19204" lon="-1.68466">
        <ele>28.668673</ele>
        <time>2019-12-08T07:10:31Z</time>
      </trkpt>
      <trkpt lat="47.19202" lon="-1.68479">
        <ele>30.489199</ele>
        <time>2019-12-08T07:10:38Z</time>
      </trkpt>
      <trkpt lat="47.19201" lon="-1.68494">
        <ele>31.02558</ele>
        <time>2019-12-08T07:10:44Z</time>
      </trkpt>
      <trkpt lat="47.19202" lon="-1.68507">
        <ele>31.390213</ele>
        <time>2019-12-08T07:10:50Z</time>
      </trkpt>
      <trkpt lat="47.19207" lon="-1.6852">
        <ele>32.28066</ele>
        <time>2019-12-08T07:10:57Z</time>
      </trkpt>
      <trkpt lat="47.19217" lon="-1.68525">
        <ele>32.51318</ele>
        <time>2019-12-08T07:11:05Z</time>
      </trkpt>
      <trkpt lat="47.19225" lon="-1.68531">
        <ele>33.054848</ele>
        <time>2019-12-08T07:11:11Z</time>
      </trkpt>
      <trkpt lat="47.19233" lon="-1.6854">
        <ele>33.3957</ele>
        <time>2019-12-08T07:11:17Z</time>
      </trkpt>
      <trkpt lat="47.19236" lon="-1.68555">
        <ele>34.17517</ele>
        <time>2019-12-08T07:11:24Z</time>
      </trkpt>
      <trkpt lat="47.19238" lon="-1.68568">
        <ele>34.94143</ele>
        <time>2019-12-08T07:11:32Z</time>
      </trkpt>
      <trkpt lat="47.19241" lon="-1.68583">
        <ele>35.176594</ele>
        <time>2019-12-08T07:11:39Z</time>
      </trkpt>
      <trkpt lat="47.19243" lon="-1.68598">
        <ele>36.14102</ele>
        <time>2019-12-08T07:11:46Z</time>
      </trkpt>
      <trkpt lat="47.19241" lon="-1.68612">
        <ele>36.896713</ele>
        <time>2019-12-08T07:11:53Z</time>
      </trkpt>
      <trkpt lat="47.19243" lon="-1.68626">
        <ele>37.75545</ele>
        <time>2019-12-08T07:12:01Z</time>
      </trkpt>
      <trkpt lat="47.19245" lon="-1.6864">
        <ele>37.86114</ele>
        <time>2019-12-08T07:12:08Z</time>
      </trkpt>
      <trkpt lat="47.19245" lon="-1.68654">
        <ele>38.801792</ele>
        <time>2019-12-08T07:12:13Z</time>
      </trkpt>
      <trkpt lat="47.19244" lon="-1.68669">
        <ele>39.501995</ele>
        <time>2019-12-08T07:12:20Z</time>
      </trkpt>
      <trkpt lat="47.19243" lon="-1.68682">
        <ele>39.98553</ele>
        <time>2019-12-08T07:12:28Z</time>
      </trkpt>
      <trkpt lat="47.19237" lon="-1.68696">
        <ele>40.408295</ele>
        <time>2019-12-08T07:12:34Z</time>
      </trkpt>
      <trkpt lat="47.19232" lon="-1.68707">
        <ele>40.873337</ele>
        <time>2019-12-08T07:12:40Z</time>
      </trkpt>
      <trkpt lat="47.19228" lon="-1.68719">
        <ele>41.689796</ele>
        <time>2019-12-08T07:12:46Z</time>
      </trkpt>
      <trkpt lat="47.19227" lon="-1.68732">
        <ele>42.569675</ele>
        <time>2019-12-08T07:12:53Z</time>
      </trkpt>
      <trkpt lat="47.1923" lon="-1.68746">
        <ele>43.34386</ele>
        <time>2019-12-08T07:13:00Z</time>
      </trkpt>
      <trkpt lat="47.19233" lon="-1.68759">
        <ele>43.579025</ele>
        <time>2019-12-08T07:13:07Z</time>
      </trkpt>
      <trkpt lat="47.19235" lon="-1.68772">
        <ele>44.65707</ele>
        <time>2019-12-08T07:13:13Z</time>
      </trkpt>
      <trkpt lat="47.19239" lon="-1.68786">
        <ele>45.21195</ele>
        <time>2019-12-08T07:13:20Z</time>
      </trkpt>
      <trkpt lat="47.1924" lon="-1.68799">
        <ele>45.61093</ele>
        <time>2019-12-08T07:13:26Z</time>
      </trkpt>
      <trkpt lat="47.19239" lon="-1.68814">
        <ele>45.61886</ele>
        <time>2019-12-08T07:13:33Z</time>
      </trkpt>
      <trkpt lat="47.19238" lon="-1.68828">
        <ele>46.731255</ele>
        <time>2019-12-08T07:13:42Z</time>
      </trkpt>
      <trkpt lat="47.19243" lon="-1.68841">
        <ele>47.191013</ele>
        <time>2019-12-08T07:13:50Z</time>
      </trkpt>
      <trkpt lat="47.19249" lon="-1.68853">
        <ele>47.193653</ele>
        <time>2019-12-08T07:13:56Z</time>
      </trkpt>
      <trkpt lat="47.19255" lon="-1.68865">
        <ele>46.868656</ele>
        <time>2019-12-08T07:14:03Z</time>
      </trkpt>
      <trkpt lat="47.19261" lon="-1.68877">
        <ele>46.741825</ele>
        <time>2019-12-08T07:14:10Z</time>
      </trkpt>
      <trkpt lat="47.19266" lon="-1.68889">
        <ele>47.61906</ele>
        <time>2019-12-08T07:14:17Z</time>
      </trkpt>
      <trkpt lat="47.19272" lon="-1.68899">
        <ele>47.191013</ele>
        <time>2019-12-08T07:14:23Z</time>
      </trkpt>
      <trkpt lat="47.19277" lon="-1.6891">
        <ele>46.9215</ele>
        <time>2019-12-08T07:14:30Z</time>
      </trkpt>
      <trkpt lat="47.19283" lon="-1.68921">
        <ele>47.5028</ele>
        <time>2019-12-08T07:14:35Z</time>
      </trkpt>
      <trkpt lat="47.1929" lon="-1.68932">
        <ele>47.2465</ele>
        <time>2019-12-08T07:14:42Z</time>
      </trkpt>
      <trkpt lat="47.19295" lon="-1.68945">
        <ele>47.405037</ele>
        <time>2019-12-08T07:14:49Z</time>
      </trkpt>
      <trkpt lat="47.19301" lon="-1.68956">
        <ele>47.553005</ele>
        <time>2019-12-08T07:14:55Z</time>
      </trkpt>
      <trkpt lat="47.19308" lon="-1.68967">
        <ele>47.135525</ele>
        <time>2019-12-08T07:15:02Z</time>
      </trkpt>
      <trkpt lat="47.19313" lon="-1.6898">
        <ele>46.525158</ele>
        <time>2019-12-08T07:15:09Z</time>
      </trkpt>
      <trkpt lat="47.19318" lon="-1.68991">
        <ele>46.799957</ele>
        <time>2019-12-08T07:15:15Z</time>
      </trkpt>
      <trkpt lat="47.19323" lon="-1.69005">
        <ele>45.645283</ele>
        <time>2019-12-08T07:15:21Z</time>
      </trkpt>
      <trkpt lat="47.19328" lon="-1.69017">
        <ele>45.639996</ele>
        <time>2019-12-08T07:15:27Z</time>
      </trkpt>
      <trkpt lat="47.19327" lon="-1.69031">
        <ele>45.8276</ele>
        <time>2019-12-08T07:15:34Z</time>
      </trkpt>
      <trkpt lat="47.19318" lon="-1.69037">
        <ele>46.2715</ele>
        <time>2019-12-08T07:15:40Z</time>
      </trkpt>
      <trkpt lat="47.19309" lon="-1.69044">
        <ele>47.13817</ele>
        <time>2019-12-08T07:15:47Z</time>
      </trkpt>
      <trkpt lat="47.19299" lon="-1.69044">
        <ele>47.066826</ele>
        <time>2019-12-08T07:15:54Z</time>
      </trkpt>
      <trkpt lat="47.19294" lon="-1.69032">
        <ele>47.801376</ele>
        <time>2019-12-08T07:16:01Z</time>
      </trkpt>
      <trkpt lat="47.19288" lon="-1.69018">
        <ele>48.69975</ele>
        <time>2019-12-08T07:16:08Z</time>
      </trkpt>
      <trkpt lat="47.19282" lon="-1.69009">
        <ele>48.615196</ele>
        <time>2019-12-08T07:16:14Z</time>
      </trkpt>
      <trkpt lat="47.19277" lon="-1.68996">
        <ele>48.496296</ele>
        <time>2019-12-08T07:16:21Z</time>
      </trkpt>
      <trkpt lat="47.19271" lon="-1.68984">
        <ele>48.69975</ele>
        <time>2019-12-08T07:16:28Z</time>
      </trkpt>
      <trkpt lat="47.19265" lon="-1.68972">
        <ele>48.958694</ele>
        <time>2019-12-08T07:16:34Z</time>
      </trkpt>
      <trkpt lat="47.1926" lon="-1.6896">
        <ele>49.019466</ele>
        <time>2019-12-08T07:16:40Z</time>
      </trkpt>
      <trkpt lat="47.19253" lon="-1.68948">
        <ele>48.958694</ele>
        <time>2019-12-08T07:16:48Z</time>
      </trkpt>
      <trkpt lat="47.19247" lon="-1.68936">
        <ele>49.207066</ele>
        <time>2019-12-08T07:16:55Z</time>
      </trkpt>
      <trkpt lat="47.19242" lon="-1.68925">
        <ele>49.40788</ele>
        <time>2019-12-08T07:17:01Z</time>
      </trkpt>
      <trkpt lat="47.19236" lon="-1.68912">
        <ele>49.46865</ele>
        <time>2019-12-08T07:17:07Z</time>
      </trkpt>
      <trkpt lat="47.1923" lon="-1.68901">
        <ele>50.028812</ele>
        <time>2019-12-08T07:17:14Z</time>
      </trkpt>
      <trkpt lat="47.19225" lon="-1.6889">
        <ele>49.706455</ele>
        <time>2019-12-08T07:17:20Z</time>
      </trkpt>
      <trkpt lat="47.1922" lon="-1.68879">
        <ele>49.413166</ele>
        <time>2019-12-08T07:17:26Z</time>
      </trkpt>
      <trkpt lat="47.19214" lon="-1.68866">
        <ele>49.590195</ele>
        <time>2019-12-08T07:17:33Z</time>
      </trkpt>
      <trkpt lat="47.19211" lon="-1.68854">
        <ele>49.217636</ele>
        <time>2019-12-08T07:17:39Z</time>
      </trkpt>
      <trkpt lat="47.19207" lon="-1.68841">
        <ele>49.40524</ele>
        <time>2019-12-08T07:17:46Z</time>
      </trkpt>
      <trkpt lat="47.19202" lon="-1.68829">
        <ele>49.331253</ele>
        <time>2019-12-08T07:17:52Z</time>
      </trkpt>
      <trkpt lat="47.19199" lon="-1.68816">
        <ele>49.81215</ele>
        <time>2019-12-08T07:17:58Z</time>
      </trkpt>
      <trkpt lat="47.19195" lon="-1.68804">
        <ele>49.532066</ele>
        <time>2019-12-08T07:18:05Z</time>
      </trkpt>
      <trkpt lat="47.19191" lon="-1.68791">
        <ele>49.962757</ele>
        <time>2019-12-08T07:18:11Z</time>
      </trkpt>
      <trkpt lat="47.19188" lon="-1.68778">
        <ele>50.100155</ele>
        <time>2019-12-08T07:18:17Z</time>
      </trkpt>
      <trkpt lat="47.19183" lon="-1.68767">
        <ele>49.685318</ele>
        <time>2019-12-08T07:18:23Z</time>
      </trkpt>
      <trkpt lat="47.19178" lon="-1.68755">
        <ele>49.53735</ele>
        <time>2019-12-08T07:18:29Z</time>
      </trkpt>
      <trkpt lat="47.19175" lon="-1.68741">
        <ele>49.65097</ele>
        <time>2019-12-08T07:18:36Z</time>
      </trkpt>
      <trkpt lat="47.19171" lon="-1.68727">
        <ele>49.933693</ele>
        <time>2019-12-08T07:18:42Z</time>
      </trkpt>
      <trkpt lat="47.19166" lon="-1.68715">
        <ele>49.58491</ele>
        <time>2019-12-08T07:18:49Z</time>
      </trkpt>
      <trkpt lat="47.19163" lon="-1.68702">
        <ele>49.69853</ele>
        <time>2019-12-08T07:18:55Z</time>
      </trkpt>
      <trkpt lat="47.1916" lon="-1.68689">
        <ele>49.347107</ele>
        <time>2019-12-08T07:19:01Z</time>
      </trkpt>
      <trkpt lat="47.19155" lon="-1.68677">
        <ele>50.123936</ele>
        <time>2019-12-08T07:19:07Z</time>
      </trkpt>
      <trkpt lat="47.19154" lon="-1.68663">
        <ele>49.87556</ele>
        <time>2019-12-08T07:19:14Z</time>
      </trkpt>
      <trkpt lat="47.19162" lon="-1.68655">
        <ele>48.805443</ele>
        <time>2019-12-08T07:19:22Z</time>
      </trkpt>
      <trkpt lat="47.19169" lon="-1.68645">
        <ele>48.98776</ele>
        <time>2019-12-08T07:19:28Z</time>
      </trkpt>
      <trkpt lat="47.19165" lon="-1.68632">
        <ele>49.51093</ele>
        <time>2019-12-08T07:19:35Z</time>
      </trkpt>
      <trkpt lat="47.19162" lon="-1.6862">
        <ele>50.12922</ele>
        <time>2019-12-08T07:19:41Z</time>
      </trkpt>
      <trkpt lat="47.19159" lon="-1.68606">
        <ele>50.26926</ele>
        <time>2019-12-08T07:19:47Z</time>
      </trkpt>
      <trkpt lat="47.19155" lon="-1.68593">
        <ele>50.586334</ele>
        <time>2019-12-08T07:19:53Z</time>
      </trkpt>
      <trkpt lat="47.19151" lon="-1.6858">
        <ele>50.818855</ele>
        <time>2019-12-08T07:19:59Z</time>
      </trkpt>
      <trkpt lat="47.1915" lon="-1.68567">
        <ele>51.645885</ele>
        <time>2019-12-08T07:20:05Z</time>
      </trkpt>
      <trkpt lat="47.19144" lon="-1.68555">
        <ele>50.845276</ele>
        <time>2019-12-08T07:20:12Z</time>
      </trkpt>
      <trkpt lat="47.19139" lon="-1.68541">
        <ele>51.39751</ele>
        <time>2019-12-08T07:20:20Z</time>
      </trkpt>
      <trkpt lat="47.19133" lon="-1.6853">
        <ele>51.63796</ele>
        <time>2019-12-08T07:20:27Z</time>
      </trkpt>
      <trkpt lat="47.19129" lon="-1.68517">
        <ele>51.344666</ele>
        <time>2019-12-08T07:20:33Z</time>
      </trkpt>
      <trkpt lat="47.19124" lon="-1.68505">
        <ele>51.479424</ele>
        <time>2019-12-08T07:20:39Z</time>
      </trkpt>
      <trkpt lat="47.19122" lon="-1.68492">
        <ele>51.492634</ele>
        <time>2019-12-08T07:20:45Z</time>
      </trkpt>
      <trkpt lat="47.19118" lon="-1.68479">
        <ele>51.8467</ele>
        <time>2019-12-08T07:20:52Z</time>
      </trkpt>
      <trkpt lat="47.19114" lon="-1.68467">
        <ele>52.097713</ele>
        <time>2019-12-08T07:20:58Z</time>
      </trkpt>
      <trkpt lat="47.19109" lon="-1.68456">
        <ele>52.258892</ele>
        <time>2019-12-08T07:21:04Z</time>
      </trkpt>
      <trkpt lat="47.19103" lon="-1.68444">
        <ele>52.38044</ele>
        <time>2019-12-08T07:21:10Z</time>
      </trkpt>
      <trkpt lat="47.19101" lon="-1.6843">
        <ele>52.85076</ele>
        <time>2019-12-08T07:21:16Z</time>
      </trkpt>
      <trkpt lat="47.19099" lon="-1.68417">
        <ele>53.144054</ele>
        <time>2019-12-08T07:21:22Z</time>
      </trkpt>
      <trkpt lat="47.191" lon="-1.68403">
        <ele>53.109707</ele>
        <time>2019-12-08T07:21:29Z</time>
      </trkpt>
      <trkpt lat="47.19099" lon="-1.68388">
        <ele>53.122917</ele>
        <time>2019-12-08T07:21:38Z</time>
      </trkpt>
      <trkpt lat="47.19099" lon="-1.68374">
        <ele>52.729218</ele>
        <time>2019-12-08T07:21:45Z</time>
      </trkpt>
      <trkpt lat="47.19101" lon="-1.68359">
        <ele>52.491413</ele>
        <time>2019-12-08T07:21:50Z</time>
      </trkpt>
      <trkpt lat="47.19101" lon="-1.68344">
        <ele>52.213974</ele>
        <time>2019-12-08T07:21:57Z</time>
      </trkpt>
      <trkpt lat="47.19098" lon="-1.6833">
        <ele>52.62617</ele>
        <time>2019-12-08T07:22:03Z</time>
      </trkpt>
      <trkpt lat="47.19096" lon="-1.68315">
        <ele>51.785927</ele>
        <time>2019-12-08T07:22:10Z</time>
      </trkpt>
      <trkpt lat="47.19096" lon="-1.68301">
        <ele>52.219257</ele>
        <time>2019-12-08T07:22:16Z</time>
      </trkpt>
      <trkpt lat="47.19094" lon="-1.68288">
        <ele>52.23247</ele>
        <time>2019-12-08T07:22:23Z</time>
      </trkpt>
      <trkpt lat="47.1909" lon="-1.68276">
        <ele>51.799137</ele>
        <time>2019-12-08T07:22:30Z</time>
      </trkpt>
      <trkpt lat="47.19085" lon="-1.68264">
        <ele>51.970886</ele>
        <time>2019-12-08T07:22:35Z</time>
      </trkpt>
      <trkpt lat="47.19081" lon="-1.68251">
        <ele>51.7093</ele>
        <time>2019-12-08T07:22:41Z</time>
      </trkpt>
      <trkpt lat="47.19078" lon="-1.68238">
        <ele>52.64202</ele>
        <time>2019-12-08T07:22:48Z</time>
      </trkpt>
      <trkpt lat="47.19074" lon="-1.68225">
        <ele>52.25361</ele>
        <time>2019-12-08T07:22:55Z</time>
      </trkpt>
      <trkpt lat="47.1907" lon="-1.68211">
        <ele>52.531048</ele>
        <time>2019-12-08T07:23:02Z</time>
      </trkpt>
      <trkpt lat="47.19065" lon="-1.68197">
        <ele>52.391006</ele>
        <time>2019-12-08T07:23:09Z</time>
      </trkpt>
      <trkpt lat="47.19063" lon="-1.68184">
        <ele>52.39365</ele>
        <time>2019-12-08T07:23:15Z</time>
      </trkpt>
      <trkpt lat="47.19058" lon="-1.68173">
        <ele>52.007877</ele>
        <time>2019-12-08T07:23:21Z</time>
      </trkpt>
      <trkpt lat="47.19053" lon="-1.6816">
        <ele>51.902187</ele>
        <time>2019-12-08T07:23:27Z</time>
      </trkpt>
      <trkpt lat="47.19048" lon="-1.68148">
        <ele>51.73308</ele>
        <time>2019-12-08T07:23:34Z</time>
      </trkpt>
      <trkpt lat="47.19044" lon="-1.68135">
        <ele>51.61682</ele>
        <time>2019-12-08T07:23:40Z</time>
      </trkpt>
      <trkpt lat="47.19038" lon="-1.68122">
        <ele>51.453</ele>
        <time>2019-12-08T07:23:47Z</time>
      </trkpt>
      <trkpt lat="47.19032" lon="-1.68111">
        <ele>51.20991</ele>
        <time>2019-12-08T07:23:53Z</time>
      </trkpt>
      <trkpt lat="47.19024" lon="-1.68101">
        <ele>50.924545</ele>
        <time>2019-12-08T07:24:00Z</time>
      </trkpt>
      <trkpt lat="47.19017" lon="-1.68089">
        <ele>50.88491</ele>
        <time>2019-12-08T07:24:07Z</time>
      </trkpt>
      <trkpt lat="47.19009" lon="-1.68079">
        <ele>50.776577</ele>
        <time>2019-12-08T07:24:13Z</time>
      </trkpt>
      <trkpt lat="47.19003" lon="-1.68067">
        <ele>50.53349</ele>
        <time>2019-12-08T07:24:20Z</time>
      </trkpt>
      <trkpt lat="47.18996" lon="-1.68057">
        <ele>50.472717</ele>
        <time>2019-12-08T07:24:26Z</time>
      </trkpt>
      <trkpt lat="47.1899" lon="-1.68045">
        <ele>50.401375</ele>
        <time>2019-12-08T07:24:33Z</time>
      </trkpt>
      <trkpt lat="47.18984" lon="-1.68034">
        <ele>50.16357</ele>
        <time>2019-12-08T07:24:39Z</time>
      </trkpt>
      <trkpt lat="47.18977" lon="-1.68024">
        <ele>50.018246</ele>
        <time>2019-12-08T07:24:46Z</time>
      </trkpt>
      <trkpt lat="47.18971" lon="-1.68012">
        <ele>50.24284</ele>
        <time>2019-12-08T07:24:53Z</time>
      </trkpt>
      <trkpt lat="47.18964" lon="-1.68002">
        <ele>49.888775</ele>
        <time>2019-12-08T07:25:00Z</time>
      </trkpt>
      <trkpt lat="47.18955" lon="-1.67993">
        <ele>49.22028</ele>
        <time>2019-12-08T07:25:06Z</time>
      </trkpt>
      <trkpt lat="47.1895" lon="-1.6798">
        <ele>48.26642</ele>
        <time>2019-12-08T07:25:13Z</time>
      </trkpt>
      <trkpt lat="47.18944" lon="-1.67969">
        <ele>48.533287</ele>
        <time>2019-12-08T07:25:20Z</time>
      </trkpt>
      <trkpt lat="47.18938" lon="-1.67957">
        <ele>48.752594</ele>
        <time>2019-12-08T07:25:27Z</time>
      </trkpt>
      <trkpt lat="47.18933" lon="-1.67945">
        <ele>48.68654</ele>
        <time>2019-12-08T07:25:34Z</time>
      </trkpt>
      <trkpt lat="47.18927" lon="-1.67933">
        <ele>48.27963</ele>
        <time>2019-12-08T07:25:41Z</time>
      </trkpt>
      <trkpt lat="47.18922" lon="-1.6792">
        <ele>47.70097</ele>
        <time>2019-12-08T07:25:48Z</time>
      </trkpt>
      <trkpt lat="47.18918" lon="-1.67907">
        <ele>47.518654</ele>
        <time>2019-12-08T07:25:54Z</time>
      </trkpt>
      <trkpt lat="47.18918" lon="-1.67894">
        <ele>47.196297</ele>
        <time>2019-12-08T07:26:00Z</time>
      </trkpt>
      <trkpt lat="47.18917" lon="-1.67879">
        <ele>46.5965</ele>
        <time>2019-12-08T07:26:07Z</time>
      </trkpt>
      <trkpt lat="47.18916" lon="-1.67865">
        <ele>44.5276</ele>
        <time>2019-12-08T07:26:15Z</time>
      </trkpt>
      <trkpt lat="47.18916" lon="-1.6785">
        <ele>44.252804</ele>
        <time>2019-12-08T07:26:23Z</time>
      </trkpt>
      <trkpt lat="47.18913" lon="-1.67837">
        <ele>45.108902</ele>
        <time>2019-12-08T07:26:29Z</time>
      </trkpt>
      <trkpt lat="47.18913" lon="-1.67823">
        <ele>45.10626</ele>
        <time>2019-12-08T07:26:35Z</time>
      </trkpt>
      <trkpt lat="47.18913" lon="-1.67808">
        <ele>46.1341</ele>
        <time>2019-12-08T07:26:41Z</time>
      </trkpt>
      <trkpt lat="47.1891" lon="-1.67794">
        <ele>46.519875</ele>
        <time>2019-12-08T07:26:48Z</time>
      </trkpt>
      <trkpt lat="47.18908" lon="-1.67779">
        <ele>47.690403</ele>
        <time>2019-12-08T07:26:55Z</time>
      </trkpt>
      <trkpt lat="47.18906" lon="-1.67765">
        <ele>48.56235</ele>
        <time>2019-12-08T07:27:01Z</time>
      </trkpt>
      <trkpt lat="47.18903" lon="-1.67752">
        <ele>48.776375</ele>
        <time>2019-12-08T07:27:07Z</time>
      </trkpt>
      <trkpt lat="47.18902" lon="-1.67737">
        <ele>48.681255</ele>
        <time>2019-12-08T07:27:14Z</time>
      </trkpt>
      <trkpt lat="47.18899" lon="-1.67724">
        <ele>49.09345</ele>
        <time>2019-12-08T07:27:20Z</time>
      </trkpt>
      <trkpt lat="47.18894" lon="-1.67712">
        <ele>49.60341</ele>
        <time>2019-12-08T07:27:26Z</time>
      </trkpt>
      <trkpt lat="47.18887" lon="-1.67702">
        <ele>49.9654</ele>
        <time>2019-12-08T07:27:33Z</time>
      </trkpt>
      <trkpt lat="47.18878" lon="-1.67703">
        <ele>50.46479</ele>
        <time>2019-12-08T07:27:40Z</time>
      </trkpt>
      <trkpt lat="47.18868" lon="-1.67704">
        <ele>51.061943</ele>
        <time>2019-12-08T07:27:46Z</time>
      </trkpt>
      <trkpt lat="47.18859" lon="-1.67704">
        <ele>50.913975</ele>
        <time>2019-12-08T07:27:52Z</time>
      </trkpt>
      <trkpt lat="47.1885" lon="-1.67704">
        <ele>52.211334</ele>
        <time>2019-12-08T07:27:58Z</time>
      </trkpt>
      <trkpt lat="47.18841" lon="-1.67708">
        <ele>53.239178</ele>
        <time>2019-12-08T07:28:04Z</time>
      </trkpt>
      <trkpt lat="47.18832" lon="-1.67711">
        <ele>53.458485</ele>
        <time>2019-12-08T07:28:10Z</time>
      </trkpt>
      <trkpt lat="47.18823" lon="-1.67714">
        <ele>53.01194</ele>
        <time>2019-12-08T07:28:17Z</time>
      </trkpt>
      <trkpt lat="47.18813" lon="-1.67717">
        <ele>53.402996</ele>
        <time>2019-12-08T07:28:23Z</time>
      </trkpt>
      <trkpt lat="47.18804" lon="-1.6772">
        <ele>54.179825</ele>
        <time>2019-12-08T07:28:29Z</time>
      </trkpt>
      <trkpt lat="47.18803" lon="-1.67719">
        <ele>54.153404</ele>
        <time>2019-12-08T07:28:30Z</time>
      </trkpt>
      <trkpt lat="47.18795" lon="-1.67709">
        <ele>54.91438</ele>
        <time>2019-12-08T07:28:37Z</time>
      </trkpt>
      <trkpt lat="47.18795" lon="-1.67707">
        <ele>55.09405</ele>
        <time>2019-12-08T07:28:38Z</time>
      </trkpt>
      <trkpt lat="47.18794" lon="-1.67705">
        <ele>55.244663</ele>
        <time>2019-12-08T07:28:39Z</time>
      </trkpt>
      <trkpt lat="47.18793" lon="-1.67703">
        <ele>55.41377</ele>
        <time>2019-12-08T07:28:40Z</time>
      </trkpt>
      <trkpt lat="47.18792" lon="-1.677">
        <ele>55.231453</ele>
        <time>2019-12-08T07:28:41Z</time>
      </trkpt>
      <trkpt lat="47.18787" lon="-1.6769">
        <ele>55.316006</ele>
        <time>2019-12-08T07:28:47Z</time>
      </trkpt>
      <trkpt lat="47.1878" lon="-1.67679">
        <ele>54.8219</ele>
        <time>2019-12-08T07:28:53Z</time>
      </trkpt>
      <trkpt lat="47.18772" lon="-1.67669">
        <ele>55.24202</ele>
        <time>2019-12-08T07:29:00Z</time>
      </trkpt>
      <trkpt lat="47.18766" lon="-1.67658">
        <ele>55.53267</ele>
        <time>2019-12-08T07:29:07Z</time>
      </trkpt>
      <trkpt lat="47.18765" lon="-1.67655">
        <ele>55.503605</ele>
        <time>2019-12-08T07:29:08Z</time>
      </trkpt>
      <trkpt lat="47.18758" lon="-1.67644">
        <ele>55.971287</ele>
        <time>2019-12-08T07:29:14Z</time>
      </trkpt>
      <trkpt lat="47.18757" lon="-1.67642">
        <ele>56.259296</ele>
        <time>2019-12-08T07:29:15Z</time>
      </trkpt>
      <trkpt lat="47.18756" lon="-1.67641">
        <ele>55.907875</ele>
        <time>2019-12-08T07:29:16Z</time>
      </trkpt>
      <trkpt lat="47.18752" lon="-1.67628">
        <ele>55.841816</ele>
        <time>2019-12-08T07:29:22Z</time>
      </trkpt>
      <trkpt lat="47.18749" lon="-1.67614">
        <ele>55.24202</ele>
        <time>2019-12-08T07:29:29Z</time>
      </trkpt>
      <trkpt lat="47.18745" lon="-1.67602">
        <ele>55.181248</ele>
        <time>2019-12-08T07:29:35Z</time>
      </trkpt>
      <trkpt lat="47.18741" lon="-1.67589">
        <ele>55.627792</ele>
        <time>2019-12-08T07:29:42Z</time>
      </trkpt>
      <trkpt lat="47.18737" lon="-1.67577">
        <ele>55.722916</ele>
        <time>2019-12-08T07:29:48Z</time>
      </trkpt>
      <trkpt lat="47.18735" lon="-1.67563">
        <ele>55.40056</ele>
        <time>2019-12-08T07:29:54Z</time>
      </trkpt>
      <trkpt lat="47.18731" lon="-1.6755">
        <ele>55.889378</ele>
        <time>2019-12-08T07:30:01Z</time>
      </trkpt>
      <trkpt lat="47.18728" lon="-1.67538">
        <ele>55.971287</ele>
        <time>2019-12-08T07:30:07Z</time>
      </trkpt>
      <trkpt lat="47.18727" lon="-1.67536">
        <ele>56.00828</ele>
        <time>2019-12-08T07:30:08Z</time>
      </trkpt>
      <trkpt lat="47.18723" lon="-1.67521">
        <ele>56.33328</ele>
        <time>2019-12-08T07:30:14Z</time>
      </trkpt>
      <trkpt lat="47.18722" lon="-1.67519">
        <ele>56.22759</ele>
        <time>2019-12-08T07:30:15Z</time>
      </trkpt>
      <trkpt lat="47.18721" lon="-1.67505">
        <ele>56.581654</ele>
        <time>2019-12-08T07:30:21Z</time>
      </trkpt>
      <trkpt lat="47.18721" lon="-1.67503">
        <ele>56.766613</ele>
        <time>2019-12-08T07:30:22Z</time>
      </trkpt>
      <trkpt lat="47.18721" lon="-1.675">
        <ele>56.827385</ele>
        <time>2019-12-08T07:30:23Z</time>
      </trkpt>
      <trkpt lat="47.18722" lon="-1.67498">
        <ele>56.756042</ele>
        <time>2019-12-08T07:30:24Z</time>
      </trkpt>
      <trkpt lat="47.18729" lon="-1.67487">
        <ele>56.02942</ele>
        <time>2019-12-08T07:30:31Z</time>
      </trkpt>
      <trkpt lat="47.18737" lon="-1.67479">
        <ele>55.257874</ele>
        <time>2019-12-08T07:30:37Z</time>
      </trkpt>
      <trkpt lat="47.18747" lon="-1.67471">
        <ele>55.207672</ele>
        <time>2019-12-08T07:30:44Z</time>
      </trkpt>
      <trkpt lat="47.18755" lon="-1.67461">
        <ele>54.829826</ele>
        <time>2019-12-08T07:30:50Z</time>
      </trkpt>
      <trkpt lat="47.18764" lon="-1.67454">
        <ele>55.152184</ele>
        <time>2019-12-08T07:30:56Z</time>
      </trkpt>
      <trkpt lat="47.18772" lon="-1.67447">
        <ele>54.816616</ele>
        <time>2019-12-08T07:31:02Z</time>
      </trkpt>
      <trkpt lat="47.18781" lon="-1.67443">
        <ele>54.27495</ele>
        <time>2019-12-08T07:31:08Z</time>
      </trkpt>
      <trkpt lat="47.1879" lon="-1.67438">
        <ele>53.920883</ele>
        <time>2019-12-08T07:31:14Z</time>
      </trkpt>
      <trkpt lat="47.188" lon="-1.67433">
        <ele>53.857468</ele>
        <time>2019-12-08T07:31:21Z</time>
      </trkpt>
      <trkpt lat="47.18809" lon="-1.6743">
        <ele>52.726574</ele>
        <time>2019-12-08T07:31:27Z</time>
      </trkpt>
      <trkpt lat="47.18818" lon="-1.67427">
        <ele>52.66052</ele>
        <time>2019-12-08T07:31:33Z</time>
      </trkpt>
      <trkpt lat="47.18827" lon="-1.67423">
        <ele>52.087147</ele>
        <time>2019-12-08T07:31:39Z</time>
      </trkpt>
      <trkpt lat="47.18837" lon="-1.6742">
        <ele>51.257473</ele>
        <time>2019-12-08T07:31:45Z</time>
      </trkpt>
      <trkpt lat="47.18847" lon="-1.67418">
        <ele>49.99182</ele>
        <time>2019-12-08T07:31:53Z</time>
      </trkpt>
      <trkpt lat="47.18856" lon="-1.67416">
        <ele>49.00097</ele>
        <time>2019-12-08T07:32:00Z</time>
      </trkpt>
      <trkpt lat="47.18866" lon="-1.67414">
        <ele>47.893856</ele>
        <time>2019-12-08T07:32:07Z</time>
      </trkpt>
      <trkpt lat="47.18874" lon="-1.6741">
        <ele>46.556866</ele>
        <time>2019-12-08T07:32:15Z</time>
      </trkpt>
      <trkpt lat="47.18883" lon="-1.67403">
        <ele>46.45646</ele>
        <time>2019-12-08T07:32:26Z</time>
      </trkpt>
      <trkpt lat="47.18879" lon="-1.67389">
        <ele>46.35077</ele>
        <time>2019-12-08T07:32:34Z</time>
      </trkpt>
      <trkpt lat="47.18876" lon="-1.67375">
        <ele>46.197517</ele>
        <time>2019-12-08T07:32:42Z</time>
      </trkpt>
      <trkpt lat="47.18872" lon="-1.6736">
        <ele>45.698128</ele>
        <time>2019-12-08T07:32:52Z</time>
      </trkpt>
      <trkpt lat="47.18862" lon="-1.67357">
        <ele>45.196095</ele>
        <time>2019-12-08T07:32:59Z</time>
      </trkpt>
      <trkpt lat="47.18855" lon="-1.67349">
        <ele>46.020485</ele>
        <time>2019-12-08T07:33:05Z</time>
      </trkpt>
      <trkpt lat="47.1885" lon="-1.67336">
        <ele>45.507885</ele>
        <time>2019-12-08T07:33:13Z</time>
      </trkpt>
      <trkpt lat="47.18846" lon="-1.67323">
        <ele>45.484104</ele>
        <time>2019-12-08T07:33:21Z</time>
      </trkpt>
      <trkpt lat="47.18842" lon="-1.67309">
        <ele>45.91215</ele>
        <time>2019-12-08T07:33:29Z</time>
      </trkpt>
      <trkpt lat="47.18838" lon="-1.67296">
        <ele>45.22252</ele>
        <time>2019-12-08T07:33:36Z</time>
      </trkpt>
      <trkpt lat="47.18835" lon="-1.67284">
        <ele>44.807682</ele>
        <time>2019-12-08T07:33:42Z</time>
      </trkpt>
      <trkpt lat="47.18831" lon="-1.67271">
        <ele>44.38492</ele>
        <time>2019-12-08T07:33:54Z</time>
      </trkpt>
      <trkpt lat="47.18831" lon="-1.67266">
        <ele>44.184105</ele>
        <time>2019-12-08T07:34:03Z</time>
      </trkpt>
      <trkpt lat="47.18831" lon="-1.67266">
        <ele>44.184105</ele>
        <time>2019-12-08T07:34:03Z</time>
      </trkpt>
      <trkpt lat="47.18836" lon="-1.67253">
        <ele>40.93675</ele>
        <time>2019-12-08T07:34:31Z</time>
      </trkpt>
      <trkpt lat="47.18836" lon="-1.67239">
        <ele>40.421505</ele>
        <time>2019-12-08T07:34:41Z</time>
      </trkpt>
      <trkpt lat="47.18834" lon="-1.67225">
        <ele>41.023945</ele>
        <time>2019-12-08T07:34:50Z</time>
      </trkpt>
      <trkpt lat="47.18831" lon="-1.67211">
        <ele>41.290813</ele>
        <time>2019-12-08T07:34:56Z</time>
      </trkpt>
      <trkpt lat="47.18825" lon="-1.67198">
        <ele>41.58939</ele>
        <time>2019-12-08T07:35:05Z</time>
      </trkpt>
      <trkpt lat="47.1882" lon="-1.67187">
        <ele>40.445286</ele>
        <time>2019-12-08T07:35:13Z</time>
      </trkpt>
      <trkpt lat="47.18815" lon="-1.67175">
        <ele>39.631466</ele>
        <time>2019-12-08T07:35:22Z</time>
      </trkpt>
      <trkpt lat="47.18813" lon="-1.6716">
        <ele>40.558903</ele>
        <time>2019-12-08T07:35:31Z</time>
      </trkpt>
      <trkpt lat="47.18812" lon="-1.67146">
        <ele>40.918255</ele>
        <time>2019-12-08T07:35:38Z</time>
      </trkpt>
      <trkpt lat="47.18808" lon="-1.67134">
        <ele>41.02923</ele>
        <time>2019-12-08T07:35:47Z</time>
      </trkpt>
      <trkpt lat="47.18808" lon="-1.67118">
        <ele>40.899757</ele>
        <time>2019-12-08T07:35:58Z</time>
      </trkpt>
      <trkpt lat="47.18807" lon="-1.67104">
        <ele>40.60118</ele>
        <time>2019-12-08T07:36:05Z</time>
      </trkpt>
      <trkpt lat="47.18807" lon="-1.6709">
        <ele>39.655247</ele>
        <time>2019-12-08T07:36:13Z</time>
      </trkpt>
      <trkpt lat="47.18803" lon="-1.67078">
        <ele>39.50728</ele>
        <time>2019-12-08T07:36:21Z</time>
      </trkpt>
      <trkpt lat="47.18799" lon="-1.67066">
        <ele>40.231262</ele>
        <time>2019-12-08T07:36:33Z</time>
      </trkpt>
      <trkpt lat="47.18796" lon="-1.67052">
        <ele>40.22598</ele>
        <time>2019-12-08T07:36:41Z</time>
      </trkpt>
      <trkpt lat="47.18792" lon="-1.67038">
        <ele>40.038376</ele>
        <time>2019-12-08T07:36:49Z</time>
      </trkpt>
      <trkpt lat="47.18789" lon="-1.67025">
        <ele>40.34488</ele>
        <time>2019-12-08T07:36:54Z</time>
      </trkpt>
      <trkpt lat="47.18785" lon="-1.67012">
        <ele>40.218052</ele>
        <time>2019-12-08T07:37:00Z</time>
      </trkpt>
      <trkpt lat="47.18784" lon="-1.66996">
        <ele>39.792645</ele>
        <time>2019-12-08T07:37:09Z</time>
      </trkpt>
      <trkpt lat="47.18781" lon="-1.66984">
        <ele>39.454433</ele>
        <time>2019-12-08T07:37:16Z</time>
      </trkpt>
      <trkpt lat="47.18777" lon="-1.66971">
        <ele>38.7648</ele>
        <time>2019-12-08T07:37:24Z</time>
      </trkpt>
      <trkpt lat="47.18774" lon="-1.66955">
        <ele>38.064598</ele>
        <time>2019-12-08T07:37:34Z</time>
      </trkpt>
      <trkpt lat="47.18772" lon="-1.66941">
        <ele>37.35911</ele>
        <time>2019-12-08T07:37:42Z</time>
      </trkpt>
      <trkpt lat="47.18771" lon="-1.66926">
        <ele>36.14631</ele>
        <time>2019-12-08T07:37:49Z</time>
      </trkpt>
      <trkpt lat="47.18768" lon="-1.66912">
        <ele>35.247932</ele>
        <time>2019-12-08T07:37:54Z</time>
      </trkpt>
      <trkpt lat="47.18765" lon="-1.66898">
        <ele>34.584724</ele>
        <time>2019-12-08T07:37:59Z</time>
      </trkpt>
      <trkpt lat="47.18765" lon="-1.66885">
        <ele>33.741837</ele>
        <time>2019-12-08T07:38:04Z</time>
      </trkpt>
      <trkpt lat="47.18764" lon="-1.66871">
        <ele>32.89631</ele>
        <time>2019-12-08T07:38:10Z</time>
      </trkpt>
      <trkpt lat="47.18767" lon="-1.66857">
        <ele>30.594889</ele>
        <time>2019-12-08T07:38:20Z</time>
      </trkpt>
      <trkpt lat="47.18768" lon="-1.66843">
        <ele>29.918467</ele>
        <time>2019-12-08T07:38:26Z</time>
      </trkpt>
      <trkpt lat="47.18772" lon="-1.66828">
        <ele>29.1205</ele>
        <time>2019-12-08T07:38:31Z</time>
      </trkpt>
      <trkpt lat="47.18771" lon="-1.66813">
        <ele>28.454647</ele>
        <time>2019-12-08T07:38:36Z</time>
      </trkpt>
      <trkpt lat="47.18769" lon="-1.66798">
        <ele>28.56298</ele>
        <time>2019-12-08T07:38:41Z</time>
      </trkpt>
      <trkpt lat="47.18766" lon="-1.66785">
        <ele>27.960543</ele>
        <time>2019-12-08T07:38:46Z</time>
      </trkpt>
      <trkpt lat="47.18763" lon="-1.66772">
        <ele>27.49286</ele>
        <time>2019-12-08T07:38:54Z</time>
      </trkpt>
      <trkpt lat="47.18763" lon="-1.66771">
        <ele>27.310543</ele>
        <time>2019-12-08T07:38:56Z</time>
      </trkpt>
      <trkpt lat="47.18763" lon="-1.66771">
        <ele>27.310543</ele>
        <time>2019-12-08T07:38:56Z</time>
      </trkpt>
      <trkpt lat="47.18768" lon="-1.66759">
        <ele>26.454447</ele>
        <time>2019-12-08T07:39:36Z</time>
      </trkpt>
      <trkpt lat="47.18775" lon="-1.66752">
        <ele>25.453024</ele>
        <time>2019-12-08T07:39:42Z</time>
      </trkpt>
      <trkpt lat="47.18782" lon="-1.66743">
        <ele>24.684122</ele>
        <time>2019-12-08T07:39:49Z</time>
      </trkpt>
      <trkpt lat="47.1879" lon="-1.66736">
        <ele>23.777822</ele>
        <time>2019-12-08T07:39:55Z</time>
      </trkpt>
      <trkpt lat="47.18796" lon="-1.66724">
        <ele>22.596725</ele>
        <time>2019-12-08T07:40:01Z</time>
      </trkpt>
      <trkpt lat="47.18795" lon="-1.66709">
        <ele>21.60059</ele>
        <time>2019-12-08T07:40:07Z</time>
      </trkpt>
      <trkpt lat="47.18793" lon="-1.66695">
        <ele>21.06685</ele>
        <time>2019-12-08T07:40:13Z</time>
      </trkpt>
      <trkpt lat="47.18789" lon="-1.66682">
        <ele>20.419493</ele>
        <time>2019-12-08T07:40:20Z</time>
      </trkpt>
      <trkpt lat="47.18787" lon="-1.66669">
        <ele>20.757704</ele>
        <time>2019-12-08T07:40:26Z</time>
      </trkpt>
      <trkpt lat="47.18786" lon="-1.66655">
        <ele>20.609737</ele>
        <time>2019-12-08T07:40:32Z</time>
      </trkpt>
      <trkpt lat="47.18784" lon="-1.66642">
        <ele>20.496119</ele>
        <time>2019-12-08T07:40:38Z</time>
      </trkpt>
      <trkpt lat="47.18783" lon="-1.66629">
        <ele>20.06807</ele>
        <time>2019-12-08T07:40:44Z</time>
      </trkpt>
      <trkpt lat="47.18779" lon="-1.66615">
        <ele>19.692867</ele>
        <time>2019-12-08T07:40:52Z</time>
      </trkpt>
      <trkpt lat="47.18778" lon="-1.66602">
        <ele>20.089209</ele>
        <time>2019-12-08T07:40:58Z</time>
      </trkpt>
      <trkpt lat="47.18776" lon="-1.66587">
        <ele>20.107704</ele>
        <time>2019-12-08T07:41:04Z</time>
      </trkpt>
      <trkpt lat="47.18774" lon="-1.66574">
        <ele>20.30059</ele>
        <time>2019-12-08T07:41:09Z</time>
      </trkpt>
      <trkpt lat="47.18771" lon="-1.66559">
        <ele>20.258314</ele>
        <time>2019-12-08T07:41:15Z</time>
      </trkpt>
      <trkpt lat="47.18771" lon="-1.66544">
        <ele>20.374575</ele>
        <time>2019-12-08T07:41:22Z</time>
      </trkpt>
      <trkpt lat="47.18767" lon="-1.6653">
        <ele>20.474981</ele>
        <time>2019-12-08T07:41:29Z</time>
      </trkpt>
      <trkpt lat="47.18766" lon="-1.66514">
        <ele>21.072134</ele>
        <time>2019-12-08T07:41:36Z</time>
      </trkpt>
      <trkpt lat="47.18764" lon="-1.66501">
        <ele>20.979654</ele>
        <time>2019-12-08T07:41:42Z</time>
      </trkpt>
      <trkpt lat="47.18757" lon="-1.66492">
        <ele>21.111769</ele>
        <time>2019-12-08T07:41:48Z</time>
      </trkpt>
      <trkpt lat="47.18747" lon="-1.66496">
        <ele>22.002214</ele>
        <time>2019-12-08T07:41:54Z</time>
      </trkpt>
      <trkpt lat="47.18737" lon="-1.66498">
        <ele>22.277012</ele>
        <time>2019-12-08T07:42:01Z</time>
      </trkpt>
      <trkpt lat="47.18727" lon="-1.66502">
        <ele>23.328636</ele>
        <time>2019-12-08T07:42:08Z</time>
      </trkpt>
      <trkpt lat="47.18717" lon="-1.66505">
        <ele>24.084326</ele>
        <time>2019-12-08T07:42:14Z</time>
      </trkpt>
      <trkpt lat="47.18707" lon="-1.66504">
        <ele>24.908716</ele>
        <time>2019-12-08T07:42:20Z</time>
      </trkpt>
      <trkpt lat="47.18696" lon="-1.66505">
        <ele>25.98148</ele>
        <time>2019-12-08T07:42:27Z</time>
      </trkpt>
      <trkpt lat="47.18686" lon="-1.66505">
        <ele>27.43473</ele>
        <time>2019-12-08T07:42:34Z</time>
      </trkpt>
      <trkpt lat="47.18677" lon="-1.66506">
        <ele>28.296112</ele>
        <time>2019-12-08T07:42:40Z</time>
      </trkpt>
      <trkpt lat="47.18667" lon="-1.66504">
        <ele>30.166842</ele>
        <time>2019-12-08T07:42:48Z</time>
      </trkpt>
      <trkpt lat="47.18658" lon="-1.66499">
        <ele>31.445702</ele>
        <time>2019-12-08T07:42:55Z</time>
      </trkpt>
      <trkpt lat="47.18648" lon="-1.66496">
        <ele>32.531677</ele>
        <time>2019-12-08T07:43:03Z</time>
      </trkpt>
      <trkpt lat="47.18638" lon="-1.66493">
        <ele>33.958504</ele>
        <time>2019-12-08T07:43:10Z</time>
      </trkpt>
      <trkpt lat="47.18629" lon="-1.66488">
        <ele>35.11846</ele>
        <time>2019-12-08T07:43:17Z</time>
      </trkpt>
      <trkpt lat="47.1862" lon="-1.6648">
        <ele>36.621918</ele>
        <time>2019-12-08T07:43:23Z</time>
      </trkpt>
      <trkpt lat="47.18612" lon="-1.66474">
        <ele>37.921913</ele>
        <time>2019-12-08T07:43:30Z</time>
      </trkpt>
      <trkpt lat="47.18603" lon="-1.66469">
        <ele>39.103012</ele>
        <time>2019-12-08T07:43:37Z</time>
      </trkpt>
      <trkpt lat="47.18594" lon="-1.66468">
        <ele>40.395084</ele>
        <time>2019-12-08T07:43:46Z</time>
      </trkpt>
      <trkpt lat="47.18583" lon="-1.66467">
        <ele>42.220894</ele>
        <time>2019-12-08T07:43:55Z</time>
      </trkpt>
      <trkpt lat="47.18573" lon="-1.66465">
        <ele>43.2276</ele>
        <time>2019-12-08T07:44:02Z</time>
      </trkpt>
      <trkpt lat="47.18563" lon="-1.66462">
        <ele>44.4589</ele>
        <time>2019-12-08T07:44:09Z</time>
      </trkpt>
      <trkpt lat="47.18554" lon="-1.66459">
        <ele>45.626785</ele>
        <time>2019-12-08T07:44:16Z</time>
      </trkpt>
      <trkpt lat="47.18544" lon="-1.66459">
        <ele>46.728615</ele>
        <time>2019-12-08T07:44:23Z</time>
      </trkpt>
      <trkpt lat="47.18535" lon="-1.66459">
        <ele>47.809303</ele>
        <time>2019-12-08T07:44:29Z</time>
      </trkpt>
      <trkpt lat="47.18524" lon="-1.66457">
        <ele>49.027393</ele>
        <time>2019-12-08T07:44:36Z</time>
      </trkpt>
      <trkpt lat="47.18515" lon="-1.66455">
        <ele>50.20056</ele>
        <time>2019-12-08T07:44:44Z</time>
      </trkpt>
      <trkpt lat="47.18506" lon="-1.66449">
        <ele>51.653812</ele>
        <time>2019-12-08T07:44:52Z</time>
      </trkpt>
      <trkpt lat="47.18498" lon="-1.6644">
        <ele>52.62881</ele>
        <time>2019-12-08T07:44:57Z</time>
      </trkpt>
      <trkpt lat="47.18494" lon="-1.66425">
        <ele>52.412144</ele>
        <time>2019-12-08T07:45:05Z</time>
      </trkpt>
      <trkpt lat="47.18492" lon="-1.66411">
        <ele>52.97495</ele>
        <time>2019-12-08T07:45:12Z</time>
      </trkpt>
      <trkpt lat="47.1849" lon="-1.66397">
        <ele>52.35666</ele>
        <time>2019-12-08T07:45:18Z</time>
      </trkpt>
      <trkpt lat="47.18488" lon="-1.66384">
        <ele>51.85727</ele>
        <time>2019-12-08T07:45:24Z</time>
      </trkpt>
      <trkpt lat="47.18485" lon="-1.66371">
        <ele>51.614178</ele>
        <time>2019-12-08T07:45:31Z</time>
      </trkpt>
      <trkpt lat="47.18483" lon="-1.66358">
        <ele>51.262756</ele>
        <time>2019-12-08T07:45:37Z</time>
      </trkpt>
      <trkpt lat="47.18481" lon="-1.66343">
        <ele>50.37495</ele>
        <time>2019-12-08T07:45:45Z</time>
      </trkpt>
      <trkpt lat="47.1848" lon="-1.66329">
        <ele>49.529423</ele>
        <time>2019-12-08T07:45:51Z</time>
      </trkpt>
      <trkpt lat="47.18478" lon="-1.66315">
        <ele>49.635117</ele>
        <time>2019-12-08T07:45:56Z</time>
      </trkpt>
      <trkpt lat="47.18477" lon="-1.66301">
        <ele>49.111946</ele>
        <time>2019-12-08T07:46:03Z</time>
      </trkpt>
      <trkpt lat="47.18474" lon="-1.66287">
        <ele>49.25727</ele>
        <time>2019-12-08T07:46:09Z</time>
      </trkpt>
      <trkpt lat="47.18469" lon="-1.66274">
        <ele>48.546497</ele>
        <time>2019-12-08T07:46:15Z</time>
      </trkpt>
      <trkpt lat="47.18462" lon="-1.66265">
        <ele>48.242638</ele>
        <time>2019-12-08T07:46:21Z</time>
      </trkpt>
      <trkpt lat="47.18454" lon="-1.66258">
        <ele>47.86215</ele>
        <time>2019-12-08T07:46:27Z</time>
      </trkpt>
      <trkpt lat="47.18446" lon="-1.66251">
        <ele>47.90971</ele>
        <time>2019-12-08T07:46:33Z</time>
      </trkpt>
      <trkpt lat="47.18437" lon="-1.66243">
        <ele>47.870075</ele>
        <time>2019-12-08T07:46:39Z</time>
      </trkpt>
      <trkpt lat="47.1843" lon="-1.66233">
        <ele>47.460526</ele>
        <time>2019-12-08T07:46:45Z</time>
      </trkpt>
      <trkpt lat="47.18422" lon="-1.66225">
        <ele>47.20158</ele>
        <time>2019-12-08T07:46:52Z</time>
      </trkpt>
      <trkpt lat="47.18415" lon="-1.66215">
        <ele>47.21215</ele>
        <time>2019-12-08T07:46:58Z</time>
      </trkpt>
      <trkpt lat="47.18413" lon="-1.662">
        <ele>46.157883</ele>
        <time>2019-12-08T07:47:05Z</time>
      </trkpt>
      <trkpt lat="47.18418" lon="-1.66188">
        <ele>45.552803</ele>
        <time>2019-12-08T07:47:11Z</time>
      </trkpt>
      <trkpt lat="47.18423" lon="-1.66176">
        <ele>45.2463</ele>
        <time>2019-12-08T07:47:18Z</time>
      </trkpt>
      <trkpt lat="47.18429" lon="-1.66164">
        <ele>44.74955</ele>
        <time>2019-12-08T07:47:25Z</time>
      </trkpt>
      <trkpt lat="47.18436" lon="-1.66155">
        <ele>44.091625</ele>
        <time>2019-12-08T07:47:32Z</time>
      </trkpt>
      <trkpt lat="47.18441" lon="-1.66144">
        <ele>42.37679</ele>
        <time>2019-12-08T07:47:41Z</time>
      </trkpt>
      <trkpt lat="47.18449" lon="-1.66137">
        <ele>40.949963</ele>
        <time>2019-12-08T07:47:49Z</time>
      </trkpt>
      <trkpt lat="47.18458" lon="-1.66129">
        <ele>40.455856</ele>
        <time>2019-12-08T07:47:57Z</time>
      </trkpt>
      <trkpt lat="47.18465" lon="-1.66119">
        <ele>39.639393</ele>
        <time>2019-12-08T07:48:04Z</time>
      </trkpt>
      <trkpt lat="47.18473" lon="-1.66111">
        <ele>38.28655</ele>
        <time>2019-12-08T07:48:11Z</time>
      </trkpt>
      <trkpt lat="47.1848" lon="-1.66102">
        <ele>36.397324</ele>
        <time>2019-12-08T07:48:22Z</time>
      </trkpt>
      <trkpt lat="47.1849" lon="-1.66097">
        <ele>35.21094</ele>
        <time>2019-12-08T07:48:32Z</time>
      </trkpt>
      <trkpt lat="47.18497" lon="-1.66086">
        <ele>34.338993</ele>
        <time>2019-12-08T07:48:40Z</time>
      </trkpt>
      <trkpt lat="47.18505" lon="-1.66079">
        <ele>33.82639</ele>
        <time>2019-12-08T07:48:48Z</time>
      </trkpt>
      <trkpt lat="47.18512" lon="-1.66069">
        <ele>34.320496</ele>
        <time>2019-12-08T07:48:57Z</time>
      </trkpt>
      <trkpt lat="47.18515" lon="-1.66055">
        <ele>35.68391</ele>
        <time>2019-12-08T07:49:05Z</time>
      </trkpt>
      <trkpt lat="47.1851" lon="-1.66042">
        <ele>36.674763</ele>
        <time>2019-12-08T07:49:15Z</time>
      </trkpt>
      <trkpt lat="47.18504" lon="-1.6603">
        <ele>37.26927</ele>
        <time>2019-12-08T07:49:26Z</time>
      </trkpt>
      <trkpt lat="47.18496" lon="-1.66022">
        <ele>38.627403</ele>
        <time>2019-12-08T07:49:34Z</time>
      </trkpt>
      <trkpt lat="47.1849" lon="-1.66012">
        <ele>39.10037</ele>
        <time>2019-12-08T07:49:42Z</time>
      </trkpt>
      <trkpt lat="47.18481" lon="-1.66003">
        <ele>39.43858</ele>
        <time>2019-12-08T07:49:51Z</time>
      </trkpt>
      <trkpt lat="47.18477" lon="-1.65991">
        <ele>40.048946</ele>
        <time>2019-12-08T07:50:00Z</time>
      </trkpt>
      <trkpt lat="47.18472" lon="-1.65978">
        <ele>40.791424</ele>
        <time>2019-12-08T07:50:07Z</time>
      </trkpt>
      <trkpt lat="47.18464" lon="-1.65968">
        <ele>41.27496</ele>
        <time>2019-12-08T07:50:14Z</time>
      </trkpt>
      <trkpt lat="47.18457" lon="-1.65959">
        <ele>41.869473</ele>
        <time>2019-12-08T07:50:24Z</time>
      </trkpt>
      <trkpt lat="47.18449" lon="-1.65953">
        <ele>43.026787</ele>
        <time>2019-12-08T07:50:31Z</time>
      </trkpt>
      <trkpt lat="47.18449" lon="-1.6594">
        <ele>43.243454</ele>
        <time>2019-12-08T07:50:38Z</time>
      </trkpt>
      <trkpt lat="47.18454" lon="-1.65928">
        <ele>44.07577</ele>
        <time>2019-12-08T07:50:50Z</time>
      </trkpt>
      <trkpt lat="47.1846" lon="-1.65917">
        <ele>44.62008</ele>
        <time>2019-12-08T07:50:57Z</time>
      </trkpt>
      <trkpt lat="47.18468" lon="-1.65907">
        <ele>45.312355</ele>
        <time>2019-12-08T07:51:03Z</time>
      </trkpt>
      <trkpt lat="47.18475" lon="-1.65899">
        <ele>46.112965</ele>
        <time>2019-12-08T07:51:08Z</time>
      </trkpt>
      <trkpt lat="47.18483" lon="-1.6589">
        <ele>47.241215</ele>
        <time>2019-12-08T07:51:15Z</time>
      </trkpt>
      <trkpt lat="47.18491" lon="-1.65882">
        <ele>48.541214</ele>
        <time>2019-12-08T07:51:23Z</time>
      </trkpt>
      <trkpt lat="47.18497" lon="-1.65872">
        <ele>49.212353</ele>
        <time>2019-12-08T07:51:30Z</time>
      </trkpt>
      <trkpt lat="47.18502" lon="-1.65861">
        <ele>49.846497</ele>
        <time>2019-12-08T07:51:37Z</time>
      </trkpt>
      <trkpt lat="47.18509" lon="-1.65851">
        <ele>50.155643</ele>
        <time>2019-12-08T07:51:45Z</time>
      </trkpt>
      <trkpt lat="47.18513" lon="-1.65837">
        <ele>51.3156</ele>
        <time>2019-12-08T07:51:52Z</time>
      </trkpt>
      <trkpt lat="47.18507" lon="-1.65825">
        <ele>52.039585</ele>
        <time>2019-12-08T07:51:59Z</time>
      </trkpt>
      <trkpt lat="47.18499" lon="-1.65817">
        <ele>52.071293</ele>
        <time>2019-12-08T07:52:05Z</time>
      </trkpt>
      <trkpt lat="47.18492" lon="-1.65809">
        <ele>52.01316</ele>
        <time>2019-12-08T07:52:12Z</time>
      </trkpt>
      <trkpt lat="47.18483" lon="-1.658">
        <ele>51.99995</ele>
        <time>2019-12-08T07:52:20Z</time>
      </trkpt>
      <trkpt lat="47.18476" lon="-1.6579">
        <ele>52.213974</ele>
        <time>2019-12-08T07:52:26Z</time>
      </trkpt>
      <trkpt lat="47.18469" lon="-1.65781">
        <ele>51.706657</ele>
        <time>2019-12-08T07:52:32Z</time>
      </trkpt>
      <trkpt lat="47.18462" lon="-1.65772">
        <ele>52.18491</ele>
        <time>2019-12-08T07:52:39Z</time>
      </trkpt>
      <trkpt lat="47.18456" lon="-1.6576">
        <ele>52.343445</ele>
        <time>2019-12-08T07:52:45Z</time>
      </trkpt>
      <trkpt lat="47.18449" lon="-1.6575">
        <ele>52.295883</ele>
        <time>2019-12-08T07:52:51Z</time>
      </trkpt>
      <trkpt lat="47.18444" lon="-1.65739">
        <ele>52.08186</ele>
        <time>2019-12-08T07:52:58Z</time>
      </trkpt>
      <trkpt lat="47.18435" lon="-1.65732">
        <ele>52.322308</ele>
        <time>2019-12-08T07:53:04Z</time>
      </trkpt>
      <trkpt lat="47.18428" lon="-1.65723">
        <ele>52.552185</ele>
        <time>2019-12-08T07:53:10Z</time>
      </trkpt>
      <trkpt lat="47.18419" lon="-1.65716">
        <ele>51.71194</ele>
        <time>2019-12-08T07:53:17Z</time>
      </trkpt>
      <trkpt lat="47.18411" lon="-1.65708">
        <ele>52.32495</ele>
        <time>2019-12-08T07:53:24Z</time>
      </trkpt>
      <trkpt lat="47.18404" lon="-1.65698">
        <ele>52.229828</ele>
        <time>2019-12-08T07:53:35Z</time>
      </trkpt>
      <trkpt lat="47.18397" lon="-1.65689">
        <ele>52.02373</ele>
        <time>2019-12-08T07:53:41Z</time>
      </trkpt>
      <trkpt lat="47.18401" lon="-1.65676">
        <ele>52.425358</ele>
        <time>2019-12-08T07:53:48Z</time>
      </trkpt>
      <trkpt lat="47.18407" lon="-1.65666">
        <ele>53.202187</ele>
        <time>2019-12-08T07:53:55Z</time>
      </trkpt>
      <trkpt lat="47.18415" lon="-1.65657">
        <ele>53.239178</ele>
        <time>2019-12-08T07:54:02Z</time>
      </trkpt>
      <trkpt lat="47.18422" lon="-1.65649">
        <ele>53.83633</ele>
        <time>2019-12-08T07:54:08Z</time>
      </trkpt>
      <trkpt lat="47.18428" lon="-1.65637">
        <ele>53.66194</ele>
        <time>2019-12-08T07:54:15Z</time>
      </trkpt>
      <trkpt lat="47.18435" lon="-1.65626">
        <ele>54.060925</ele>
        <time>2019-12-08T07:54:21Z</time>
      </trkpt>
      <trkpt lat="47.18442" lon="-1.65615">
        <ele>54.330437</ele>
        <time>2019-12-08T07:54:28Z</time>
      </trkpt>
      <trkpt lat="47.18447" lon="-1.65604">
        <ele>54.227386</ele>
        <time>2019-12-08T07:54:34Z</time>
      </trkpt>
      <trkpt lat="47.18455" lon="-1.65594">
        <ele>54.28023</ele>
        <time>2019-12-08T07:54:41Z</time>
      </trkpt>
      <trkpt lat="47.18462" lon="-1.65591">
        <ele>53.5906</ele>
        <time>2019-12-08T07:54:57Z</time>
      </trkpt>
      <trkpt lat="47.18462" lon="-1.65591">
        <ele>53.5906</ele>
        <time>2019-12-08T07:54:57Z</time>
      </trkpt>
      <trkpt lat="47.18471" lon="-1.65588">
        <ele>54.362144</ele>
        <time>2019-12-08T07:55:07Z</time>
      </trkpt>
      <trkpt lat="47.18472" lon="-1.65587">
        <ele>54.25645</ele>
        <time>2019-12-08T07:55:12Z</time>
      </trkpt>
      <trkpt lat="47.18472" lon="-1.65587">
        <ele>54.25645</ele>
        <time>2019-12-08T07:55:12Z</time>
      </trkpt>
      <trkpt lat="47.18464" lon="-1.65587">
        <ele>54.134907</ele>
        <time>2019-12-08T07:55:24Z</time>
      </trkpt>
      <trkpt lat="47.18464" lon="-1.65587">
        <ele>54.134907</ele>
        <time>2019-12-08T07:55:24Z</time>
      </trkpt>
      <trkpt lat="47.18456" lon="-1.6558">
        <ele>52.018448</ele>
        <time>2019-12-08T07:55:54Z</time>
      </trkpt>
      <trkpt lat="47.1845" lon="-1.65569">
        <ele>51.13857</ele>
        <time>2019-12-08T07:56:01Z</time>
      </trkpt>
      <trkpt lat="47.18445" lon="-1.65556">
        <ele>50.73166</ele>
        <time>2019-12-08T07:56:09Z</time>
      </trkpt>
      <trkpt lat="47.18437" lon="-1.65547">
        <ele>49.505646</ele>
        <time>2019-12-08T07:56:17Z</time>
      </trkpt>
      <trkpt lat="47.18428" lon="-1.65542">
        <ele>50.475357</ele>
        <time>2019-12-08T07:56:24Z</time>
      </trkpt>
      <trkpt lat="47.18419" lon="-1.65538">
        <ele>51.085724</ele>
        <time>2019-12-08T07:56:31Z</time>
      </trkpt>
      <trkpt lat="47.18409" lon="-1.65534">
        <ele>51.56926</ele>
        <time>2019-12-08T07:56:38Z</time>
      </trkpt>
      <trkpt lat="47.184" lon="-1.65531">
        <ele>51.416008</ele>
        <time>2019-12-08T07:56:44Z</time>
      </trkpt>
      <trkpt lat="47.1839" lon="-1.65528">
        <ele>51.55869</ele>
        <time>2019-12-08T07:56:52Z</time>
      </trkpt>
      <trkpt lat="47.18381" lon="-1.65524">
        <ele>52.35137</ele>
        <time>2019-12-08T07:56:58Z</time>
      </trkpt>
      <trkpt lat="47.18372" lon="-1.6552">
        <ele>53.387146</ele>
        <time>2019-12-08T07:57:06Z</time>
      </trkpt>
      <trkpt lat="47.18363" lon="-1.65513">
        <ele>53.458485</ele>
        <time>2019-12-08T07:57:15Z</time>
      </trkpt>
      <trkpt lat="47.18356" lon="-1.65505">
        <ele>53.281452</ele>
        <time>2019-12-08T07:57:24Z</time>
      </trkpt>
      <trkpt lat="47.18348" lon="-1.65494">
        <ele>53.28938</ele>
        <time>2019-12-08T07:57:31Z</time>
      </trkpt>
      <trkpt lat="47.18341" lon="-1.65485">
        <ele>53.062145</ele>
        <time>2019-12-08T07:57:37Z</time>
      </trkpt>
      <trkpt lat="47.18333" lon="-1.65475">
        <ele>50.797714</ele>
        <time>2019-12-08T07:57:46Z</time>
      </trkpt>
      <trkpt lat="47.18326" lon="-1.65466">
        <ele>50.142433</ele>
        <time>2019-12-08T07:57:51Z</time>
      </trkpt>
      <trkpt lat="47.18319" lon="-1.65456">
        <ele>50.182068</ele>
        <time>2019-12-08T07:57:58Z</time>
      </trkpt>
      <trkpt lat="47.18311" lon="-1.65446">
        <ele>51.178204</ele>
        <time>2019-12-08T07:58:04Z</time>
      </trkpt>
      <trkpt lat="47.18303" lon="-1.65441">
        <ele>51.180847</ele>
        <time>2019-12-08T07:58:11Z</time>
      </trkpt>
      <trkpt lat="47.18294" lon="-1.65447">
        <ele>50.729015</ele>
        <time>2019-12-08T07:58:19Z</time>
      </trkpt>
      <trkpt lat="47.18285" lon="-1.65453">
        <ele>50.612755</ele>
        <time>2019-12-08T07:58:26Z</time>
      </trkpt>
      <trkpt lat="47.18277" lon="-1.65461">
        <ele>49.946903</ele>
        <time>2019-12-08T07:58:32Z</time>
      </trkpt>
      <trkpt lat="47.18268" lon="-1.65471">
        <ele>49.49772</ele>
        <time>2019-12-08T07:58:42Z</time>
      </trkpt>
      <trkpt lat="47.1826" lon="-1.65479">
        <ele>49.133083</ele>
        <time>2019-12-08T07:58:49Z</time>
      </trkpt>
      <trkpt lat="47.18251" lon="-1.65475">
        <ele>48.834507</ele>
        <time>2019-12-08T07:58:57Z</time>
      </trkpt>
      <trkpt lat="47.18245" lon="-1.65464">
        <ele>48.810726</ele>
        <time>2019-12-08T07:59:04Z</time>
      </trkpt>
      <trkpt lat="47.18239" lon="-1.65453">
        <ele>48.609913</ele>
        <time>2019-12-08T07:59:12Z</time>
      </trkpt>
      <trkpt lat="47.18233" lon="-1.65441">
        <ele>48.638977</ele>
        <time>2019-12-08T07:59:19Z</time>
      </trkpt>
      <trkpt lat="47.18227" lon="-1.65429">
        <ele>48.092026</ele>
        <time>2019-12-08T07:59:26Z</time>
      </trkpt>
      <trkpt lat="47.18221" lon="-1.65416">
        <ele>48.14223</ele>
        <time>2019-12-08T07:59:34Z</time>
      </trkpt>
      <trkpt lat="47.18217" lon="-1.65403">
        <ele>48.010117</ele>
        <time>2019-12-08T07:59:41Z</time>
      </trkpt>
      <trkpt lat="47.18214" lon="-1.65389">
        <ele>48.58085</ele>
        <time>2019-12-08T07:59:48Z</time>
      </trkpt>
      <trkpt lat="47.18211" lon="-1.65376">
        <ele>48.22414</ele>
        <time>2019-12-08T07:59:56Z</time>
      </trkpt>
      <trkpt lat="47.18209" lon="-1.65363">
        <ele>48.123734</ele>
        <time>2019-12-08T08:00:02Z</time>
      </trkpt>
      <trkpt lat="47.18207" lon="-1.6535">
        <ele>47.8965</ele>
        <time>2019-12-08T08:00:08Z</time>
      </trkpt>
      <trkpt lat="47.18205" lon="-1.65336">
        <ele>47.888573</ele>
        <time>2019-12-08T08:00:14Z</time>
      </trkpt>
      <trkpt lat="47.18201" lon="-1.65323">
        <ele>47.494873</ele>
        <time>2019-12-08T08:00:21Z</time>
      </trkpt>
      <trkpt lat="47.18197" lon="-1.6531">
        <ele>47.23857</ele>
        <time>2019-12-08T08:00:29Z</time>
      </trkpt>
      <trkpt lat="47.1819" lon="-1.65301">
        <ele>46.289997</ele>
        <time>2019-12-08T08:00:36Z</time>
      </trkpt>
      <trkpt lat="47.18183" lon="-1.65289">
        <ele>44.754837</ele>
        <time>2019-12-08T08:00:45Z</time>
      </trkpt>
      <trkpt lat="47.18179" lon="-1.65277">
        <ele>43.277805</ele>
        <time>2019-12-08T08:00:52Z</time>
      </trkpt>
      <trkpt lat="47.18176" lon="-1.65263">
        <ele>41.277603</ele>
        <time>2019-12-08T08:01:00Z</time>
      </trkpt>
      <trkpt lat="47.1817" lon="-1.65251">
        <ele>39.639393</ele>
        <time>2019-12-08T08:01:08Z</time>
      </trkpt>
      <trkpt lat="47.18166" lon="-1.65238">
        <ele>38.571915</ele>
        <time>2019-12-08T08:01:14Z</time>
      </trkpt>
      <trkpt lat="47.18166" lon="-1.65223">
        <ele>38.233704</ele>
        <time>2019-12-08T08:01:21Z</time>
      </trkpt>
      <trkpt lat="47.18166" lon="-1.65208">
        <ele>37.4833</ele>
        <time>2019-12-08T08:01:27Z</time>
      </trkpt>
      <trkpt lat="47.18166" lon="-1.65193">
        <ele>36.606064</ele>
        <time>2019-12-08T08:01:33Z</time>
      </trkpt>
      <trkpt lat="47.18168" lon="-1.65177">
        <ele>35.4144</ele>
        <time>2019-12-08T08:01:40Z</time>
      </trkpt>
      <trkpt lat="47.18169" lon="-1.65164">
        <ele>34.944073</ele>
        <time>2019-12-08T08:01:46Z</time>
      </trkpt>
      <trkpt lat="47.18172" lon="-1.65149">
        <ele>33.858097</ele>
        <time>2019-12-08T08:01:52Z</time>
      </trkpt>
      <trkpt lat="47.18174" lon="-1.65135">
        <ele>32.941227</ele>
        <time>2019-12-08T08:01:58Z</time>
      </trkpt>
      <trkpt lat="47.18178" lon="-1.65122">
        <ele>31.968872</ele>
        <time>2019-12-08T08:02:04Z</time>
      </trkpt>
      <trkpt lat="47.18184" lon="-1.65109">
        <ele>31.229034</ele>
        <time>2019-12-08T08:02:11Z</time>
      </trkpt>
      <trkpt lat="47.18192" lon="-1.651">
        <ele>30.528833</ele>
        <time>2019-12-08T08:02:17Z</time>
      </trkpt>
      <trkpt lat="47.18201" lon="-1.65091">
        <ele>29.627817</ele>
        <time>2019-12-08T08:02:24Z</time>
      </trkpt>
      <trkpt lat="47.1821" lon="-1.65083">
        <ele>28.795502</ele>
        <time>2019-12-08T08:02:32Z</time>
      </trkpt>
      <trkpt lat="47.1822" lon="-1.65078">
        <ele>27.450584</ele>
        <time>2019-12-08T08:02:39Z</time>
      </trkpt>
      <trkpt lat="47.1823" lon="-1.65072">
        <ele>26.951195</ele>
        <time>2019-12-08T08:02:46Z</time>
      </trkpt>
      <trkpt lat="47.18239" lon="-1.65069">
        <ele>26.539</ele>
        <time>2019-12-08T08:02:51Z</time>
      </trkpt>
      <trkpt lat="47.1825" lon="-1.65065">
        <ele>25.85465</ele>
        <time>2019-12-08T08:02:57Z</time>
      </trkpt>
      <trkpt lat="47.1826" lon="-1.65061">
        <ele>24.61014</ele>
        <time>2019-12-08T08:03:04Z</time>
      </trkpt>
      <trkpt lat="47.18269" lon="-1.65057">
        <ele>24.221725</ele>
        <time>2019-12-08T08:03:10Z</time>
      </trkpt>
      <trkpt lat="47.18278" lon="-1.65052">
        <ele>23.87823</ele>
        <time>2019-12-08T08:03:17Z</time>
      </trkpt>
      <trkpt lat="47.18288" lon="-1.6505">
        <ele>23.07762</ele>
        <time>2019-12-08T08:03:23Z</time>
      </trkpt>
      <trkpt lat="47.18298" lon="-1.65049">
        <ele>22.56502</ele>
        <time>2019-12-08T08:03:29Z</time>
      </trkpt>
      <trkpt lat="47.18308" lon="-1.65052">
        <ele>22.43819</ele>
        <time>2019-12-08T08:03:35Z</time>
      </trkpt>
      <trkpt lat="47.18317" lon="-1.65053">
        <ele>22.398556</ele>
        <time>2019-12-08T08:03:41Z</time>
      </trkpt>
      <trkpt lat="47.18327" lon="-1.65056">
        <ele>22.081484</ele>
        <time>2019-12-08T08:03:49Z</time>
      </trkpt>
      <trkpt lat="47.18336" lon="-1.65059">
        <ele>21.431484</ele>
        <time>2019-12-08T08:03:56Z</time>
      </trkpt>
      <trkpt lat="47.18346" lon="-1.6506">
        <ele>21.492256</ele>
        <time>2019-12-08T08:04:02Z</time>
      </trkpt>
      <trkpt lat="47.18354" lon="-1.65054">
        <ele>21.235956</ele>
        <time>2019-12-08T08:04:08Z</time>
      </trkpt>
      <trkpt lat="47.18361" lon="-1.65042">
        <ele>21.087988</ele>
        <time>2019-12-08T08:04:14Z</time>
      </trkpt>
      <trkpt lat="47.18366" lon="-1.65029">
        <ele>21.402418</ele>
        <time>2019-12-08T08:04:21Z</time>
      </trkpt>
      <trkpt lat="47.18371" lon="-1.65017">
        <ele>21.597946</ele>
        <time>2019-12-08T08:04:28Z</time>
      </trkpt>
      <trkpt lat="47.18377" lon="-1.65008">
        <ele>21.212175</ele>
        <time>2019-12-08T08:04:34Z</time>
      </trkpt>
      <trkpt lat="47.18382" lon="-1.64996">
        <ele>20.852825</ele>
        <time>2019-12-08T08:04:41Z</time>
      </trkpt>
      <trkpt lat="47.18387" lon="-1.64983">
        <ele>20.453842</ele>
        <time>2019-12-08T08:04:48Z</time>
      </trkpt>
      <trkpt lat="47.18393" lon="-1.64972">
        <ele>20.40628</ele>
        <time>2019-12-08T08:04:54Z</time>
      </trkpt>
      <trkpt lat="47.18398" lon="-1.64959">
        <ele>20.340225</ele>
        <time>2019-12-08T08:05:01Z</time>
      </trkpt>
      <trkpt lat="47.18402" lon="-1.64947">
        <ele>20.699574</ele>
        <time>2019-12-08T08:05:07Z</time>
      </trkpt>
      <trkpt lat="47.18406" lon="-1.64935">
        <ele>20.48555</ele>
        <time>2019-12-08T08:05:13Z</time>
      </trkpt>
      <trkpt lat="47.18407" lon="-1.64921">
        <ele>20.710142</ele>
        <time>2019-12-08T08:05:21Z</time>
      </trkpt>
      <trkpt lat="47.18409" lon="-1.64906">
        <ele>20.995508</ele>
        <time>2019-12-08T08:05:27Z</time>
      </trkpt>
      <trkpt lat="47.18414" lon="-1.64894">
        <ele>21.085346</ele>
        <time>2019-12-08T08:05:34Z</time>
      </trkpt>
      <trkpt lat="47.18418" lon="-1.6488">
        <ele>20.667866</ele>
        <time>2019-12-08T08:05:41Z</time>
      </trkpt>
      <trkpt lat="47.18421" lon="-1.64867">
        <ele>20.662582</ele>
        <time>2019-12-08T08:05:47Z</time>
      </trkpt>
      <trkpt lat="47.18424" lon="-1.64852">
        <ele>20.377216</ele>
        <time>2019-12-08T08:05:53Z</time>
      </trkpt>
      <trkpt lat="47.18425" lon="-1.64838">
        <ele>19.59246</ele>
        <time>2019-12-08T08:06:00Z</time>
      </trkpt>
      <trkpt lat="47.18422" lon="-1.64824">
        <ele>20.147339</ele>
        <time>2019-12-08T08:06:08Z</time>
      </trkpt>
      <trkpt lat="47.18416" lon="-1.64812">
        <ele>20.297949</ele>
        <time>2019-12-08T08:06:15Z</time>
      </trkpt>
      <trkpt lat="47.1841" lon="-1.64799">
        <ele>20.128843</ele>
        <time>2019-12-08T08:06:22Z</time>
      </trkpt>
      <trkpt lat="47.18407" lon="-1.64785">
        <ele>19.877827</ele>
        <time>2019-12-08T08:06:30Z</time>
      </trkpt>
      <trkpt lat="47.184" lon="-1.64774">
        <ele>20.200184</ele>
        <time>2019-12-08T08:06:37Z</time>
      </trkpt>
      <trkpt lat="47.18393" lon="-1.64764">
        <ele>20.223965</ele>
        <time>2019-12-08T08:06:44Z</time>
      </trkpt>
      <trkpt lat="47.18386" lon="-1.64756">
        <ele>20.157907</ele>
        <time>2019-12-08T08:06:49Z</time>
      </trkpt>
      <trkpt lat="47.18379" lon="-1.64746">
        <ele>20.467054</ele>
        <time>2019-12-08T08:06:55Z</time>
      </trkpt>
      <trkpt lat="47.18376" lon="-1.64729">
        <ele>20.266241</ele>
        <time>2019-12-08T08:07:04Z</time>
      </trkpt>
      <trkpt lat="47.18372" lon="-1.64717">
        <ele>20.445915</ele>
        <time>2019-12-08T08:07:09Z</time>
      </trkpt>
      <trkpt lat="47.18365" lon="-1.64707">
        <ele>20.284737</ele>
        <time>2019-12-08T08:07:15Z</time>
      </trkpt>
      <trkpt lat="47.18357" lon="-1.64699">
        <ele>20.194899</ele>
        <time>2019-12-08T08:07:21Z</time>
      </trkpt>
      <trkpt lat="47.18348" lon="-1.64693">
        <ele>20.142054</ele>
        <time>2019-12-08T08:07:27Z</time>
      </trkpt>
      <trkpt lat="47.18339" lon="-1.64688">
        <ele>21.087988</ele>
        <time>2019-12-08T08:07:37Z</time>
      </trkpt>
      <trkpt lat="47.1833" lon="-1.64686">
        <ele>22.15811</ele>
        <time>2019-12-08T08:07:45Z</time>
      </trkpt>
      <trkpt lat="47.18322" lon="-1.64679">
        <ele>23.801603</ele>
        <time>2019-12-08T08:07:59Z</time>
      </trkpt>
      <trkpt lat="47.18318" lon="-1.64692">
        <ele>25.468878</ele>
        <time>2019-12-08T08:08:13Z</time>
      </trkpt>
      <trkpt lat="47.18309" lon="-1.64685">
        <ele>28.46786</ele>
        <time>2019-12-08T08:08:34Z</time>
      </trkpt>
      <trkpt lat="47.183" lon="-1.6469">
        <ele>34.69834</ele>
        <time>2019-12-08T08:09:03Z</time>
      </trkpt>
      <trkpt lat="47.1829" lon="-1.64685">
        <ele>38.085735</ele>
        <time>2019-12-08T08:09:20Z</time>
      </trkpt>
      <trkpt lat="47.18281" lon="-1.64686">
        <ele>42.220894</ele>
        <time>2019-12-08T08:09:35Z</time>
      </trkpt>
      <trkpt lat="47.18273" lon="-1.64677">
        <ele>44.89752</ele>
        <time>2019-12-08T08:09:49Z</time>
      </trkpt>
      <trkpt lat="47.18268" lon="-1.64666">
        <ele>46.089184</ele>
        <time>2019-12-08T08:09:59Z</time>
      </trkpt>
      <trkpt lat="47.18264" lon="-1.64652">
        <ele>45.86195</ele>
        <time>2019-12-08T08:10:06Z</time>
      </trkpt>
      <trkpt lat="47.18263" lon="-1.64638">
        <ele>46.192234</ele>
        <time>2019-12-08T08:10:13Z</time>
      </trkpt>
      <trkpt lat="47.18264" lon="-1.64625">
        <ele>46.163166</ele>
        <time>2019-12-08T08:10:19Z</time>
      </trkpt>
      <trkpt lat="47.18262" lon="-1.64611">
        <ele>46.171093</ele>
        <time>2019-12-08T08:10:27Z</time>
      </trkpt>
      <trkpt lat="47.18258" lon="-1.64598">
        <ele>46.37455</ele>
        <time>2019-12-08T08:10:38Z</time>
      </trkpt>
      <trkpt lat="47.18256" lon="-1.64585">
        <ele>46.720688</ele>
        <time>2019-12-08T08:10:49Z</time>
      </trkpt>
      <trkpt lat="47.18255" lon="-1.64572">
        <ele>46.73918</ele>
        <time>2019-12-08T08:10:58Z</time>
      </trkpt>
      <trkpt lat="47.18255" lon="-1.64558">
        <ele>46.498737</ele>
        <time>2019-12-08T08:11:09Z</time>
      </trkpt>
      <trkpt lat="47.18256" lon="-1.64545">
        <ele>46.297924</ele>
        <time>2019-12-08T08:11:20Z</time>
      </trkpt>
      <trkpt lat="47.18254" lon="-1.64531">
        <ele>46.55951</ele>
        <time>2019-12-08T08:11:28Z</time>
      </trkpt>
      <trkpt lat="47.18246" lon="-1.64521">
        <ele>46.353413</ele>
        <time>2019-12-08T08:11:36Z</time>
      </trkpt>
      <trkpt lat="47.1824" lon="-1.64509">
        <ele>47.510727</ele>
        <time>2019-12-08T08:11:44Z</time>
      </trkpt>
      <trkpt lat="47.18236" lon="-1.64497">
        <ele>47.774956</ele>
        <time>2019-12-08T08:11:53Z</time>
      </trkpt>
      <trkpt lat="47.18235" lon="-1.64483">
        <ele>47.798737</ele>
        <time>2019-12-08T08:12:01Z</time>
      </trkpt>
      <trkpt lat="47.18235" lon="-1.64467">
        <ele>47.36276</ele>
        <time>2019-12-08T08:12:11Z</time>
      </trkpt>
      <trkpt lat="47.18234" lon="-1.64453">
        <ele>47.510727</ele>
        <time>2019-12-08T08:12:20Z</time>
      </trkpt>
      <trkpt lat="47.18232" lon="-1.6444">
        <ele>47.76967</ele>
        <time>2019-12-08T08:12:29Z</time>
      </trkpt>
      <trkpt lat="47.18229" lon="-1.64426">
        <ele>48.097313</ele>
        <time>2019-12-08T08:12:37Z</time>
      </trkpt>
      <trkpt lat="47.18226" lon="-1.64414">
        <ele>47.967842</ele>
        <time>2019-12-08T08:12:45Z</time>
      </trkpt>
      <trkpt lat="47.18219" lon="-1.64403">
        <ele>48.02597</ele>
        <time>2019-12-08T08:12:55Z</time>
      </trkpt>
      <trkpt lat="47.18211" lon="-1.64392">
        <ele>48.208286</ele>
        <time>2019-12-08T08:13:02Z</time>
      </trkpt>
      <trkpt lat="47.18206" lon="-1.64381">
        <ele>48.430237</ele>
        <time>2019-12-08T08:13:09Z</time>
      </trkpt>
      <trkpt lat="47.18201" lon="-1.64366">
        <ele>48.38532</ele>
        <time>2019-12-08T08:13:20Z</time>
      </trkpt>
      <trkpt lat="47.18199" lon="-1.64353">
        <ele>48.07089</ele>
        <time>2019-12-08T08:13:27Z</time>
      </trkpt>
      <trkpt lat="47.18195" lon="-1.6434">
        <ele>47.97577</ele>
        <time>2019-12-08T08:13:35Z</time>
      </trkpt>
      <trkpt lat="47.18191" lon="-1.64328">
        <ele>47.634914</ele>
        <time>2019-12-08T08:13:41Z</time>
      </trkpt>
      <trkpt lat="47.18184" lon="-1.64315">
        <ele>46.97963</ele>
        <time>2019-12-08T08:13:49Z</time>
      </trkpt>
      <trkpt lat="47.18181" lon="-1.64301">
        <ele>46.382477</ele>
        <time>2019-12-08T08:13:55Z</time>
      </trkpt>
      <trkpt lat="47.18178" lon="-1.64287">
        <ele>46.24772</ele>
        <time>2019-12-08T08:14:05Z</time>
      </trkpt>
      <trkpt lat="47.18174" lon="-1.64274">
        <ele>45.650566</ele>
        <time>2019-12-08T08:14:13Z</time>
      </trkpt>
      <trkpt lat="47.18171" lon="-1.6426">
        <ele>45.43126</ele>
        <time>2019-12-08T08:14:21Z</time>
      </trkpt>
      <trkpt lat="47.18166" lon="-1.64247">
        <ele>45.09833</ele>
        <time>2019-12-08T08:14:28Z</time>
      </trkpt>
      <trkpt lat="47.18162" lon="-1.64234">
        <ele>45.449753</ele>
        <time>2019-12-08T08:14:35Z</time>
      </trkpt>
      <trkpt lat="47.18158" lon="-1.64221">
        <ele>45.230446</ele>
        <time>2019-12-08T08:14:43Z</time>
      </trkpt>
      <trkpt lat="47.18155" lon="-1.64208">
        <ele>44.955647</ele>
        <time>2019-12-08T08:14:50Z</time>
      </trkpt>
      <trkpt lat="47.18152" lon="-1.64193">
        <ele>44.29244</ele>
        <time>2019-12-08T08:14:58Z</time>
      </trkpt>
      <trkpt lat="47.18149" lon="-1.6418">
        <ele>42.310734</ele>
        <time>2019-12-08T08:15:07Z</time>
      </trkpt>
      <trkpt lat="47.18145" lon="-1.64166">
        <ele>41.47313</ele>
        <time>2019-12-08T08:15:16Z</time>
      </trkpt>
      <trkpt lat="47.18142" lon="-1.64153">
        <ele>41.02659</ele>
        <time>2019-12-08T08:15:23Z</time>
      </trkpt>
      <trkpt lat="47.18139" lon="-1.64139">
        <ele>40.442646</ele>
        <time>2019-12-08T08:15:36Z</time>
      </trkpt>
      <trkpt lat="47.18138" lon="-1.64132">
        <ele>40.188988</ele>
        <time>2019-12-08T08:15:43Z</time>
      </trkpt>
      <trkpt lat="47.18138" lon="-1.64132">
        <ele>40.188988</ele>
        <time>2019-12-08T08:15:43Z</time>
      </trkpt>
      <trkpt lat="47.18131" lon="-1.64121">
        <ele>39.108295</ele>
        <time>2019-12-08T08:15:56Z</time>
      </trkpt>
      <trkpt lat="47.18123" lon="-1.64115">
        <ele>38.421307</ele>
        <time>2019-12-08T08:16:05Z</time>
      </trkpt>
      <trkpt lat="47.18114" lon="-1.64107">
        <ele>37.26927</ele>
        <time>2019-12-08T08:16:13Z</time>
      </trkpt>
      <trkpt lat="47.18107" lon="-1.64098">
        <ele>38.561344</ele>
        <time>2019-12-08T08:16:22Z</time>
      </trkpt>
      <trkpt lat="47.18105" lon="-1.64084">
        <ele>38.431873</ele>
        <time>2019-12-08T08:16:29Z</time>
      </trkpt>
      <trkpt lat="47.18101" lon="-1.64072">
        <ele>37.980045</ele>
        <time>2019-12-08T08:16:35Z</time>
      </trkpt>
      <trkpt lat="47.18099" lon="-1.64058">
        <ele>37.351185</ele>
        <time>2019-12-08T08:16:44Z</time>
      </trkpt>
      <trkpt lat="47.18097" lon="-1.64044">
        <ele>37.266632</ele>
        <time>2019-12-08T08:16:52Z</time>
      </trkpt>
      <trkpt lat="47.18094" lon="-1.6403">
        <ele>37.610126</ele>
        <time>2019-12-08T08:16:59Z</time>
      </trkpt>
      <trkpt lat="47.1809" lon="-1.64018">
        <ele>37.253418</ele>
        <time>2019-12-08T08:17:07Z</time>
      </trkpt>
      <trkpt lat="47.18085" lon="-1.64007">
        <ele>36.804234</ele>
        <time>2019-12-08T08:17:14Z</time>
      </trkpt>
      <trkpt lat="47.18079" lon="-1.63994">
        <ele>36.352406</ele>
        <time>2019-12-08T08:17:23Z</time>
      </trkpt>
      <trkpt lat="47.18073" lon="-1.63982">
        <ele>35.91907</ele>
        <time>2019-12-08T08:17:31Z</time>
      </trkpt>
      <trkpt lat="47.18069" lon="-1.63969">
        <ele>35.644276</ele>
        <time>2019-12-08T08:17:39Z</time>
      </trkpt>
      <trkpt lat="47.18064" lon="-1.63955">
        <ele>35.398544</ele>
        <time>2019-12-08T08:17:48Z</time>
      </trkpt>
      <trkpt lat="47.1806" lon="-1.63943">
        <ele>35.84509</ele>
        <time>2019-12-08T08:17:55Z</time>
      </trkpt>
      <trkpt lat="47.18055" lon="-1.6393">
        <ele>35.620495</ele>
        <time>2019-12-08T08:18:02Z</time>
      </trkpt>
      <trkpt lat="47.1805" lon="-1.63919">
        <ele>35.110535</ele>
        <time>2019-12-08T08:18:10Z</time>
      </trkpt>
      <trkpt lat="47.18046" lon="-1.63906">
        <ele>35.181877</ele>
        <time>2019-12-08T08:18:17Z</time>
      </trkpt>
      <trkpt lat="47.1804" lon="-1.63896">
        <ele>34.587364</ele>
        <time>2019-12-08T08:18:24Z</time>
      </trkpt>
      <trkpt lat="47.18036" lon="-1.63883">
        <ele>34.695698</ele>
        <time>2019-12-08T08:18:31Z</time>
      </trkpt>
      <trkpt lat="47.1803" lon="-1.63872">
        <ele>34.381268</ele>
        <time>2019-12-08T08:18:37Z</time>
      </trkpt>
      <trkpt lat="47.18023" lon="-1.63862">
        <ele>34.167244</ele>
        <time>2019-12-08T08:18:44Z</time>
      </trkpt>
      <trkpt lat="47.18016" lon="-1.63851">
        <ele>33.736553</ele>
        <time>2019-12-08T08:18:51Z</time>
      </trkpt>
      <trkpt lat="47.18009" lon="-1.63841">
        <ele>33.739197</ele>
        <time>2019-12-08T08:18:57Z</time>
      </trkpt>
      <trkpt lat="47.18003" lon="-1.63831">
        <ele>32.72192</ele>
        <time>2019-12-08T08:19:05Z</time>
      </trkpt>
      <trkpt lat="47.17997" lon="-1.6382">
        <ele>31.413994</ele>
        <time>2019-12-08T08:19:16Z</time>
      </trkpt>
      <trkpt lat="47.17992" lon="-1.63808">
        <ele>29.947533</ele>
        <time>2019-12-08T08:19:24Z</time>
      </trkpt>
      <trkpt lat="47.17988" lon="-1.63795">
        <ele>28.589403</ele>
        <time>2019-12-08T08:19:32Z</time>
      </trkpt>
      <trkpt lat="47.17984" lon="-1.6378">
        <ele>27.881275</ele>
        <time>2019-12-08T08:19:41Z</time>
      </trkpt>
      <trkpt lat="47.17981" lon="-1.63766">
        <ele>25.640625</ele>
        <time>2019-12-08T08:19:54Z</time>
      </trkpt>
      <trkpt lat="47.17977" lon="-1.63755">
        <ele>23.257296</ele>
        <time>2019-12-08T08:20:04Z</time>
      </trkpt>
      <trkpt lat="47.17971" lon="-1.63744">
        <ele>22.390629</ele>
        <time>2019-12-08T08:20:11Z</time>
      </trkpt>
      <trkpt lat="47.17965" lon="-1.63733">
        <ele>21.817255</ele>
        <time>2019-12-08T08:20:18Z</time>
      </trkpt>
      <trkpt lat="47.17962" lon="-1.63718">
        <ele>21.362785</ele>
        <time>2019-12-08T08:20:27Z</time>
      </trkpt>
      <trkpt lat="47.17957" lon="-1.63706">
        <ele>20.95059</ele>
        <time>2019-12-08T08:20:35Z</time>
      </trkpt>
      <trkpt lat="47.17952" lon="-1.63695">
        <ele>20.596525</ele>
        <time>2019-12-08T08:20:45Z</time>
      </trkpt>
      <trkpt lat="47.17946" lon="-1.63684">
        <ele>20.506687</ele>
        <time>2019-12-08T08:20:52Z</time>
      </trkpt>
      <trkpt lat="47.17938" lon="-1.63673">
        <ele>19.95181</ele>
        <time>2019-12-08T08:21:00Z</time>
      </trkpt>
      <trkpt lat="47.17933" lon="-1.63662">
        <ele>19.875185</ele>
        <time>2019-12-08T08:21:08Z</time>
      </trkpt>
      <trkpt lat="47.17925" lon="-1.63653">
        <ele>19.663803</ele>
        <time>2019-12-08T08:21:14Z</time>
      </trkpt>
      <trkpt lat="47.17919" lon="-1.63643">
        <ele>19.67173</ele>
        <time>2019-12-08T08:21:19Z</time>
      </trkpt>
      <trkpt lat="47.17913" lon="-1.63633">
        <ele>19.76421</ele>
        <time>2019-12-08T08:21:25Z</time>
      </trkpt>
      <trkpt lat="47.17916" lon="-1.63619">
        <ele>19.669086</ele>
        <time>2019-12-08T08:21:31Z</time>
      </trkpt>
      <trkpt lat="47.17924" lon="-1.63611">
        <ele>19.732502</ele>
        <time>2019-12-08T08:21:38Z</time>
      </trkpt>
      <trkpt lat="47.17934" lon="-1.63606">
        <ele>19.330875</ele>
        <time>2019-12-08T08:21:45Z</time>
      </trkpt>
      <trkpt lat="47.17944" lon="-1.63599">
        <ele>19.714006</ele>
        <time>2019-12-08T08:21:52Z</time>
      </trkpt>
      <trkpt lat="47.17954" lon="-1.63597">
        <ele>19.423355</ele>
        <time>2019-12-08T08:21:58Z</time>
      </trkpt>
      <trkpt lat="47.17963" lon="-1.63592">
        <ele>19.204046</ele>
        <time>2019-12-08T08:22:05Z</time>
      </trkpt>
      <trkpt lat="47.17971" lon="-1.63587">
        <ele>19.016445</ele>
        <time>2019-12-08T08:22:11Z</time>
      </trkpt>
      <trkpt lat="47.17981" lon="-1.6358">
        <ele>19.2199</ele>
        <time>2019-12-08T08:22:16Z</time>
      </trkpt>
      <trkpt lat="47.17989" lon="-1.63574">
        <ele>19.425999</ele>
        <time>2019-12-08T08:22:21Z</time>
      </trkpt>
      <trkpt lat="47.17997" lon="-1.63566">
        <ele>19.256893</ele>
        <time>2019-12-08T08:22:27Z</time>
      </trkpt>
      <trkpt lat="47.17995" lon="-1.63551">
        <ele>19.182909</ele>
        <time>2019-12-08T08:22:33Z</time>
      </trkpt>
      <trkpt lat="47.1799" lon="-1.63538">
        <ele>19.349371</ele>
        <time>2019-12-08T08:22:41Z</time>
      </trkpt>
      <trkpt lat="47.17986" lon="-1.63525">
        <ele>19.283316</ele>
        <time>2019-12-08T08:22:47Z</time>
      </trkpt>
      <trkpt lat="47.1798" lon="-1.63513">
        <ele>19.328234</ele>
        <time>2019-12-08T08:22:53Z</time>
      </trkpt>
      <trkpt lat="47.17979" lon="-1.63499">
        <ele>19.5449</ele>
        <time>2019-12-08T08:22:59Z</time>
      </trkpt>
      <trkpt lat="47.17981" lon="-1.63484">
        <ele>19.674372</ele>
        <time>2019-12-08T08:23:06Z</time>
      </trkpt>
      <trkpt lat="47.17981" lon="-1.6347">
        <ele>19.790632</ele>
        <time>2019-12-08T08:23:12Z</time>
      </trkpt>
      <trkpt lat="47.17977" lon="-1.63457">
        <ele>19.679657</ele>
        <time>2019-12-08T08:23:18Z</time>
      </trkpt>
      <trkpt lat="47.17973" lon="-1.63444">
        <ele>19.449778</ele>
        <time>2019-12-08T08:23:23Z</time>
      </trkpt>
      <trkpt lat="47.17968" lon="-1.63433">
        <ele>19.061363</ele>
        <time>2019-12-08T08:23:28Z</time>
      </trkpt>
      <trkpt lat="47.17961" lon="-1.63424">
        <ele>19.211973</ele>
        <time>2019-12-08T08:23:34Z</time>
      </trkpt>
      <trkpt lat="47.17956" lon="-1.63412">
        <ele>19.116852</ele>
        <time>2019-12-08T08:23:40Z</time>
      </trkpt>
      <trkpt lat="47.17959" lon="-1.63397">
        <ele>19.716648</ele>
        <time>2019-12-08T08:23:47Z</time>
      </trkpt>
      <trkpt lat="47.1796" lon="-1.63381">
        <ele>19.8012</ele>
        <time>2019-12-08T08:23:53Z</time>
      </trkpt>
      <trkpt lat="47.17962" lon="-1.63368">
        <ele>19.48677</ele>
        <time>2019-12-08T08:23:58Z</time>
      </trkpt>
      <trkpt lat="47.17964" lon="-1.63355">
        <ele>19.389006</ele>
        <time>2019-12-08T08:24:04Z</time>
      </trkpt>
      <trkpt lat="47.17965" lon="-1.63339">
        <ele>19.523762</ele>
        <time>2019-12-08T08:24:10Z</time>
      </trkpt>
      <trkpt lat="47.17967" lon="-1.63324">
        <ele>19.320307</ele>
        <time>2019-12-08T08:24:17Z</time>
      </trkpt>
      <trkpt lat="47.1797" lon="-1.63311">
        <ele>19.381079</ele>
        <time>2019-12-08T08:24:24Z</time>
      </trkpt>
      <trkpt lat="47.17973" lon="-1.63298">
        <ele>19.49998</ele>
        <time>2019-12-08T08:24:30Z</time>
      </trkpt>
      <trkpt lat="47.17977" lon="-1.63285">
        <ele>20.028437</ele>
        <time>2019-12-08T08:24:37Z</time>
      </trkpt>
      <trkpt lat="47.17979" lon="-1.63271">
        <ele>20.039005</ele>
        <time>2019-12-08T08:24:42Z</time>
      </trkpt>
      <trkpt lat="47.17983" lon="-1.63258">
        <ele>20.11299</ele>
        <time>2019-12-08T08:24:49Z</time>
      </trkpt>
      <trkpt lat="47.1799" lon="-1.6325">
        <ele>19.806484</ele>
        <time>2019-12-08T08:24:55Z</time>
      </trkpt>
      <trkpt lat="47.17999" lon="-1.63245">
        <ele>19.980875</ele>
        <time>2019-12-08T08:25:02Z</time>
      </trkpt>
      <trkpt lat="47.18005" lon="-1.63236">
        <ele>20.073355</ele>
        <time>2019-12-08T08:25:08Z</time>
      </trkpt>
      <trkpt lat="47.18014" lon="-1.63229">
        <ele>20.7762</ele>
        <time>2019-12-08T08:25:14Z</time>
      </trkpt>
      <trkpt lat="47.18021" lon="-1.63218">
        <ele>21.529247</ele>
        <time>2019-12-08T08:25:20Z</time>
      </trkpt>
      <trkpt lat="47.18028" lon="-1.63208">
        <ele>22.5201</ele>
        <time>2019-12-08T08:25:26Z</time>
      </trkpt>
      <trkpt lat="47.18034" lon="-1.63198">
        <ele>23.643066</ele>
        <time>2019-12-08T08:25:32Z</time>
      </trkpt>
      <trkpt lat="47.1804" lon="-1.63187">
        <ele>24.636562</ele>
        <time>2019-12-08T08:25:38Z</time>
      </trkpt>
      <trkpt lat="47.18047" lon="-1.63176">
        <ele>25.439814</ele>
        <time>2019-12-08T08:25:44Z</time>
      </trkpt>
      <trkpt lat="47.18057" lon="-1.63174">
        <ele>26.147942</ele>
        <time>2019-12-08T08:25:52Z</time>
      </trkpt>
      <trkpt lat="47.18063" lon="-1.63185">
        <ele>25.450382</ele>
        <time>2019-12-08T08:25:58Z</time>
      </trkpt>
      <trkpt lat="47.18069" lon="-1.63196">
        <ele>24.168879</ele>
        <time>2019-12-08T08:26:03Z</time>
      </trkpt>
      <trkpt lat="47.18073" lon="-1.6321">
        <ele>24.023554</ele>
        <time>2019-12-08T08:26:09Z</time>
      </trkpt>
      <trkpt lat="47.18078" lon="-1.63222">
        <ele>23.479246</ele>
        <time>2019-12-08T08:26:14Z</time>
      </trkpt>
      <trkpt lat="47.18084" lon="-1.63234">
        <ele>22.829247</ele>
        <time>2019-12-08T08:26:21Z</time>
      </trkpt>
      <trkpt lat="47.18089" lon="-1.63247">
        <ele>22.073557</ele>
        <time>2019-12-08T08:26:30Z</time>
      </trkpt>
      <trkpt lat="47.18096" lon="-1.63256">
        <ele>21.317865</ele>
        <time>2019-12-08T08:26:37Z</time>
      </trkpt>
      <trkpt lat="47.18104" lon="-1.63263">
        <ele>21.000793</ele>
        <time>2019-12-08T08:26:46Z</time>
      </trkpt>
      <trkpt lat="47.18112" lon="-1.63272">
        <ele>20.437988</ele>
        <time>2019-12-08T08:26:53Z</time>
      </trkpt>
      <trkpt lat="47.18119" lon="-1.6328">
        <ele>20.155266</ele>
        <time>2019-12-08T08:26:59Z</time>
      </trkpt>
      <trkpt lat="47.18127" lon="-1.63287">
        <ele>19.838192</ele>
        <time>2019-12-08T08:27:04Z</time>
      </trkpt>
      <trkpt lat="47.18136" lon="-1.63296">
        <ele>19.507908</ele>
        <time>2019-12-08T08:27:12Z</time>
      </trkpt>
      <trkpt lat="47.18146" lon="-1.63301">
        <ele>19.68494</ele>
        <time>2019-12-08T08:27:19Z</time>
      </trkpt>
      <trkpt lat="47.18155" lon="-1.63307">
        <ele>19.436567</ele>
        <time>2019-12-08T08:27:26Z</time>
      </trkpt>
      <trkpt lat="47.18163" lon="-1.63313">
        <ele>19.49734</ele>
        <time>2019-12-08T08:27:34Z</time>
      </trkpt>
      <trkpt lat="47.18172" lon="-1.6332">
        <ele>19.188192</ele>
        <time>2019-12-08T08:27:41Z</time>
      </trkpt>
      <trkpt lat="47.18181" lon="-1.63326">
        <ele>19.616241</ele>
        <time>2019-12-08T08:27:47Z</time>
      </trkpt>
      <trkpt lat="47.1819" lon="-1.63331">
        <ele>19.44185</ele>
        <time>2019-12-08T08:27:54Z</time>
      </trkpt>
      <trkpt lat="47.182" lon="-1.63338">
        <ele>19.375795</ele>
        <time>2019-12-08T08:28:00Z</time>
      </trkpt>
      <trkpt lat="47.18209" lon="-1.63346">
        <ele>19.344088</ele>
        <time>2019-12-08T08:28:07Z</time>
      </trkpt>
      <trkpt lat="47.18218" lon="-1.63352">
        <ele>19.341446</ele>
        <time>2019-12-08T08:28:14Z</time>
      </trkpt>
      <trkpt lat="47.18227" lon="-1.63358">
        <ele>19.692867</ele>
        <time>2019-12-08T08:28:21Z</time>
      </trkpt>
      <trkpt lat="47.18236" lon="-1.63363">
        <ele>19.735144</ele>
        <time>2019-12-08T08:28:27Z</time>
      </trkpt>
      <trkpt lat="47.18245" lon="-1.63369">
        <ele>19.658518</ele>
        <time>2019-12-08T08:28:33Z</time>
      </trkpt>
      <trkpt lat="47.18254" lon="-1.63375">
        <ele>20.144695</ele>
        <time>2019-12-08T08:28:41Z</time>
      </trkpt>
      <trkpt lat="47.18263" lon="-1.63382">
        <ele>20.081282</ele>
        <time>2019-12-08T08:28:47Z</time>
      </trkpt>
      <trkpt lat="47.18272" lon="-1.63388">
        <ele>20.06807</ele>
        <time>2019-12-08T08:28:53Z</time>
      </trkpt>
      <trkpt lat="47.18282" lon="-1.63394">
        <ele>20.139412</ele>
        <time>2019-12-08T08:29:00Z</time>
      </trkpt>
      <trkpt lat="47.1829" lon="-1.63402">
        <ele>19.938599</ele>
        <time>2019-12-08T08:29:08Z</time>
      </trkpt>
      <trkpt lat="47.183" lon="-1.63408">
        <ele>20.120916</ele>
        <time>2019-12-08T08:29:15Z</time>
      </trkpt>
      <trkpt lat="47.18308" lon="-1.63415">
        <ele>20.062786</ele>
        <time>2019-12-08T08:29:21Z</time>
      </trkpt>
      <trkpt lat="47.18318" lon="-1.63419">
        <ele>19.740429</ele>
        <time>2019-12-08T08:29:29Z</time>
      </trkpt>
      <trkpt lat="47.18326" lon="-1.63425">
        <ele>19.74307</ele>
        <time>2019-12-08T08:29:35Z</time>
      </trkpt>
      <trkpt lat="47.18335" lon="-1.63431">
        <ele>19.68494</ele>
        <time>2019-12-08T08:29:41Z</time>
      </trkpt>
      <trkpt lat="47.18345" lon="-1.63438">
        <ele>19.563396</ele>
        <time>2019-12-08T08:29:48Z</time>
      </trkpt>
      <trkpt lat="47.18354" lon="-1.63444">
        <ele>19.362583</ele>
        <time>2019-12-08T08:29:56Z</time>
      </trkpt>
      <trkpt lat="47.18362" lon="-1.63449">
        <ele>19.33616</ele>
        <time>2019-12-08T08:30:02Z</time>
      </trkpt>
      <trkpt lat="47.18372" lon="-1.63457">
        <ele>19.367868</ele>
        <time>2019-12-08T08:30:10Z</time>
      </trkpt>
      <trkpt lat="47.1838" lon="-1.63462">
        <ele>19.4762</ele>
        <time>2019-12-08T08:30:15Z</time>
      </trkpt>
      <trkpt lat="47.18388" lon="-1.63468">
        <ele>19.756283</ele>
        <time>2019-12-08T08:30:20Z</time>
      </trkpt>
      <trkpt lat="47.18398" lon="-1.63475">
        <ele>19.700794</ele>
        <time>2019-12-08T08:30:28Z</time>
      </trkpt>
      <trkpt lat="47.18407" lon="-1.63482">
        <ele>19.597746</ele>
        <time>2019-12-08T08:30:35Z</time>
      </trkpt>
      <trkpt lat="47.18416" lon="-1.63488">
        <ele>19.94124</ele>
        <time>2019-12-08T08:30:41Z</time>
      </trkpt>
      <trkpt lat="47.18424" lon="-1.63495">
        <ele>19.99937</ele>
        <time>2019-12-08T08:30:49Z</time>
      </trkpt>
      <trkpt lat="47.18433" lon="-1.63501">
        <ele>20.039005</ele>
        <time>2019-12-08T08:30:57Z</time>
      </trkpt>
      <trkpt lat="47.18441" lon="-1.63507">
        <ele>19.655876</ele>
        <time>2019-12-08T08:31:03Z</time>
      </trkpt>
      <trkpt lat="47.18451" lon="-1.63512">
        <ele>19.90425</ele>
        <time>2019-12-08T08:31:10Z</time>
      </trkpt>
      <trkpt lat="47.18461" lon="-1.63516">
        <ele>19.758924</ele>
        <time>2019-12-08T08:31:18Z</time>
      </trkpt>
      <trkpt lat="47.1847" lon="-1.63521">
        <ele>19.8012</ele>
        <time>2019-12-08T08:31:24Z</time>
      </trkpt>
      <trkpt lat="47.18479" lon="-1.63525">
        <ele>20.009941</ele>
        <time>2019-12-08T08:31:31Z</time>
      </trkpt>
      <trkpt lat="47.1849" lon="-1.63528">
        <ele>20.115631</ele>
        <time>2019-12-08T08:31:40Z</time>
      </trkpt>
      <trkpt lat="47.18499" lon="-1.6353">
        <ele>19.8699</ele>
        <time>2019-12-08T08:31:46Z</time>
      </trkpt>
      <trkpt lat="47.18509" lon="-1.63532">
        <ele>19.888395</ele>
        <time>2019-12-08T08:31:53Z</time>
      </trkpt>
      <trkpt lat="47.1852" lon="-1.63531">
        <ele>20.081282</ele>
        <time>2019-12-08T08:32:00Z</time>
      </trkpt>
      <trkpt lat="47.1853" lon="-1.6353">
        <ele>20.123558</ele>
        <time>2019-12-08T08:32:07Z</time>
      </trkpt>
      <trkpt lat="47.18537" lon="-1.6352">
        <ele>19.492054</ele>
        <time>2019-12-08T08:32:14Z</time>
      </trkpt>
      <trkpt lat="47.18541" lon="-1.63506">
        <ele>19.270103</ele>
        <time>2019-12-08T08:32:22Z</time>
      </trkpt>
      <trkpt lat="47.18545" lon="-1.63493">
        <ele>19.396933</ele>
        <time>2019-12-08T08:32:29Z</time>
      </trkpt>
      <trkpt lat="47.1855" lon="-1.63482">
        <ele>19.8012</ele>
        <time>2019-12-08T08:32:35Z</time>
      </trkpt>
      <trkpt lat="47.18556" lon="-1.63471">
        <ele>20.274168</ele>
        <time>2019-12-08T08:32:41Z</time>
      </trkpt>
      <trkpt lat="47.18562" lon="-1.63457">
        <ele>19.980875</ele>
        <time>2019-12-08T08:32:48Z</time>
      </trkpt>
      <trkpt lat="47.18567" lon="-1.63446">
        <ele>19.90425</ele>
        <time>2019-12-08T08:32:54Z</time>
      </trkpt>
      <trkpt lat="47.18572" lon="-1.63432">
        <ele>19.827623</ele>
        <time>2019-12-08T08:33:02Z</time>
      </trkpt>
      <trkpt lat="47.18581" lon="-1.6343">
        <ele>19.301811</ele>
        <time>2019-12-08T08:33:12Z</time>
      </trkpt>
      <trkpt lat="47.1859" lon="-1.63423">
        <ele>19.687582</ele>
        <time>2019-12-08T08:33:22Z</time>
      </trkpt>
      <trkpt lat="47.18598" lon="-1.63416">
        <ele>19.938599</ele>
        <time>2019-12-08T08:33:29Z</time>
      </trkpt>
      <trkpt lat="47.18607" lon="-1.63411">
        <ele>19.943884</ele>
        <time>2019-12-08T08:33:34Z</time>
      </trkpt>
      <trkpt lat="47.18616" lon="-1.63406">
        <ele>19.690226</ele>
        <time>2019-12-08T08:33:39Z</time>
      </trkpt>
      <trkpt lat="47.18624" lon="-1.63399">
        <ele>19.809128</ele>
        <time>2019-12-08T08:33:44Z</time>
      </trkpt>
      <trkpt lat="47.18633" lon="-1.63393">
        <ele>20.440632</ele>
        <time>2019-12-08T08:33:50Z</time>
      </trkpt>
      <trkpt lat="47.18636" lon="-1.63393">
        <ele>20.847542</ele>
        <time>2019-12-08T08:33:52Z</time>
      </trkpt>
      <trkpt lat="47.18636" lon="-1.63393">
        <ele>20.847542</ele>
        <time>2019-12-08T08:33:52Z</time>
      </trkpt>
      <trkpt lat="47.18636" lon="-1.63349">
        <ele>19.714006</ele>
        <time>2019-12-08T08:42:43Z</time>
      </trkpt>
      <trkpt lat="47.18625" lon="-1.63341">
        <ele>19.412786</ele>
        <time>2019-12-08T08:42:48Z</time>
      </trkpt>
      <trkpt lat="47.1862" lon="-1.63327">
        <ele>19.872541</ele>
        <time>2019-12-08T08:42:57Z</time>
      </trkpt>
      <trkpt lat="47.18616" lon="-1.63315">
        <ele>19.4762</ele>
        <time>2019-12-08T08:43:04Z</time>
      </trkpt>
      <trkpt lat="47.1861" lon="-1.63304">
        <ele>19.52112</ele>
        <time>2019-12-08T08:43:10Z</time>
      </trkpt>
      <trkpt lat="47.18604" lon="-1.63294">
        <ele>19.827623</ele>
        <time>2019-12-08T08:43:17Z</time>
      </trkpt>
      <trkpt lat="47.18598" lon="-1.63283">
        <ele>19.864614</ele>
        <time>2019-12-08T08:43:23Z</time>
      </trkpt>
      <trkpt lat="47.18591" lon="-1.63273">
        <ele>19.957094</ele>
        <time>2019-12-08T08:43:29Z</time>
      </trkpt>
      <trkpt lat="47.18585" lon="-1.63261">
        <ele>19.700794</ele>
        <time>2019-12-08T08:43:35Z</time>
      </trkpt>
      <trkpt lat="47.18577" lon="-1.63251">
        <ele>19.896322</ele>
        <time>2019-12-08T08:43:42Z</time>
      </trkpt>
      <trkpt lat="47.1857" lon="-1.63243">
        <ele>19.967665</ele>
        <time>2019-12-08T08:43:48Z</time>
      </trkpt>
      <trkpt lat="47.18563" lon="-1.63233">
        <ele>20.081282</ele>
        <time>2019-12-08T08:43:54Z</time>
      </trkpt>
      <trkpt lat="47.18558" lon="-1.63221">
        <ele>20.062786</ele>
        <time>2019-12-08T08:44:00Z</time>
      </trkpt>
      <trkpt lat="47.18558" lon="-1.63207">
        <ele>19.814411</ele>
        <time>2019-12-08T08:44:06Z</time>
      </trkpt>
      <trkpt lat="47.1856" lon="-1.63194">
        <ele>19.740429</ele>
        <time>2019-12-08T08:44:13Z</time>
      </trkpt>
      <trkpt lat="47.18566" lon="-1.63183">
        <ele>19.76421</ele>
        <time>2019-12-08T08:44:19Z</time>
      </trkpt>
      <trkpt lat="47.18564" lon="-1.63169">
        <ele>20.5199</ele>
        <time>2019-12-08T08:44:27Z</time>
      </trkpt>
      <trkpt lat="47.18556" lon="-1.63161">
        <ele>20.385143</ele>
        <time>2019-12-08T08:44:33Z</time>
      </trkpt>
      <trkpt lat="47.18549" lon="-1.63152">
        <ele>20.554249</ele>
        <time>2019-12-08T08:44:38Z</time>
      </trkpt>
      <trkpt lat="47.18541" lon="-1.63142">
        <ele>20.87132</ele>
        <time>2019-12-08T08:44:46Z</time>
      </trkpt>
      <trkpt lat="47.18533" lon="-1.63134">
        <ele>21.069492</ele>
        <time>2019-12-08T08:44:54Z</time>
      </trkpt>
      <trkpt lat="47.18526" lon="-1.63125">
        <ele>21.058924</ele>
        <time>2019-12-08T08:44:59Z</time>
      </trkpt>
      <trkpt lat="47.18519" lon="-1.63116">
        <ele>20.744492</ele>
        <time>2019-12-08T08:45:04Z</time>
      </trkpt>
      <trkpt lat="47.18512" lon="-1.63107">
        <ele>20.749777</ele>
        <time>2019-12-08T08:45:08Z</time>
      </trkpt>
      <trkpt lat="47.18504" lon="-1.63098">
        <ele>20.760345</ele>
        <time>2019-12-08T08:45:14Z</time>
      </trkpt>
      <trkpt lat="47.18495" lon="-1.63089">
        <ele>20.910955</ele>
        <time>2019-12-08T08:45:19Z</time>
      </trkpt>
      <trkpt lat="47.18488" lon="-1.63082">
        <ele>20.535753</ele>
        <time>2019-12-08T08:45:25Z</time>
      </trkpt>
      <trkpt lat="47.1848" lon="-1.63073">
        <ele>20.889818</ele>
        <time>2019-12-08T08:45:31Z</time>
      </trkpt>
      <trkpt lat="47.18472" lon="-1.63064">
        <ele>21.037785</ele>
        <time>2019-12-08T08:45:38Z</time>
      </trkpt>
      <trkpt lat="47.18465" lon="-1.63056">
        <ele>20.633516</ele>
        <time>2019-12-08T08:45:45Z</time>
      </trkpt>
      <trkpt lat="47.18458" lon="-1.63043">
        <ele>20.755062</ele>
        <time>2019-12-08T08:45:52Z</time>
      </trkpt>
      <trkpt lat="47.18451" lon="-1.63034">
        <ele>20.192257</ele>
        <time>2019-12-08T08:45:59Z</time>
      </trkpt>
      <trkpt lat="47.18442" lon="-1.63027">
        <ele>19.238396</ele>
        <time>2019-12-08T08:46:05Z</time>
      </trkpt>
      <trkpt lat="47.18434" lon="-1.63017">
        <ele>18.691446</ele>
        <time>2019-12-08T08:46:11Z</time>
      </trkpt>
      <trkpt lat="47.18426" lon="-1.63008">
        <ele>19.005877</ele>
        <time>2019-12-08T08:46:16Z</time>
      </trkpt>
      <trkpt lat="47.18418" lon="-1.63002">
        <ele>19.536974</ele>
        <time>2019-12-08T08:46:22Z</time>
      </trkpt>
      <trkpt lat="47.1841" lon="-1.6299">
        <ele>19.333519</ele>
        <time>2019-12-08T08:46:28Z</time>
      </trkpt>
      <trkpt lat="47.18405" lon="-1.62979">
        <ele>19.262177</ele>
        <time>2019-12-08T08:46:35Z</time>
      </trkpt>
      <trkpt lat="47.18399" lon="-1.62969">
        <ele>19.425999</ele>
        <time>2019-12-08T08:46:41Z</time>
      </trkpt>
      <trkpt lat="47.18396" lon="-1.62955">
        <ele>19.809128</ele>
        <time>2019-12-08T08:46:49Z</time>
      </trkpt>
      <trkpt lat="47.18396" lon="-1.62942">
        <ele>19.761566</ele>
        <time>2019-12-08T08:46:54Z</time>
      </trkpt>
      <trkpt lat="47.18398" lon="-1.62929">
        <ele>19.610956</ele>
        <time>2019-12-08T08:47:01Z</time>
      </trkpt>
      <trkpt lat="47.18399" lon="-1.62915">
        <ele>19.634737</ele>
        <time>2019-12-08T08:47:08Z</time>
      </trkpt>
      <trkpt lat="47.18398" lon="-1.629">
        <ele>19.478844</ele>
        <time>2019-12-08T08:47:15Z</time>
      </trkpt>
      <trkpt lat="47.18402" lon="-1.62886">
        <ele>19.59246</ele>
        <time>2019-12-08T08:47:21Z</time>
      </trkpt>
      <trkpt lat="47.18404" lon="-1.62874">
        <ele>19.634737</ele>
        <time>2019-12-08T08:47:28Z</time>
      </trkpt>
      <trkpt lat="47.18407" lon="-1.62861">
        <ele>19.378437</ele>
        <time>2019-12-08T08:47:34Z</time>
      </trkpt>
      <trkpt lat="47.1841" lon="-1.62847">
        <ele>19.439209</ele>
        <time>2019-12-08T08:47:42Z</time>
      </trkpt>
      <trkpt lat="47.18414" lon="-1.62834">
        <ele>19.75364</ele>
        <time>2019-12-08T08:47:48Z</time>
      </trkpt>
      <trkpt lat="47.18416" lon="-1.62819">
        <ele>19.59246</ele>
        <time>2019-12-08T08:47:55Z</time>
      </trkpt>
      <trkpt lat="47.18418" lon="-1.62804">
        <ele>19.658518</ele>
        <time>2019-12-08T08:48:02Z</time>
      </trkpt>
      <trkpt lat="47.1842" lon="-1.62791">
        <ele>19.71929</ele>
        <time>2019-12-08T08:48:08Z</time>
      </trkpt>
      <trkpt lat="47.18422" lon="-1.62777">
        <ele>19.291243</ele>
        <time>2019-12-08T08:48:14Z</time>
      </trkpt>
      <trkpt lat="47.18424" lon="-1.62762">
        <ele>18.889616</ele>
        <time>2019-12-08T08:48:21Z</time>
      </trkpt>
      <trkpt lat="47.18428" lon="-1.62749">
        <ele>18.617462</ele>
        <time>2019-12-08T08:48:28Z</time>
      </trkpt>
      <trkpt lat="47.1843" lon="-1.62736">
        <ele>18.744291</ele>
        <time>2019-12-08T08:48:34Z</time>
      </trkpt>
      <trkpt lat="47.18432" lon="-1.62722">
        <ele>18.746933</ele>
        <time>2019-12-08T08:48:41Z</time>
      </trkpt>
      <trkpt lat="47.18435" lon="-1.62708">
        <ele>19.058722</ele>
        <time>2019-12-08T08:48:48Z</time>
      </trkpt>
      <trkpt lat="47.18437" lon="-1.62695">
        <ele>19.716648</ele>
        <time>2019-12-08T08:48:54Z</time>
      </trkpt>
      <trkpt lat="47.18436" lon="-1.6268">
        <ele>19.584534</ele>
        <time>2019-12-08T08:49:00Z</time>
      </trkpt>
      <trkpt lat="47.18438" lon="-1.62665">
        <ele>19.729858</ele>
        <time>2019-12-08T08:49:06Z</time>
      </trkpt>
      <trkpt lat="47.1844" lon="-1.62651">
        <ele>19.735144</ele>
        <time>2019-12-08T08:49:12Z</time>
      </trkpt>
      <trkpt lat="47.18441" lon="-1.62637">
        <ele>19.714006</ele>
        <time>2019-12-08T08:49:19Z</time>
      </trkpt>
      <trkpt lat="47.18444" lon="-1.62624">
        <ele>19.780062</ele>
        <time>2019-12-08T08:49:25Z</time>
      </trkpt>
      <trkpt lat="47.18445" lon="-1.62609">
        <ele>19.877827</ele>
        <time>2019-12-08T08:49:32Z</time>
      </trkpt>
      <trkpt lat="47.18444" lon="-1.62595">
        <ele>19.39429</ele>
        <time>2019-12-08T08:49:38Z</time>
      </trkpt>
      <trkpt lat="47.18445" lon="-1.62577">
        <ele>19.6136</ele>
        <time>2019-12-08T08:49:47Z</time>
      </trkpt>
      <trkpt lat="47.18447" lon="-1.62562">
        <ele>19.8699</ele>
        <time>2019-12-08T08:49:53Z</time>
      </trkpt>
      <trkpt lat="47.18449" lon="-1.62547">
        <ele>19.674372</ele>
        <time>2019-12-08T08:50:00Z</time>
      </trkpt>
      <trkpt lat="47.18448" lon="-1.62534">
        <ele>19.536974</ele>
        <time>2019-12-08T08:50:06Z</time>
      </trkpt>
      <trkpt lat="47.1845" lon="-1.6252">
        <ele>19.68494</ele>
        <time>2019-12-08T08:50:12Z</time>
      </trkpt>
      <trkpt lat="47.1845" lon="-1.62506">
        <ele>19.77742</ele>
        <time>2019-12-08T08:50:18Z</time>
      </trkpt>
      <trkpt lat="47.1845" lon="-1.62492">
        <ele>19.740429</ele>
        <time>2019-12-08T08:50:24Z</time>
      </trkpt>
      <trkpt lat="47.18453" lon="-1.62479">
        <ele>19.832909</ele>
        <time>2019-12-08T08:50:30Z</time>
      </trkpt>
      <trkpt lat="47.18452" lon="-1.62464">
        <ele>19.492054</ele>
        <time>2019-12-08T08:50:37Z</time>
      </trkpt>
      <trkpt lat="47.1845" lon="-1.62449">
        <ele>20.017868</ele>
        <time>2019-12-08T08:50:44Z</time>
      </trkpt>
      <trkpt lat="47.1845" lon="-1.62435">
        <ele>19.891037</ele>
        <time>2019-12-08T08:50:49Z</time>
      </trkpt>
      <trkpt lat="47.18451" lon="-1.62421">
        <ele>20.173761</ele>
        <time>2019-12-08T08:50:55Z</time>
      </trkpt>
      <trkpt lat="47.18451" lon="-1.62407">
        <ele>20.268883</ele>
        <time>2019-12-08T08:51:01Z</time>
      </trkpt>
      <trkpt lat="47.18451" lon="-1.62393">
        <ele>20.152622</ele>
        <time>2019-12-08T08:51:07Z</time>
      </trkpt>
      <trkpt lat="47.1845" lon="-1.62378">
        <ele>20.060143</ele>
        <time>2019-12-08T08:51:14Z</time>
      </trkpt>
      <trkpt lat="47.18448" lon="-1.62364">
        <ele>19.708721</ele>
        <time>2019-12-08T08:51:21Z</time>
      </trkpt>
      <trkpt lat="47.18448" lon="-1.62349">
        <ele>20.073355</ele>
        <time>2019-12-08T08:51:27Z</time>
      </trkpt>
      <trkpt lat="47.18446" lon="-1.62334">
        <ele>19.484127</ele>
        <time>2019-12-08T08:51:34Z</time>
      </trkpt>
      <trkpt lat="47.18442" lon="-1.62322">
        <ele>19.621527</ele>
        <time>2019-12-08T08:51:42Z</time>
      </trkpt>
      <trkpt lat="47.18435" lon="-1.62313">
        <ele>19.46299</ele>
        <time>2019-12-08T08:51:49Z</time>
      </trkpt>
      <trkpt lat="47.18425" lon="-1.62307">
        <ele>19.431282</ele>
        <time>2019-12-08T08:51:57Z</time>
      </trkpt>
      <trkpt lat="47.18417" lon="-1.62315">
        <ele>19.460348</ele>
        <time>2019-12-08T08:52:04Z</time>
      </trkpt>
      <trkpt lat="47.18411" lon="-1.62327">
        <ele>19.629454</ele>
        <time>2019-12-08T08:52:10Z</time>
      </trkpt>
      <trkpt lat="47.18407" lon="-1.6234">
        <ele>19.264818</ele>
        <time>2019-12-08T08:52:16Z</time>
      </trkpt>
      <trkpt lat="47.18402" lon="-1.62351">
        <ele>19.293884</ele>
        <time>2019-12-08T08:52:22Z</time>
      </trkpt>
      <trkpt lat="47.18393" lon="-1.6236">
        <ele>19.700794</ele>
        <time>2019-12-08T08:52:28Z</time>
      </trkpt>
      <trkpt lat="47.18384" lon="-1.62365">
        <ele>19.840836</ele>
        <time>2019-12-08T08:52:35Z</time>
      </trkpt>
      <trkpt lat="47.18374" lon="-1.62368">
        <ele>20.046932</ele>
        <time>2019-12-08T08:52:41Z</time>
      </trkpt>
      <trkpt lat="47.18365" lon="-1.62369">
        <ele>19.700794</ele>
        <time>2019-12-08T08:52:47Z</time>
      </trkpt>
      <trkpt lat="47.18356" lon="-1.62375">
        <ele>19.782705</ele>
        <time>2019-12-08T08:52:53Z</time>
      </trkpt>
      <trkpt lat="47.18347" lon="-1.6238">
        <ele>19.917461</ele>
        <time>2019-12-08T08:52:59Z</time>
      </trkpt>
      <trkpt lat="47.18339" lon="-1.62389">
        <ele>19.618883</ele>
        <time>2019-12-08T08:53:05Z</time>
      </trkpt>
      <trkpt lat="47.18332" lon="-1.62397">
        <ele>19.597746</ele>
        <time>2019-12-08T08:53:11Z</time>
      </trkpt>
      <trkpt lat="47.18324" lon="-1.62408">
        <ele>19.642664</ele>
        <time>2019-12-08T08:53:17Z</time>
      </trkpt>
      <trkpt lat="47.18318" lon="-1.62418">
        <ele>19.389006</ele>
        <time>2019-12-08T08:53:23Z</time>
      </trkpt>
      <trkpt lat="47.18312" lon="-1.62428">
        <ele>19.325592</ele>
        <time>2019-12-08T08:53:29Z</time>
      </trkpt>
      <trkpt lat="47.18305" lon="-1.62437">
        <ele>19.20669</ele>
        <time>2019-12-08T08:53:35Z</time>
      </trkpt>
      <trkpt lat="47.18297" lon="-1.62447">
        <ele>19.211973</ele>
        <time>2019-12-08T08:53:41Z</time>
      </trkpt>
      <trkpt lat="47.18288" lon="-1.62453">
        <ele>18.712584</ele>
        <time>2019-12-08T08:53:47Z</time>
      </trkpt>
      <trkpt lat="47.18279" lon="-1.62457">
        <ele>18.635958</ele>
        <time>2019-12-08T08:53:53Z</time>
      </trkpt>
      <trkpt lat="47.18269" lon="-1.62461">
        <ele>18.6386</ele>
        <time>2019-12-08T08:54:00Z</time>
      </trkpt>
      <trkpt lat="47.18261" lon="-1.62467">
        <ele>18.760145</ele>
        <time>2019-12-08T08:54:06Z</time>
      </trkpt>
      <trkpt lat="47.18252" lon="-1.62474">
        <ele>18.622746</ele>
        <time>2019-12-08T08:54:12Z</time>
      </trkpt>
      <trkpt lat="47.18244" lon="-1.6248">
        <ele>18.823559</ele>
        <time>2019-12-08T08:54:18Z</time>
      </trkpt>
      <trkpt lat="47.18235" lon="-1.62479">
        <ele>19.037584</ele>
        <time>2019-12-08T08:54:23Z</time>
      </trkpt>
      <trkpt lat="47.18227" lon="-1.6247">
        <ele>18.987381</ele>
        <time>2019-12-08T08:54:29Z</time>
      </trkpt>
      <trkpt lat="47.18218" lon="-1.62461">
        <ele>18.588396</ele>
        <time>2019-12-08T08:54:36Z</time>
      </trkpt>
      <trkpt lat="47.18211" lon="-1.62452">
        <ele>18.810349</ele>
        <time>2019-12-08T08:54:42Z</time>
      </trkpt>
      <trkpt lat="47.18206" lon="-1.6244">
        <ele>18.93982</ele>
        <time>2019-12-08T08:54:48Z</time>
      </trkpt>
      <trkpt lat="47.18201" lon="-1.62428">
        <ele>18.564617</ele>
        <time>2019-12-08T08:54:54Z</time>
      </trkpt>
      <trkpt lat="47.18196" lon="-1.62415">
        <ele>18.670307</ele>
        <time>2019-12-08T08:55:01Z</time>
      </trkpt>
      <trkpt lat="47.18191" lon="-1.62403">
        <ele>18.678234</ele>
        <time>2019-12-08T08:55:08Z</time>
      </trkpt>
      <trkpt lat="47.18186" lon="-1.62391">
        <ele>19.153843</ele>
        <time>2019-12-08T08:55:14Z</time>
      </trkpt>
      <trkpt lat="47.1818" lon="-1.62379">
        <ele>18.855267</ele>
        <time>2019-12-08T08:55:21Z</time>
      </trkpt>
      <trkpt lat="47.18174" lon="-1.62368">
        <ele>19.201405</ele>
        <time>2019-12-08T08:55:27Z</time>
      </trkpt>
      <trkpt lat="47.18167" lon="-1.62357">
        <ele>19.111567</ele>
        <time>2019-12-08T08:55:34Z</time>
      </trkpt>
      <trkpt lat="47.18161" lon="-1.62345">
        <ele>19.2199</ele>
        <time>2019-12-08T08:55:41Z</time>
      </trkpt>
      <trkpt lat="47.18155" lon="-1.62334">
        <ele>19.33616</ele>
        <time>2019-12-08T08:55:47Z</time>
      </trkpt>
      <trkpt lat="47.18151" lon="-1.62321">
        <ele>19.38372</ele>
        <time>2019-12-08T08:55:53Z</time>
      </trkpt>
      <trkpt lat="47.18151" lon="-1.62305">
        <ele>19.507908</ele>
        <time>2019-12-08T08:55:59Z</time>
      </trkpt>
      <trkpt lat="47.18153" lon="-1.62291">
        <ele>19.447136</ele>
        <time>2019-12-08T08:56:05Z</time>
      </trkpt>
      <trkpt lat="47.18154" lon="-1.62276">
        <ele>19.39429</ele>
        <time>2019-12-08T08:56:11Z</time>
      </trkpt>
      <trkpt lat="47.18153" lon="-1.62262">
        <ele>19.909534</ele>
        <time>2019-12-08T08:56:17Z</time>
      </trkpt>
      <trkpt lat="47.18147" lon="-1.6225">
        <ele>19.489412</ele>
        <time>2019-12-08T08:56:24Z</time>
      </trkpt>
      <trkpt lat="47.18139" lon="-1.62241">
        <ele>19.415428</ele>
        <time>2019-12-08T08:56:31Z</time>
      </trkpt>
      <trkpt lat="47.1813" lon="-1.62235">
        <ele>20.157907</ele>
        <time>2019-12-08T08:56:37Z</time>
      </trkpt>
      <trkpt lat="47.18123" lon="-1.62227">
        <ele>19.790632</ele>
        <time>2019-12-08T08:56:43Z</time>
      </trkpt>
      <trkpt lat="47.18117" lon="-1.62214">
        <ele>19.151201</ele>
        <time>2019-12-08T08:56:50Z</time>
      </trkpt>
      <trkpt lat="47.18117" lon="-1.622">
        <ele>19.111567</ele>
        <time>2019-12-08T08:56:56Z</time>
      </trkpt>
      <trkpt lat="47.18115" lon="-1.62187">
        <ele>18.712584</ele>
        <time>2019-12-08T08:57:02Z</time>
      </trkpt>
      <trkpt lat="47.18106" lon="-1.6218">
        <ele>18.678234</ele>
        <time>2019-12-08T08:57:07Z</time>
      </trkpt>
      <trkpt lat="47.18101" lon="-1.62169">
        <ele>18.691446</ele>
        <time>2019-12-08T08:57:14Z</time>
      </trkpt>
      <trkpt lat="47.18098" lon="-1.62156">
        <ele>18.472137</ele>
        <time>2019-12-08T08:57:21Z</time>
      </trkpt>
      <trkpt lat="47.18095" lon="-1.62141">
        <ele>18.538193</ele>
        <time>2019-12-08T08:57:28Z</time>
      </trkpt>
      <trkpt lat="47.18096" lon="-1.62127">
        <ele>18.303032</ele>
        <time>2019-12-08T08:57:34Z</time>
      </trkpt>
      <trkpt lat="47.18098" lon="-1.62115">
        <ele>18.27661</ele>
        <time>2019-12-08T08:57:40Z</time>
      </trkpt>
      <trkpt lat="47.181" lon="-1.62101">
        <ele>18.651812</ele>
        <time>2019-12-08T08:57:47Z</time>
      </trkpt>
      <trkpt lat="47.18099" lon="-1.62086">
        <ele>18.665024</ele>
        <time>2019-12-08T08:57:54Z</time>
      </trkpt>
      <trkpt lat="47.18096" lon="-1.62071">
        <ele>18.646526</ele>
        <time>2019-12-08T08:58:01Z</time>
      </trkpt>
      <trkpt lat="47.18092" lon="-1.62059">
        <ele>18.458925</ele>
        <time>2019-12-08T08:58:06Z</time>
      </trkpt>
      <trkpt lat="47.18086" lon="-1.62048">
        <ele>18.702015</ele>
        <time>2019-12-08T08:58:13Z</time>
      </trkpt>
      <trkpt lat="47.1808" lon="-1.62037">
        <ele>19.029657</ele>
        <time>2019-12-08T08:58:20Z</time>
      </trkpt>
      <trkpt lat="47.18073" lon="-1.62028">
        <ele>18.641243</ele>
        <time>2019-12-08T08:58:26Z</time>
      </trkpt>
      <trkpt lat="47.18066" lon="-1.62018">
        <ele>18.593681</ele>
        <time>2019-12-08T08:58:31Z</time>
      </trkpt>
      <trkpt lat="47.18061" lon="-1.62008">
        <ele>19.042868</ele>
        <time>2019-12-08T08:58:37Z</time>
      </trkpt>
      <trkpt lat="47.18057" lon="-1.61995">
        <ele>18.74165</ele>
        <time>2019-12-08T08:58:43Z</time>
      </trkpt>
      <trkpt lat="47.18053" lon="-1.61982">
        <ele>18.773355</ele>
        <time>2019-12-08T08:58:50Z</time>
      </trkpt>
      <trkpt lat="47.18048" lon="-1.61968">
        <ele>18.688803</ele>
        <time>2019-12-08T08:58:57Z</time>
      </trkpt>
      <trkpt lat="47.18045" lon="-1.61954">
        <ele>18.770714</ele>
        <time>2019-12-08T08:59:03Z</time>
      </trkpt>
      <trkpt lat="47.18043" lon="-1.6194">
        <ele>19.048153</ele>
        <time>2019-12-08T08:59:09Z</time>
      </trkpt>
      <trkpt lat="47.18037" lon="-1.61928">
        <ele>19.267462</ele>
        <time>2019-12-08T08:59:18Z</time>
      </trkpt>
      <trkpt lat="47.18029" lon="-1.61923">
        <ele>18.966242</ele>
        <time>2019-12-08T08:59:28Z</time>
      </trkpt>
      <trkpt lat="47.1802" lon="-1.61917">
        <ele>19.330875</ele>
        <time>2019-12-08T08:59:33Z</time>
      </trkpt>
      <trkpt lat="47.18016" lon="-1.61905">
        <ele>19.529047</ele>
        <time>2019-12-08T08:59:38Z</time>
      </trkpt>
      <trkpt lat="47.18015" lon="-1.61891">
        <ele>19.301811</ele>
        <time>2019-12-08T08:59:44Z</time>
      </trkpt>
      <trkpt lat="47.18013" lon="-1.61877">
        <ele>19.513193</ele>
        <time>2019-12-08T08:59:50Z</time>
      </trkpt>
      <trkpt lat="47.18013" lon="-1.61864">
        <ele>19.682299</ele>
        <time>2019-12-08T08:59:57Z</time>
      </trkpt>
      <trkpt lat="47.1801" lon="-1.61849">
        <ele>19.573965</ele>
        <time>2019-12-08T09:00:03Z</time>
      </trkpt>
      <trkpt lat="47.18005" lon="-1.61836">
        <ele>19.642664</ele>
        <time>2019-12-08T09:00:11Z</time>
      </trkpt>
      <trkpt lat="47.17996" lon="-1.61833">
        <ele>19.714006</ele>
        <time>2019-12-08T09:00:17Z</time>
      </trkpt>
      <trkpt lat="47.17986" lon="-1.61828">
        <ele>19.769493</ele>
        <time>2019-12-08T09:00:23Z</time>
      </trkpt>
      <trkpt lat="47.17983" lon="-1.61814">
        <ele>20.57803</ele>
        <time>2019-12-08T09:00:33Z</time>
      </trkpt>
      <trkpt lat="47.17981" lon="-1.61801">
        <ele>20.110346</ele>
        <time>2019-12-08T09:00:39Z</time>
      </trkpt>
      <trkpt lat="47.17979" lon="-1.61786">
        <ele>20.070713</ele>
        <time>2019-12-08T09:00:44Z</time>
      </trkpt>
      <trkpt lat="47.17977" lon="-1.61772">
        <ele>20.144695</ele>
        <time>2019-12-08T09:00:50Z</time>
      </trkpt>
      <trkpt lat="47.17977" lon="-1.61757">
        <ele>19.94124</ele>
        <time>2019-12-08T09:00:57Z</time>
      </trkpt>
      <trkpt lat="47.17975" lon="-1.61743">
        <ele>19.27803</ele>
        <time>2019-12-08T09:01:03Z</time>
      </trkpt>
      <trkpt lat="47.17971" lon="-1.6173">
        <ele>19.230469</ele>
        <time>2019-12-08T09:01:08Z</time>
      </trkpt>
      <trkpt lat="47.17969" lon="-1.61717">
        <ele>19.20669</ele>
        <time>2019-12-08T09:01:13Z</time>
      </trkpt>
      <trkpt lat="47.1796" lon="-1.61712">
        <ele>20.107704</ele>
        <time>2019-12-08T09:01:25Z</time>
      </trkpt>
      <trkpt lat="47.17955" lon="-1.61713">
        <ele>21.204248</ele>
        <time>2019-12-08T09:01:34Z</time>
      </trkpt>
      <trkpt lat="47.17955" lon="-1.61713">
        <ele>21.204248</ele>
        <time>2019-12-08T09:01:34Z</time>
      </trkpt>
      <trkpt lat="47.17952" lon="-1.61726">
        <ele>24.59957</ele>
        <time>2019-12-08T09:01:50Z</time>
      </trkpt>
      <trkpt lat="47.17943" lon="-1.61727">
        <ele>28.623753</ele>
        <time>2019-12-08T09:02:14Z</time>
      </trkpt>
      <trkpt lat="47.17933" lon="-1.61729">
        <ele>28.518063</ele>
        <time>2019-12-08T09:02:21Z</time>
      </trkpt>
      <trkpt lat="47.17923" lon="-1.61731">
        <ele>29.289606</ele>
        <time>2019-12-08T09:02:27Z</time>
      </trkpt>
      <trkpt lat="47.17913" lon="-1.61735">
        <ele>30.449564</ele>
        <time>2019-12-08T09:02:35Z</time>
      </trkpt>
      <trkpt lat="47.17904" lon="-1.61739">
        <ele>30.837978</ele>
        <time>2019-12-08T09:02:41Z</time>
      </trkpt>
      <trkpt lat="47.17895" lon="-1.61742">
        <ele>31.506474</ele>
        <time>2019-12-08T09:02:47Z</time>
      </trkpt>
      <trkpt lat="47.17886" lon="-1.61744">
        <ele>31.905457</ele>
        <time>2019-12-08T09:02:57Z</time>
      </trkpt>
      <trkpt lat="47.17885" lon="-1.61744">
        <ele>31.649157</ele>
        <time>2019-12-08T09:03:00Z</time>
      </trkpt>
      <trkpt lat="47.17885" lon="-1.61744">
        <ele>31.649157</ele>
        <time>2019-12-08T09:03:00Z</time>
      </trkpt>
      <trkpt lat="47.17884" lon="-1.61752">
        <ele>32.20932</ele>
        <time>2019-12-08T09:03:18Z</time>
      </trkpt>
      <trkpt lat="47.17884" lon="-1.61752">
        <ele>32.20932</ele>
        <time>2019-12-08T09:03:18Z</time>
      </trkpt>
      <trkpt lat="47.17886" lon="-1.61765">
        <ele>32.36257</ele>
        <time>2019-12-08T09:03:56Z</time>
      </trkpt>
      <trkpt lat="47.17888" lon="-1.61779">
        <ele>33.194885</ele>
        <time>2019-12-08T09:04:03Z</time>
      </trkpt>
      <trkpt lat="47.17889" lon="-1.61793">
        <ele>33.279438</ele>
        <time>2019-12-08T09:04:10Z</time>
      </trkpt>
      <trkpt lat="47.17891" lon="-1.61807">
        <ele>33.216026</ele>
        <time>2019-12-08T09:04:17Z</time>
      </trkpt>
      <trkpt lat="47.17893" lon="-1.61822">
        <ele>33.16582</ele>
        <time>2019-12-08T09:04:24Z</time>
      </trkpt>
      <trkpt lat="47.17894" lon="-1.61836">
        <ele>33.007286</ele>
        <time>2019-12-08T09:04:30Z</time>
      </trkpt>
      <trkpt lat="47.17896" lon="-1.61849">
        <ele>32.750984</ele>
        <time>2019-12-08T09:04:37Z</time>
      </trkpt>
      <trkpt lat="47.17897" lon="-1.61863">
        <ele>32.78005</ele>
        <time>2019-12-08T09:04:43Z</time>
      </trkpt>
      <trkpt lat="47.179" lon="-1.61876">
        <ele>32.48676</ele>
        <time>2019-12-08T09:04:49Z</time>
      </trkpt>
      <trkpt lat="47.17902" lon="-1.6189">
        <ele>31.842043</ele>
        <time>2019-12-08T09:04:55Z</time>
      </trkpt>
      <trkpt lat="47.17904" lon="-1.61904">
        <ele>31.754848</ele>
        <time>2019-12-08T09:05:01Z</time>
      </trkpt>
      <trkpt lat="47.17907" lon="-1.61919">
        <ele>31.73371</ele>
        <time>2019-12-08T09:05:07Z</time>
      </trkpt>
      <trkpt lat="47.1791" lon="-1.61933">
        <ele>31.519686</ele>
        <time>2019-12-08T09:05:13Z</time>
      </trkpt>
      <trkpt lat="47.17912" lon="-1.61947">
        <ele>31.670296</ele>
        <time>2019-12-08T09:05:19Z</time>
      </trkpt>
      <trkpt lat="47.17916" lon="-1.61961">
        <ele>31.131271</ele>
        <time>2019-12-08T09:05:27Z</time>
      </trkpt>
      <trkpt lat="47.17919" lon="-1.61974">
        <ele>30.568466</ele>
        <time>2019-12-08T09:05:34Z</time>
      </trkpt>
      <trkpt lat="47.17921" lon="-1.61987">
        <ele>30.232899</ele>
        <time>2019-12-08T09:05:40Z</time>
      </trkpt>
      <trkpt lat="47.17925" lon="-1.62001">
        <ele>30.050581</ele>
        <time>2019-12-08T09:05:46Z</time>
      </trkpt>
      <trkpt lat="47.17926" lon="-1.62016">
        <ele>30.322735</ele>
        <time>2019-12-08T09:05:52Z</time>
      </trkpt>
      <trkpt lat="47.17928" lon="-1.62031">
        <ele>30.592247</ele>
        <time>2019-12-08T09:05:59Z</time>
      </trkpt>
      <trkpt lat="47.17936" lon="-1.62036">
        <ele>28.917046</ele>
        <time>2019-12-08T09:06:08Z</time>
      </trkpt>
      <trkpt lat="47.17945" lon="-1.62035">
        <ele>27.463795</ele>
        <time>2019-12-08T09:06:14Z</time>
      </trkpt>
      <trkpt lat="47.17955" lon="-1.62032">
        <ele>25.873146</ele>
        <time>2019-12-08T09:06:20Z</time>
      </trkpt>
      <trkpt lat="47.17965" lon="-1.62033">
        <ele>23.835953</ele>
        <time>2019-12-08T09:06:27Z</time>
      </trkpt>
      <trkpt lat="47.17974" lon="-1.62034">
        <ele>21.793476</ele>
        <time>2019-12-08T09:06:34Z</time>
      </trkpt>
      <trkpt lat="47.17984" lon="-1.62033">
        <ele>21.035143</ele>
        <time>2019-12-08T09:06:40Z</time>
      </trkpt>
      <trkpt lat="47.17994" lon="-1.62033">
        <ele>20.070713</ele>
        <time>2019-12-08T09:06:47Z</time>
      </trkpt>
      <trkpt lat="47.18004" lon="-1.62033">
        <ele>19.42864</ele>
        <time>2019-12-08T09:06:52Z</time>
      </trkpt>
      <trkpt lat="47.18014" lon="-1.62031">
        <ele>18.746933</ele>
        <time>2019-12-08T09:06:59Z</time>
      </trkpt>
      <trkpt lat="47.18024" lon="-1.6203">
        <ele>18.361162</ele>
        <time>2019-12-08T09:07:05Z</time>
      </trkpt>
      <trkpt lat="47.18034" lon="-1.6203">
        <ele>18.04673</ele>
        <time>2019-12-08T09:07:10Z</time>
      </trkpt>
      <trkpt lat="47.18044" lon="-1.62033">
        <ele>18.004454</ele>
        <time>2019-12-08T09:07:15Z</time>
      </trkpt>
      <trkpt lat="47.18053" lon="-1.62039">
        <ele>17.634537</ele>
        <time>2019-12-08T09:07:21Z</time>
      </trkpt>
      <trkpt lat="47.18061" lon="-1.62044">
        <ele>17.38352</ele>
        <time>2019-12-08T09:07:28Z</time>
      </trkpt>
      <trkpt lat="47.18069" lon="-1.62053">
        <ele>17.938398</ele>
        <time>2019-12-08T09:07:33Z</time>
      </trkpt>
      <trkpt lat="47.18076" lon="-1.62063">
        <ele>17.594902</ele>
        <time>2019-12-08T09:07:38Z</time>
      </trkpt>
      <trkpt lat="47.18077" lon="-1.62076">
        <ele>17.66096</ele>
        <time>2019-12-08T09:07:44Z</time>
      </trkpt>
      <trkpt lat="47.18079" lon="-1.6209">
        <ele>17.837992</ele>
        <time>2019-12-08T09:07:50Z</time>
      </trkpt>
      <trkpt lat="47.1808" lon="-1.62105">
        <ele>18.194698</ele>
        <time>2019-12-08T09:07:56Z</time>
      </trkpt>
      <trkpt lat="47.18079" lon="-1.62119">
        <ele>18.115429</ele>
        <time>2019-12-08T09:08:02Z</time>
      </trkpt>
      <trkpt lat="47.18078" lon="-1.62133">
        <ele>18.04673</ele>
        <time>2019-12-08T09:08:08Z</time>
      </trkpt>
      <trkpt lat="47.18078" lon="-1.62149">
        <ele>18.0573</ele>
        <time>2019-12-08T09:08:15Z</time>
      </trkpt>
      <trkpt lat="47.18074" lon="-1.62163">
        <ele>18.310959</ele>
        <time>2019-12-08T09:08:21Z</time>
      </trkpt>
      <trkpt lat="47.18066" lon="-1.6217">
        <ele>18.691446</ele>
        <time>2019-12-08T09:08:27Z</time>
      </trkpt>
      <trkpt lat="47.18057" lon="-1.62173">
        <ele>19.492054</ele>
        <time>2019-12-08T09:08:34Z</time>
      </trkpt>
      <trkpt lat="47.18052" lon="-1.62185">
        <ele>19.536974</ele>
        <time>2019-12-08T09:08:43Z</time>
      </trkpt>
      <trkpt lat="47.18057" lon="-1.62198">
        <ele>19.367868</ele>
        <time>2019-12-08T09:08:49Z</time>
      </trkpt>
      <trkpt lat="47.18061" lon="-1.62211">
        <ele>19.264818</ele>
        <time>2019-12-08T09:08:56Z</time>
      </trkpt>
      <trkpt lat="47.18066" lon="-1.62224">
        <ele>19.344088</ele>
        <time>2019-12-08T09:09:01Z</time>
      </trkpt>
      <trkpt lat="47.18071" lon="-1.62236">
        <ele>19.209332</ele>
        <time>2019-12-08T09:09:07Z</time>
      </trkpt>
      <trkpt lat="47.18078" lon="-1.62247">
        <ele>18.842054</ele>
        <time>2019-12-08T09:09:13Z</time>
      </trkpt>
      <trkpt lat="47.18082" lon="-1.62258">
        <ele>18.612177</ele>
        <time>2019-12-08T09:09:18Z</time>
      </trkpt>
      <trkpt lat="47.18086" lon="-1.6227">
        <ele>18.524982</ele>
        <time>2019-12-08T09:09:24Z</time>
      </trkpt>
      <trkpt lat="47.18091" lon="-1.62283">
        <ele>18.358519</ele>
        <time>2019-12-08T09:09:30Z</time>
      </trkpt>
      <trkpt lat="47.18097" lon="-1.62295">
        <ele>19.272745</ele>
        <time>2019-12-08T09:09:36Z</time>
      </trkpt>
      <trkpt lat="47.18102" lon="-1.62306">
        <ele>18.495918</ele>
        <time>2019-12-08T09:09:41Z</time>
      </trkpt>
      <trkpt lat="47.18106" lon="-1.62318">
        <ele>18.44043</ele>
        <time>2019-12-08T09:09:47Z</time>
      </trkpt>
      <trkpt lat="47.18109" lon="-1.62332">
        <ele>18.543478</ele>
        <time>2019-12-08T09:09:53Z</time>
      </trkpt>
      <trkpt lat="47.18113" lon="-1.62345">
        <ele>18.992664</ele>
        <time>2019-12-08T09:09:59Z</time>
      </trkpt>
      <trkpt lat="47.18116" lon="-1.62358">
        <ele>18.540836</ele>
        <time>2019-12-08T09:10:05Z</time>
      </trkpt>
      <trkpt lat="47.18119" lon="-1.62371">
        <ele>18.448357</ele>
        <time>2019-12-08T09:10:11Z</time>
      </trkpt>
      <trkpt lat="47.18122" lon="-1.62384">
        <ele>18.281893</ele>
        <time>2019-12-08T09:10:17Z</time>
      </trkpt>
      <trkpt lat="47.18125" lon="-1.62399">
        <ele>18.400795</ele>
        <time>2019-12-08T09:10:24Z</time>
      </trkpt>
      <trkpt lat="47.18128" lon="-1.62413">
        <ele>17.769293</ele>
        <time>2019-12-08T09:10:31Z</time>
      </trkpt>
      <trkpt lat="47.18131" lon="-1.62425">
        <ele>18.041447</ele>
        <time>2019-12-08T09:10:37Z</time>
      </trkpt>
      <trkpt lat="47.18134" lon="-1.62441">
        <ele>17.851202</ele>
        <time>2019-12-08T09:10:43Z</time>
      </trkpt>
      <trkpt lat="47.18135" lon="-1.62455">
        <ele>17.885551</ele>
        <time>2019-12-08T09:10:50Z</time>
      </trkpt>
      <trkpt lat="47.18135" lon="-1.6247">
        <ele>17.602829</ele>
        <time>2019-12-08T09:10:56Z</time>
      </trkpt>
      <trkpt lat="47.18133" lon="-1.62484">
        <ele>17.586975</ele>
        <time>2019-12-08T09:11:02Z</time>
      </trkpt>
      <trkpt lat="47.18132" lon="-1.62499">
        <ele>17.306894</ele>
        <time>2019-12-08T09:11:08Z</time>
      </trkpt>
      <trkpt lat="47.18131" lon="-1.62513">
        <ele>17.38352</ele>
        <time>2019-12-08T09:11:14Z</time>
      </trkpt>
      <trkpt lat="47.18129" lon="-1.62527">
        <ele>17.531487</ele>
        <time>2019-12-08T09:11:20Z</time>
      </trkpt>
      <trkpt lat="47.18127" lon="-1.62542">
        <ele>17.507708</ele>
        <time>2019-12-08T09:11:26Z</time>
      </trkpt>
      <trkpt lat="47.18129" lon="-1.62556">
        <ele>17.370308</ele>
        <time>2019-12-08T09:11:32Z</time>
      </trkpt>
      <trkpt lat="47.18131" lon="-1.62569">
        <ele>17.478642</ele>
        <time>2019-12-08T09:11:38Z</time>
      </trkpt>
      <trkpt lat="47.18137" lon="-1.6258">
        <ele>17.346529</ele>
        <time>2019-12-08T09:11:46Z</time>
      </trkpt>
      <trkpt lat="47.18145" lon="-1.62591">
        <ele>17.227627</ele>
        <time>2019-12-08T09:11:53Z</time>
      </trkpt>
      <trkpt lat="47.18152" lon="-1.62604">
        <ele>17.148357</ele>
        <time>2019-12-08T09:11:59Z</time>
      </trkpt>
      <trkpt lat="47.18156" lon="-1.62617">
        <ele>17.145716</ele>
        <time>2019-12-08T09:12:05Z</time>
      </trkpt>
      <trkpt lat="47.1816" lon="-1.62631">
        <ele>16.65161</ele>
        <time>2019-12-08T09:12:10Z</time>
      </trkpt>
      <trkpt lat="47.18164" lon="-1.62644">
        <ele>16.836569</ele>
        <time>2019-12-08T09:12:16Z</time>
      </trkpt>
      <trkpt lat="47.18167" lon="-1.62658">
        <ele>16.482504</ele>
        <time>2019-12-08T09:12:22Z</time>
      </trkpt>
      <trkpt lat="47.18169" lon="-1.62672">
        <ele>16.5697</ele>
        <time>2019-12-08T09:12:28Z</time>
      </trkpt>
      <trkpt lat="47.18174" lon="-1.62682">
        <ele>16.955471</ele>
        <time>2019-12-08T09:12:34Z</time>
      </trkpt>
      <trkpt lat="47.18178" lon="-1.62696">
        <ele>16.849781</ele>
        <time>2019-12-08T09:12:41Z</time>
      </trkpt>
      <trkpt lat="47.1818" lon="-1.62711">
        <ele>17.309536</ele>
        <time>2019-12-08T09:12:47Z</time>
      </trkpt>
      <trkpt lat="47.18181" lon="-1.62727">
        <ele>16.881489</ele>
        <time>2019-12-08T09:12:53Z</time>
      </trkpt>
      <trkpt lat="47.18184" lon="-1.62741">
        <ele>17.256691</ele>
        <time>2019-12-08T09:12:59Z</time>
      </trkpt>
      <trkpt lat="47.18185" lon="-1.62755">
        <ele>17.298967</ele>
        <time>2019-12-08T09:13:05Z</time>
      </trkpt>
      <trkpt lat="47.18186" lon="-1.62768">
        <ele>16.522139</ele>
        <time>2019-12-08T09:13:11Z</time>
      </trkpt>
      <trkpt lat="47.18188" lon="-1.62781">
        <ele>16.548561</ele>
        <time>2019-12-08T09:13:16Z</time>
      </trkpt>
      <trkpt lat="47.18189" lon="-1.62795">
        <ele>16.730879</ele>
        <time>2019-12-08T09:13:22Z</time>
      </trkpt>
      <trkpt lat="47.18191" lon="-1.6281">
        <ele>16.929049</ele>
        <time>2019-12-08T09:13:28Z</time>
      </trkpt>
      <trkpt lat="47.1819" lon="-1.62825">
        <ele>16.839212</ele>
        <time>2019-12-08T09:13:36Z</time>
      </trkpt>
      <trkpt lat="47.18192" lon="-1.62839">
        <ele>16.812788</ele>
        <time>2019-12-08T09:13:42Z</time>
      </trkpt>
      <trkpt lat="47.18193" lon="-1.62853">
        <ele>16.619904</ele>
        <time>2019-12-08T09:13:48Z</time>
      </trkpt>
      <trkpt lat="47.18195" lon="-1.62868">
        <ele>16.55913</ele>
        <time>2019-12-08T09:13:54Z</time>
      </trkpt>
      <trkpt lat="47.18196" lon="-1.62883">
        <ele>16.464008</ele>
        <time>2019-12-08T09:14:00Z</time>
      </trkpt>
      <trkpt lat="47.18196" lon="-1.62899">
        <ele>15.961977</ele>
        <time>2019-12-08T09:14:06Z</time>
      </trkpt>
      <trkpt lat="47.18193" lon="-1.62913">
        <ele>16.350391</ele>
        <time>2019-12-08T09:14:12Z</time>
      </trkpt>
      <trkpt lat="47.18192" lon="-1.62927">
        <ele>16.297546</ele>
        <time>2019-12-08T09:14:18Z</time>
      </trkpt>
      <trkpt lat="47.18189" lon="-1.6294">
        <ele>16.741447</ele>
        <time>2019-12-08T09:14:24Z</time>
      </trkpt>
      <trkpt lat="47.18185" lon="-1.62953">
        <ele>16.086163</ele>
        <time>2019-12-08T09:14:30Z</time>
      </trkpt>
      <trkpt lat="47.18185" lon="-1.62968">
        <ele>16.648968</ele>
        <time>2019-12-08T09:14:37Z</time>
      </trkpt>
      <trkpt lat="47.18184" lon="-1.62981">
        <ele>16.08088</ele>
        <time>2019-12-08T09:14:43Z</time>
      </trkpt>
      <trkpt lat="47.18186" lon="-1.62997">
        <ele>16.421732</ele>
        <time>2019-12-08T09:14:49Z</time>
      </trkpt>
      <trkpt lat="47.18187" lon="-1.63011">
        <ele>16.403236</ele>
        <time>2019-12-08T09:14:55Z</time>
      </trkpt>
      <trkpt lat="47.18186" lon="-1.63027">
        <ele>16.21035</ele>
        <time>2019-12-08T09:15:02Z</time>
      </trkpt>
      <trkpt lat="47.18185" lon="-1.63042">
        <ele>16.109943</ele>
        <time>2019-12-08T09:15:08Z</time>
      </trkpt>
      <trkpt lat="47.18184" lon="-1.63056">
        <ele>16.252626</ele>
        <time>2019-12-08T09:15:14Z</time>
      </trkpt>
      <trkpt lat="47.18184" lon="-1.63071">
        <ele>16.368887</ele>
        <time>2019-12-08T09:15:20Z</time>
      </trkpt>
      <trkpt lat="47.18181" lon="-1.63083">
        <ele>16.218277</ele>
        <time>2019-12-08T09:15:26Z</time>
      </trkpt>
      <trkpt lat="47.18179" lon="-1.63096">
        <ele>16.286976</ele>
        <time>2019-12-08T09:15:32Z</time>
      </trkpt>
      <trkpt lat="47.18176" lon="-1.6311">
        <ele>15.901204</ele>
        <time>2019-12-08T09:15:38Z</time>
      </trkpt>
      <trkpt lat="47.18171" lon="-1.63121">
        <ele>15.86157</ele>
        <time>2019-12-08T09:15:44Z</time>
      </trkpt>
      <trkpt lat="47.18166" lon="-1.63134">
        <ele>15.774375</ele>
        <time>2019-12-08T09:15:51Z</time>
      </trkpt>
      <trkpt lat="47.18161" lon="-1.63148">
        <ele>16.033318</ele>
        <time>2019-12-08T09:15:57Z</time>
      </trkpt>
      <trkpt lat="47.18156" lon="-1.63161">
        <ele>15.866855</ele>
        <time>2019-12-08T09:16:03Z</time>
      </trkpt>
      <trkpt lat="47.18153" lon="-1.63174">
        <ele>16.096733</ele>
        <time>2019-12-08T09:16:09Z</time>
      </trkpt>
      <trkpt lat="47.1815" lon="-1.63187">
        <ele>16.194496</ele>
        <time>2019-12-08T09:16:15Z</time>
      </trkpt>
      <trkpt lat="47.18148" lon="-1.63202">
        <ele>16.3821</ele>
        <time>2019-12-08T09:16:22Z</time>
      </trkpt>
      <trkpt lat="47.18144" lon="-1.63215">
        <ele>16.413805</ele>
        <time>2019-12-08T09:16:28Z</time>
      </trkpt>
      <trkpt lat="47.18139" lon="-1.63227">
        <ele>16.67539</ele>
        <time>2019-12-08T09:16:34Z</time>
      </trkpt>
      <trkpt lat="47.18136" lon="-1.63239">
        <ele>16.715025</ele>
        <time>2019-12-08T09:16:39Z</time>
      </trkpt>
      <trkpt lat="47.18131" lon="-1.63252">
        <ele>16.305471</ele>
        <time>2019-12-08T09:16:45Z</time>
      </trkpt>
      <trkpt lat="47.18129" lon="-1.63266">
        <ele>16.823359</ele>
        <time>2019-12-08T09:16:51Z</time>
      </trkpt>
      <trkpt lat="47.18126" lon="-1.63281">
        <ele>16.65161</ele>
        <time>2019-12-08T09:16:57Z</time>
      </trkpt>
      <trkpt lat="47.18116" lon="-1.63282">
        <ele>16.86035</ele>
        <time>2019-12-08T09:17:04Z</time>
      </trkpt>
      <trkpt lat="47.18109" lon="-1.63272">
        <ele>17.29104</ele>
        <time>2019-12-08T09:17:10Z</time>
      </trkpt>
      <trkpt lat="47.18101" lon="-1.63264">
        <ele>17.679455</ele>
        <time>2019-12-08T09:17:18Z</time>
      </trkpt>
      <trkpt lat="47.18094" lon="-1.63253">
        <ele>18.17356</ele>
        <time>2019-12-08T09:17:26Z</time>
      </trkpt>
      <trkpt lat="47.18087" lon="-1.63244">
        <ele>18.786568</ele>
        <time>2019-12-08T09:17:33Z</time>
      </trkpt>
      <trkpt lat="47.18081" lon="-1.63234">
        <ele>19.616241</ele>
        <time>2019-12-08T09:17:39Z</time>
      </trkpt>
      <trkpt lat="47.18074" lon="-1.63224">
        <ele>20.065428</ele>
        <time>2019-12-08T09:17:45Z</time>
      </trkpt>
      <trkpt lat="47.18069" lon="-1.63212">
        <ele>20.472338</ele>
        <time>2019-12-08T09:17:50Z</time>
      </trkpt>
      <trkpt lat="47.18067" lon="-1.63199">
        <ele>20.958517</ele>
        <time>2019-12-08T09:17:57Z</time>
      </trkpt>
      <trkpt lat="47.18062" lon="-1.63186">
        <ele>21.547743</ele>
        <time>2019-12-08T09:18:03Z</time>
      </trkpt>
      <trkpt lat="47.18057" lon="-1.63174">
        <ele>21.875385</ele>
        <time>2019-12-08T09:18:09Z</time>
      </trkpt>
      <trkpt lat="47.18051" lon="-1.63163">
        <ele>22.424978</ele>
        <time>2019-12-08T09:18:15Z</time>
      </trkpt>
      <trkpt lat="47.18046" lon="-1.6315">
        <ele>23.479246</ele>
        <time>2019-12-08T09:18:22Z</time>
      </trkpt>
      <trkpt lat="47.1804" lon="-1.63139">
        <ele>23.91522</ele>
        <time>2019-12-08T09:18:27Z</time>
      </trkpt>
      <trkpt lat="47.18035" lon="-1.63128">
        <ele>24.345911</ele>
        <time>2019-12-08T09:18:34Z</time>
      </trkpt>
      <trkpt lat="47.18029" lon="-1.63117">
        <ele>24.943066</ele>
        <time>2019-12-08T09:18:42Z</time>
      </trkpt>
      <trkpt lat="47.18022" lon="-1.63108">
        <ele>25.640625</ele>
        <time>2019-12-08T09:18:48Z</time>
      </trkpt>
      <trkpt lat="47.18016" lon="-1.63097">
        <ele>26.250992</ele>
        <time>2019-12-08T09:18:54Z</time>
      </trkpt>
      <trkpt lat="47.1801" lon="-1.63085">
        <ele>26.930056</ele>
        <time>2019-12-08T09:19:01Z</time>
      </trkpt>
      <trkpt lat="47.18004" lon="-1.63075">
        <ele>27.10973</ele>
        <time>2019-12-08T09:19:08Z</time>
      </trkpt>
      <trkpt lat="47.17998" lon="-1.63064">
        <ele>27.490217</ele>
        <time>2019-12-08T09:19:14Z</time>
      </trkpt>
      <trkpt lat="47.17993" lon="-1.63052">
        <ele>28.206274</ele>
        <time>2019-12-08T09:19:20Z</time>
      </trkpt>
      <trkpt lat="47.17986" lon="-1.63041">
        <ele>28.391233</ele>
        <time>2019-12-08T09:19:27Z</time>
      </trkpt>
      <trkpt lat="47.17979" lon="-1.6303">
        <ele>29.057087</ele>
        <time>2019-12-08T09:19:33Z</time>
      </trkpt>
      <trkpt lat="47.17974" lon="-1.63018">
        <ele>29.32924</ele>
        <time>2019-12-08T09:19:39Z</time>
      </trkpt>
      <trkpt lat="47.1797" lon="-1.63005">
        <ele>29.50363</ele>
        <time>2019-12-08T09:19:46Z</time>
      </trkpt>
      <trkpt lat="47.17965" lon="-1.62994">
        <ele>29.627817</ele>
        <time>2019-12-08T09:19:52Z</time>
      </trkpt>
      <trkpt lat="47.17959" lon="-1.62982">
        <ele>29.675379</ele>
        <time>2019-12-08T09:19:58Z</time>
      </trkpt>
      <trkpt lat="47.17954" lon="-1.6297">
        <ele>29.960743</ele>
        <time>2019-12-08T09:20:05Z</time>
      </trkpt>
      <trkpt lat="47.17947" lon="-1.62959">
        <ele>29.860338</ele>
        <time>2019-12-08T09:20:12Z</time>
      </trkpt>
      <trkpt lat="47.17941" lon="-1.62948">
        <ele>30.07172</ele>
        <time>2019-12-08T09:20:18Z</time>
      </trkpt>
      <trkpt lat="47.17934" lon="-1.62937">
        <ele>30.3518</ele>
        <time>2019-12-08T09:20:25Z</time>
      </trkpt>
      <trkpt lat="47.17926" lon="-1.62927">
        <ele>30.396719</ele>
        <time>2019-12-08T09:20:31Z</time>
      </trkpt>
      <trkpt lat="47.17919" lon="-1.62919">
        <ele>31.281881</ele>
        <time>2019-12-08T09:20:37Z</time>
      </trkpt>
      <trkpt lat="47.17912" lon="-1.62908">
        <ele>31.133913</ele>
        <time>2019-12-08T09:20:44Z</time>
      </trkpt>
      <trkpt lat="47.17903" lon="-1.62902">
        <ele>31.186758</ele>
        <time>2019-12-08T09:20:49Z</time>
      </trkpt>
      <trkpt lat="47.17894" lon="-1.62895">
        <ele>31.062572</ele>
        <time>2019-12-08T09:20:55Z</time>
      </trkpt>
      <trkpt lat="47.17887" lon="-1.62887">
        <ele>30.592247</ele>
        <time>2019-12-08T09:21:02Z</time>
      </trkpt>
      <trkpt lat="47.1788" lon="-1.62878">
        <ele>30.47863</ele>
        <time>2019-12-08T09:21:09Z</time>
      </trkpt>
      <trkpt lat="47.17872" lon="-1.62884">
        <ele>29.696516</ele>
        <time>2019-12-08T09:21:15Z</time>
      </trkpt>
      <trkpt lat="47.17863" lon="-1.62885">
        <ele>29.807491</ele>
        <time>2019-12-08T09:21:21Z</time>
      </trkpt>
      <trkpt lat="47.17856" lon="-1.62874">
        <ele>30.113997</ele>
        <time>2019-12-08T09:21:28Z</time>
      </trkpt>
      <trkpt lat="47.1785" lon="-1.62863">
        <ele>30.520906</ele>
        <time>2019-12-08T09:21:34Z</time>
      </trkpt>
      <trkpt lat="47.17844" lon="-1.62851">
        <ele>30.822124</ele>
        <time>2019-12-08T09:21:40Z</time>
      </trkpt>
      <trkpt lat="47.17838" lon="-1.6284">
        <ele>30.565825</ele>
        <time>2019-12-08T09:21:46Z</time>
      </trkpt>
      <trkpt lat="47.17828" lon="-1.62843">
        <ele>30.721718</ele>
        <time>2019-12-08T09:21:53Z</time>
      </trkpt>
      <trkpt lat="47.17822" lon="-1.62854">
        <ele>30.94367</ele>
        <time>2019-12-08T09:21:59Z</time>
      </trkpt>
      <trkpt lat="47.17816" lon="-1.62863">
        <ele>30.542044</ele>
        <time>2019-12-08T09:22:04Z</time>
      </trkpt>
      <trkpt lat="47.17807" lon="-1.62872">
        <ele>30.254036</ele>
        <time>2019-12-08T09:22:10Z</time>
      </trkpt>
      <trkpt lat="47.17799" lon="-1.62879">
        <ele>28.829851</ele>
        <time>2019-12-08T09:22:17Z</time>
      </trkpt>
      <trkpt lat="47.17789" lon="-1.62884">
        <ele>28.54977</ele>
        <time>2019-12-08T09:22:23Z</time>
      </trkpt>
      <trkpt lat="47.17781" lon="-1.62892">
        <ele>27.772942</ele>
        <time>2019-12-08T09:22:36Z</time>
      </trkpt>
      <trkpt lat="47.17772" lon="-1.62901">
        <ele>26.462374</ele>
        <time>2019-12-08T09:22:42Z</time>
      </trkpt>
      <trkpt lat="47.17763" lon="-1.62907">
        <ele>25.151806</ele>
        <time>2019-12-08T09:22:49Z</time>
      </trkpt>
      <trkpt lat="47.17753" lon="-1.6291">
        <ele>22.850384</ele>
        <time>2019-12-08T09:22:57Z</time>
      </trkpt>
      <trkpt lat="47.17743" lon="-1.62911">
        <ele>20.504045</ele>
        <time>2019-12-08T09:23:05Z</time>
      </trkpt>
      <trkpt lat="47.17736" lon="-1.62921">
        <ele>19.70608</ele>
        <time>2019-12-08T09:23:11Z</time>
      </trkpt>
      <trkpt lat="47.17735" lon="-1.62935">
        <ele>18.992664</ele>
        <time>2019-12-08T09:23:18Z</time>
      </trkpt>
      <trkpt lat="47.17725" lon="-1.62938">
        <ele>18.836771</ele>
        <time>2019-12-08T09:23:25Z</time>
      </trkpt>
      <trkpt lat="47.17718" lon="-1.62929">
        <ele>18.968884</ele>
        <time>2019-12-08T09:23:33Z</time>
      </trkpt>
      <trkpt lat="47.17712" lon="-1.62917">
        <ele>19.423355</ele>
        <time>2019-12-08T09:23:39Z</time>
      </trkpt>
      <trkpt lat="47.17705" lon="-1.62908">
        <ele>19.721931</ele>
        <time>2019-12-08T09:23:46Z</time>
      </trkpt>
      <trkpt lat="47.177" lon="-1.62897">
        <ele>19.8012</ele>
        <time>2019-12-08T09:23:52Z</time>
      </trkpt>
      <trkpt lat="47.17697" lon="-1.62882">
        <ele>19.809128</ele>
        <time>2019-12-08T09:23:58Z</time>
      </trkpt>
      <trkpt lat="47.17691" lon="-1.62871">
        <ele>19.595104</ele>
        <time>2019-12-08T09:24:04Z</time>
      </trkpt>
      <trkpt lat="47.17682" lon="-1.62863">
        <ele>19.600388</ele>
        <time>2019-12-08T09:24:11Z</time>
      </trkpt>
      <trkpt lat="47.17674" lon="-1.62853">
        <ele>19.854046</ele>
        <time>2019-12-08T09:24:18Z</time>
      </trkpt>
      <trkpt lat="47.1767" lon="-1.62839">
        <ele>19.774778</ele>
        <time>2019-12-08T09:24:25Z</time>
      </trkpt>
      <trkpt lat="47.17664" lon="-1.62829">
        <ele>20.181688</ele>
        <time>2019-12-08T09:24:31Z</time>
      </trkpt>
      <trkpt lat="47.1766" lon="-1.62816">
        <ele>20.53311</ele>
        <time>2019-12-08T09:24:38Z</time>
      </trkpt>
      <trkpt lat="47.17653" lon="-1.62824">
        <ele>20.152622</ele>
        <time>2019-12-08T09:24:49Z</time>
      </trkpt>
      <trkpt lat="47.1765" lon="-1.62837">
        <ele>20.430061</ele>
        <time>2019-12-08T09:24:58Z</time>
      </trkpt>
      <trkpt lat="47.1765" lon="-1.62852">
        <ele>20.107704</ele>
        <time>2019-12-08T09:25:05Z</time>
      </trkpt>
      <trkpt lat="47.17648" lon="-1.62867">
        <ele>19.92803</ele>
        <time>2019-12-08T09:25:10Z</time>
      </trkpt>
      <trkpt lat="47.17647" lon="-1.6288">
        <ele>19.880468</ele>
        <time>2019-12-08T09:25:17Z</time>
      </trkpt>
      <trkpt lat="47.1765" lon="-1.62895">
        <ele>19.954453</ele>
        <time>2019-12-08T09:25:24Z</time>
      </trkpt>
      <trkpt lat="47.17651" lon="-1.62908">
        <ele>20.168476</ele>
        <time>2019-12-08T09:25:30Z</time>
      </trkpt>
      <trkpt lat="47.17656" lon="-1.6292">
        <ele>20.041647</ele>
        <time>2019-12-08T09:25:37Z</time>
      </trkpt>
      <trkpt lat="47.17661" lon="-1.62931">
        <ele>19.943884</ele>
        <time>2019-12-08T09:25:44Z</time>
      </trkpt>
      <trkpt lat="47.17662" lon="-1.62946">
        <ele>20.74185</ele>
        <time>2019-12-08T09:25:50Z</time>
      </trkpt>
      <trkpt lat="47.17659" lon="-1.6296">
        <ele>20.250387</ele>
        <time>2019-12-08T09:25:56Z</time>
      </trkpt>
      <trkpt lat="47.17652" lon="-1.62969">
        <ele>20.504045</ele>
        <time>2019-12-08T09:26:02Z</time>
      </trkpt>
      <trkpt lat="47.17651" lon="-1.62983">
        <ele>20.92681</ele>
        <time>2019-12-08T09:26:10Z</time>
      </trkpt>
      <trkpt lat="47.17651" lon="-1.62998">
        <ele>21.595304</ele>
        <time>2019-12-08T09:26:16Z</time>
      </trkpt>
      <trkpt lat="47.17653" lon="-1.63012">
        <ele>22.17132</ele>
        <time>2019-12-08T09:26:22Z</time>
      </trkpt>
      <trkpt lat="47.17653" lon="-1.63026">
        <ele>22.525385</ele>
        <time>2019-12-08T09:26:29Z</time>
      </trkpt>
      <trkpt lat="47.17645" lon="-1.63034">
        <ele>23.275791</ele>
        <time>2019-12-08T09:26:36Z</time>
      </trkpt>
      <trkpt lat="47.17635" lon="-1.63034">
        <ele>23.254652</ele>
        <time>2019-12-08T09:26:44Z</time>
      </trkpt>
      <trkpt lat="47.17627" lon="-1.63044">
        <ele>24.105465</ele>
        <time>2019-12-08T09:26:52Z</time>
      </trkpt>
      <trkpt lat="47.17622" lon="-1.63055">
        <ele>25.439814</ele>
        <time>2019-12-08T09:27:06Z</time>
      </trkpt>
      <trkpt lat="47.17619" lon="-1.63068">
        <ele>26.414812</ele>
        <time>2019-12-08T09:27:13Z</time>
      </trkpt>
      <trkpt lat="47.17616" lon="-1.63083">
        <ele>27.059526</ele>
        <time>2019-12-08T09:27:21Z</time>
      </trkpt>
      <trkpt lat="47.17614" lon="-1.63098">
        <ele>27.957901</ele>
        <time>2019-12-08T09:27:30Z</time>
      </trkpt>
      <trkpt lat="47.17613" lon="-1.63111">
        <ele>28.222128</ele>
        <time>2019-12-08T09:27:37Z</time>
      </trkpt>
      <trkpt lat="47.17611" lon="-1.63125">
        <ele>28.602615</ele>
        <time>2019-12-08T09:27:44Z</time>
      </trkpt>
      <trkpt lat="47.17609" lon="-1.6314">
        <ele>29.094078</ele>
        <time>2019-12-08T09:27:50Z</time>
      </trkpt>
      <trkpt lat="47.17609" lon="-1.63154">
        <ele>29.292248</ele>
        <time>2019-12-08T09:27:58Z</time>
      </trkpt>
      <trkpt lat="47.17605" lon="-1.63166">
        <ele>29.545906</ele>
        <time>2019-12-08T09:28:07Z</time>
      </trkpt>
      <trkpt lat="47.17607" lon="-1.63181">
        <ele>29.300175</ele>
        <time>2019-12-08T09:28:14Z</time>
      </trkpt>
      <trkpt lat="47.17607" lon="-1.63195">
        <ele>29.437574</ele>
        <time>2019-12-08T09:28:20Z</time>
      </trkpt>
      <trkpt lat="47.17606" lon="-1.63209">
        <ele>29.638386</ele>
        <time>2019-12-08T09:28:26Z</time>
      </trkpt>
      <trkpt lat="47.17604" lon="-1.63223">
        <ele>29.836557</ele>
        <time>2019-12-08T09:28:33Z</time>
      </trkpt>
      <trkpt lat="47.17603" lon="-1.63237">
        <ele>30.288385</ele>
        <time>2019-12-08T09:28:40Z</time>
      </trkpt>
      <trkpt lat="47.176" lon="-1.6325">
        <ele>30.626596</ele>
        <time>2019-12-08T09:28:46Z</time>
      </trkpt>
      <trkpt lat="47.17601" lon="-1.63264">
        <ele>30.650377</ele>
        <time>2019-12-08T09:28:55Z</time>
      </trkpt>
      <trkpt lat="47.17602" lon="-1.63278">
        <ele>30.576393</ele>
        <time>2019-12-08T09:29:03Z</time>
      </trkpt>
      <trkpt lat="47.17604" lon="-1.63292">
        <ele>29.012167</ele>
        <time>2019-12-08T09:29:14Z</time>
      </trkpt>
      <trkpt lat="47.17614" lon="-1.63295">
        <ele>28.594688</ele>
        <time>2019-12-08T09:29:21Z</time>
      </trkpt>
      <trkpt lat="47.17624" lon="-1.63296">
        <ele>28.137575</ele>
        <time>2019-12-08T09:29:27Z</time>
      </trkpt>
      <trkpt lat="47.17633" lon="-1.63293">
        <ele>27.683104</ele>
        <time>2019-12-08T09:29:35Z</time>
      </trkpt>
      <trkpt lat="47.17641" lon="-1.63301">
        <ele>27.685745</ele>
        <time>2019-12-08T09:29:41Z</time>
      </trkpt>
      <trkpt lat="47.17643" lon="-1.63315">
        <ele>28.193062</ele>
        <time>2019-12-08T09:29:48Z</time>
      </trkpt>
      <trkpt lat="47.17644" lon="-1.63328">
        <ele>28.417656</ele>
        <time>2019-12-08T09:29:54Z</time>
      </trkpt>
      <trkpt lat="47.17643" lon="-1.63342">
        <ele>28.91176</ele>
        <time>2019-12-08T09:30:01Z</time>
      </trkpt>
      <trkpt lat="47.17642" lon="-1.63356">
        <ele>29.659525</ele>
        <time>2019-12-08T09:30:11Z</time>
      </trkpt>
      <trkpt lat="47.17645" lon="-1.6337">
        <ele>28.62111</ele>
        <time>2019-12-08T09:30:21Z</time>
      </trkpt>
      <trkpt lat="47.17645" lon="-1.63384">
        <ele>28.325176</ele>
        <time>2019-12-08T09:30:28Z</time>
      </trkpt>
      <trkpt lat="47.17644" lon="-1.63398">
        <ele>28.462574</ele>
        <time>2019-12-08T09:30:35Z</time>
      </trkpt>
      <trkpt lat="47.17638" lon="-1.63409">
        <ele>28.673956</ele>
        <time>2019-12-08T09:30:43Z</time>
      </trkpt>
      <trkpt lat="47.17635" lon="-1.63423">
        <ele>28.594688</ele>
        <time>2019-12-08T09:30:50Z</time>
      </trkpt>
      <trkpt lat="47.17631" lon="-1.63435">
        <ele>29.228834</ele>
        <time>2019-12-08T09:30:58Z</time>
      </trkpt>
      <trkpt lat="47.1763" lon="-1.6345">
        <ele>29.53798</ele>
        <time>2019-12-08T09:31:06Z</time>
      </trkpt>
      <trkpt lat="47.17635" lon="-1.63462">
        <ele>29.242044</ele>
        <time>2019-12-08T09:31:15Z</time>
      </trkpt>
      <trkpt lat="47.17639" lon="-1.63474">
        <ele>29.97924</ele>
        <time>2019-12-08T09:31:24Z</time>
      </trkpt>
      <trkpt lat="47.17645" lon="-1.63484">
        <ele>30.58432</ele>
        <time>2019-12-08T09:31:32Z</time>
      </trkpt>
      <trkpt lat="47.1765" lon="-1.63496">
        <ele>31.295092</ele>
        <time>2019-12-08T09:31:41Z</time>
      </trkpt>
      <trkpt lat="47.17656" lon="-1.63506">
        <ele>31.300377</ele>
        <time>2019-12-08T09:31:51Z</time>
      </trkpt>
      <trkpt lat="47.17663" lon="-1.63516">
        <ele>31.62802</ele>
        <time>2019-12-08T09:32:00Z</time>
      </trkpt>
      <trkpt lat="47.17671" lon="-1.63526">
        <ele>31.480051</ele>
        <time>2019-12-08T09:32:09Z</time>
      </trkpt>
      <trkpt lat="47.17678" lon="-1.63536">
        <ele>31.564604</ele>
        <time>2019-12-08T09:32:17Z</time>
      </trkpt>
      <trkpt lat="47.17672" lon="-1.63548">
        <ele>32.951797</ele>
        <time>2019-12-08T09:32:27Z</time>
      </trkpt>
      <trkpt lat="47.17667" lon="-1.63559">
        <ele>33.297935</ele>
        <time>2019-12-08T09:32:36Z</time>
      </trkpt>
      <trkpt lat="47.17659" lon="-1.63567">
        <ele>34.037773</ele>
        <time>2019-12-08T09:32:45Z</time>
      </trkpt>
      <trkpt lat="47.17651" lon="-1.63572">
        <ele>34.880657</ele>
        <time>2019-12-08T09:32:54Z</time>
      </trkpt>
      <trkpt lat="47.17643" lon="-1.63583">
        <ele>35.83452</ele>
        <time>2019-12-08T09:33:02Z</time>
      </trkpt>
      <trkpt lat="47.17634" lon="-1.63588">
        <ele>36.20972</ele>
        <time>2019-12-08T09:33:09Z</time>
      </trkpt>
      <trkpt lat="47.17627" lon="-1.63597">
        <ele>36.785736</ele>
        <time>2019-12-08T09:33:17Z</time>
      </trkpt>
      <trkpt lat="47.17619" lon="-1.63607">
        <ele>36.96013</ele>
        <time>2019-12-08T09:33:26Z</time>
      </trkpt>
      <trkpt lat="47.17612" lon="-1.63616">
        <ele>37.425167</ele>
        <time>2019-12-08T09:33:34Z</time>
      </trkpt>
      <trkpt lat="47.17606" lon="-1.63627">
        <ele>37.813583</ele>
        <time>2019-12-08T09:33:41Z</time>
      </trkpt>
      <trkpt lat="47.17601" lon="-1.63639">
        <ele>38.199352</ele>
        <time>2019-12-08T09:33:48Z</time>
      </trkpt>
      <trkpt lat="47.17595" lon="-1.63649">
        <ele>38.423946</ele>
        <time>2019-12-08T09:33:56Z</time>
      </trkpt>
      <trkpt lat="47.17588" lon="-1.63659">
        <ele>38.40281</ele>
        <time>2019-12-08T09:34:05Z</time>
      </trkpt>
      <trkpt lat="47.17586" lon="-1.63673">
        <ele>38.701385</ele>
        <time>2019-12-08T09:34:13Z</time>
      </trkpt>
      <trkpt lat="47.17582" lon="-1.63685">
        <ele>38.492645</ele>
        <time>2019-12-08T09:34:22Z</time>
      </trkpt>
      <trkpt lat="47.17578" lon="-1.63698">
        <ele>38.10159</ele>
        <time>2019-12-08T09:34:29Z</time>
      </trkpt>
      <trkpt lat="47.17574" lon="-1.63712">
        <ele>37.816223</ele>
        <time>2019-12-08T09:34:36Z</time>
      </trkpt>
      <trkpt lat="47.17571" lon="-1.63724">
        <ele>37.45423</ele>
        <time>2019-12-08T09:34:44Z</time>
      </trkpt>
      <trkpt lat="47.17566" lon="-1.63738">
        <ele>36.727608</ele>
        <time>2019-12-08T09:34:52Z</time>
      </trkpt>
      <trkpt lat="47.17561" lon="-1.6375">
        <ele>36.15952</ele>
        <time>2019-12-08T09:35:00Z</time>
      </trkpt>
      <trkpt lat="47.17553" lon="-1.63759">
        <ele>35.71562</ele>
        <time>2019-12-08T09:35:08Z</time>
      </trkpt>
      <trkpt lat="47.17545" lon="-1.63769">
        <ele>35.35891</ele>
        <time>2019-12-08T09:35:17Z</time>
      </trkpt>
      <trkpt lat="47.17539" lon="-1.63779">
        <ele>35.102608</ele>
        <time>2019-12-08T09:35:25Z</time>
      </trkpt>
      <trkpt lat="47.17531" lon="-1.63788">
        <ele>34.981064</ele>
        <time>2019-12-08T09:35:33Z</time>
      </trkpt>
      <trkpt lat="47.17523" lon="-1.63794">
        <ele>35.633705</ele>
        <time>2019-12-08T09:35:44Z</time>
      </trkpt>
      <trkpt lat="47.17516" lon="-1.63802">
        <ele>35.924355</ele>
        <time>2019-12-08T09:35:54Z</time>
      </trkpt>
      <trkpt lat="47.17508" lon="-1.63814">
        <ele>35.863583</ele>
        <time>2019-12-08T09:36:03Z</time>
      </trkpt>
      <trkpt lat="47.17501" lon="-1.63824">
        <ele>36.016834</ele>
        <time>2019-12-08T09:36:09Z</time>
      </trkpt>
      <trkpt lat="47.17495" lon="-1.63836">
        <ele>35.979843</ele>
        <time>2019-12-08T09:36:18Z</time>
      </trkpt>
      <trkpt lat="47.17489" lon="-1.63848">
        <ele>35.66277</ele>
        <time>2019-12-08T09:36:27Z</time>
      </trkpt>
      <trkpt lat="47.17482" lon="-1.63858">
        <ele>35.855656</ele>
        <time>2019-12-08T09:36:33Z</time>
      </trkpt>
      <trkpt lat="47.17477" lon="-1.63871">
        <ele>35.216225</ele>
        <time>2019-12-08T09:36:43Z</time>
      </trkpt>
      <trkpt lat="47.17472" lon="-1.63883">
        <ele>35.377407</ele>
        <time>2019-12-08T09:36:51Z</time>
      </trkpt>
      <trkpt lat="47.17466" lon="-1.63894">
        <ele>34.92822</ele>
        <time>2019-12-08T09:36:59Z</time>
      </trkpt>
      <trkpt lat="47.17464" lon="-1.63907">
        <ele>34.31257</ele>
        <time>2019-12-08T09:37:06Z</time>
      </trkpt>
      <trkpt lat="47.17465" lon="-1.63922">
        <ele>33.551594</ele>
        <time>2019-12-08T09:37:13Z</time>
      </trkpt>
      <trkpt lat="47.17462" lon="-1.63935">
        <ele>32.806473</ele>
        <time>2019-12-08T09:37:21Z</time>
      </trkpt>
      <trkpt lat="47.17456" lon="-1.63946">
        <ele>32.33879</ele>
        <time>2019-12-08T09:37:25Z</time>
      </trkpt>
      <trkpt lat="47.1746" lon="-1.63964">
        <ele>31.509117</ele>
        <time>2019-12-08T09:37:34Z</time>
      </trkpt>
      <trkpt lat="47.17463" lon="-1.63981">
        <ele>29.567045</ele>
        <time>2019-12-08T09:37:46Z</time>
      </trkpt>
      <trkpt lat="47.17466" lon="-1.63994">
        <ele>28.708305</ele>
        <time>2019-12-08T09:37:53Z</time>
      </trkpt>
      <trkpt lat="47.17466" lon="-1.64008">
        <ele>28.325176</ele>
        <time>2019-12-08T09:38:00Z</time>
      </trkpt>
      <trkpt lat="47.17468" lon="-1.64013">
        <ele>28.121721</ele>
        <time>2019-12-08T09:38:02Z</time>
      </trkpt>
      <trkpt lat="47.17468" lon="-1.64013">
        <ele>28.121721</ele>
        <time>2019-12-08T09:38:02Z</time>
      </trkpt>
      <trkpt lat="47.17474" lon="-1.64061">
        <ele>26.306479</ele>
        <time>2019-12-08T09:49:46Z</time>
      </trkpt>
      <trkpt lat="47.1748" lon="-1.64071">
        <ele>27.48229</ele>
        <time>2019-12-08T09:49:59Z</time>
      </trkpt>
      <trkpt lat="47.17475" lon="-1.64082">
        <ele>27.57477</ele>
        <time>2019-12-08T09:50:12Z</time>
      </trkpt>
      <trkpt lat="47.1747" lon="-1.64094">
        <ele>27.944689</ele>
        <time>2019-12-08T09:50:19Z</time>
      </trkpt>
      <trkpt lat="47.17466" lon="-1.64108">
        <ele>29.104647</ele>
        <time>2019-12-08T09:50:27Z</time>
      </trkpt>
      <trkpt lat="47.17464" lon="-1.64122">
        <ele>30.251394</ele>
        <time>2019-12-08T09:50:34Z</time>
      </trkpt>
      <trkpt lat="47.17461" lon="-1.64134">
        <ele>30.460133</ele>
        <time>2019-12-08T09:50:42Z</time>
      </trkpt>
      <trkpt lat="47.17458" lon="-1.64148">
        <ele>31.231678</ele>
        <time>2019-12-08T09:50:49Z</time>
      </trkpt>
      <trkpt lat="47.17455" lon="-1.64162">
        <ele>32.18818</ele>
        <time>2019-12-08T09:50:56Z</time>
      </trkpt>
      <trkpt lat="47.1745" lon="-1.64174">
        <ele>32.7457</ele>
        <time>2019-12-08T09:51:03Z</time>
      </trkpt>
      <trkpt lat="47.17444" lon="-1.64185">
        <ele>33.247734</ele>
        <time>2019-12-08T09:51:11Z</time>
      </trkpt>
      <trkpt lat="47.1744" lon="-1.64198">
        <ele>33.831676</ele>
        <time>2019-12-08T09:51:16Z</time>
      </trkpt>
      <trkpt lat="47.17438" lon="-1.64211">
        <ele>34.00342</ele>
        <time>2019-12-08T09:51:22Z</time>
      </trkpt>
      <trkpt lat="47.17434" lon="-1.64223">
        <ele>34.124966</ele>
        <time>2019-12-08T09:51:29Z</time>
      </trkpt>
      <trkpt lat="47.17433" lon="-1.64237">
        <ele>33.90566</ele>
        <time>2019-12-08T09:51:37Z</time>
      </trkpt>
      <trkpt lat="47.17432" lon="-1.6425">
        <ele>34.471104</ele>
        <time>2019-12-08T09:51:45Z</time>
      </trkpt>
      <trkpt lat="47.17432" lon="-1.64263">
        <ele>34.87009</ele>
        <time>2019-12-08T09:51:52Z</time>
      </trkpt>
      <trkpt lat="47.17431" lon="-1.64276">
        <ele>35.551796</ele>
        <time>2019-12-08T09:52:00Z</time>
      </trkpt>
      <trkpt lat="47.17431" lon="-1.6429">
        <ele>35.4144</ele>
        <time>2019-12-08T09:52:11Z</time>
      </trkpt>
      <trkpt lat="47.17429" lon="-1.64304">
        <ele>35.147526</ele>
        <time>2019-12-08T09:52:18Z</time>
      </trkpt>
      <trkpt lat="47.17427" lon="-1.64318">
        <ele>35.17395</ele>
        <time>2019-12-08T09:52:24Z</time>
      </trkpt>
      <trkpt lat="47.17429" lon="-1.64333">
        <ele>34.12761</ele>
        <time>2019-12-08T09:52:32Z</time>
      </trkpt>
      <trkpt lat="47.17438" lon="-1.64337">
        <ele>32.740417</ele>
        <time>2019-12-08T09:52:40Z</time>
      </trkpt>
      <trkpt lat="47.17437" lon="-1.64351">
        <ele>32.386353</ele>
        <time>2019-12-08T09:52:50Z</time>
      </trkpt>
      <trkpt lat="47.17431" lon="-1.64365">
        <ele>32.70871</ele>
        <time>2019-12-08T09:52:59Z</time>
      </trkpt>
      <trkpt lat="47.17427" lon="-1.64379">
        <ele>32.785336</ele>
        <time>2019-12-08T09:53:05Z</time>
      </trkpt>
      <trkpt lat="47.17426" lon="-1.64393">
        <ele>32.655865</ele>
        <time>2019-12-08T09:53:13Z</time>
      </trkpt>
      <trkpt lat="47.17424" lon="-1.64407">
        <ele>32.275375</ele>
        <time>2019-12-08T09:53:19Z</time>
      </trkpt>
      <trkpt lat="47.17421" lon="-1.64421">
        <ele>32.600376</ele>
        <time>2019-12-08T09:53:25Z</time>
      </trkpt>
      <trkpt lat="47.17419" lon="-1.64435">
        <ele>32.695496</ele>
        <time>2019-12-08T09:53:31Z</time>
      </trkpt>
      <trkpt lat="47.17419" lon="-1.64448">
        <ele>33.366634</ele>
        <time>2019-12-08T09:53:38Z</time>
      </trkpt>
      <trkpt lat="47.17413" lon="-1.64461">
        <ele>33.068058</ele>
        <time>2019-12-08T09:53:44Z</time>
      </trkpt>
      <trkpt lat="47.17407" lon="-1.64473">
        <ele>32.94387</ele>
        <time>2019-12-08T09:53:50Z</time>
      </trkpt>
      <trkpt lat="47.17402" lon="-1.64485">
        <ele>33.60444</ele>
        <time>2019-12-08T09:53:56Z</time>
      </trkpt>
      <trkpt lat="47.17396" lon="-1.64495">
        <ele>33.593872</ele>
        <time>2019-12-08T09:54:02Z</time>
      </trkpt>
      <trkpt lat="47.17391" lon="-1.64508">
        <ele>33.47761</ele>
        <time>2019-12-08T09:54:09Z</time>
      </trkpt>
      <trkpt lat="47.17385" lon="-1.64519">
        <ele>33.36399</ele>
        <time>2019-12-08T09:54:15Z</time>
      </trkpt>
      <trkpt lat="47.17381" lon="-1.64532">
        <ele>33.305862</ele>
        <time>2019-12-08T09:54:22Z</time>
      </trkpt>
      <trkpt lat="47.17376" lon="-1.64544">
        <ele>33.728626</ele>
        <time>2019-12-08T09:54:30Z</time>
      </trkpt>
      <trkpt lat="47.17373" lon="-1.64557">
        <ele>33.7894</ele>
        <time>2019-12-08T09:54:37Z</time>
      </trkpt>
      <trkpt lat="47.17363" lon="-1.6456">
        <ele>34.148746</ele>
        <time>2019-12-08T09:54:47Z</time>
      </trkpt>
      <trkpt lat="47.17354" lon="-1.64566">
        <ele>34.82253</ele>
        <time>2019-12-08T09:54:55Z</time>
      </trkpt>
      <trkpt lat="47.17346" lon="-1.64573">
        <ele>35.726185</ele>
        <time>2019-12-08T09:55:07Z</time>
      </trkpt>
      <trkpt lat="47.17337" lon="-1.64566">
        <ele>35.818665</ele>
        <time>2019-12-08T09:55:20Z</time>
      </trkpt>
      <trkpt lat="47.1733" lon="-1.64557">
        <ele>35.874153</ele>
        <time>2019-12-08T09:55:28Z</time>
      </trkpt>
      <trkpt lat="47.17321" lon="-1.64547">
        <ele>36.098747</ele>
        <time>2019-12-08T09:55:34Z</time>
      </trkpt>
      <trkpt lat="47.17315" lon="-1.64537">
        <ele>36.191227</ele>
        <time>2019-12-08T09:55:41Z</time>
      </trkpt>
      <trkpt lat="47.17308" lon="-1.64524">
        <ele>36.2335</ele>
        <time>2019-12-08T09:55:48Z</time>
      </trkpt>
      <trkpt lat="47.17308" lon="-1.64509">
        <ele>36.048542</ele>
        <time>2019-12-08T09:55:55Z</time>
      </trkpt>
      <trkpt lat="47.17309" lon="-1.64494">
        <ele>35.69712</ele>
        <time>2019-12-08T09:56:02Z</time>
      </trkpt>
      <trkpt lat="47.17309" lon="-1.64481">
        <ele>36.188583</ele>
        <time>2019-12-08T09:56:08Z</time>
      </trkpt>
      <trkpt lat="47.1731" lon="-1.64466">
        <ele>36.492443</ele>
        <time>2019-12-08T09:56:14Z</time>
      </trkpt>
      <trkpt lat="47.1731" lon="-1.64452">
        <ele>36.32598</ele>
        <time>2019-12-08T09:56:20Z</time>
      </trkpt>
      <trkpt lat="47.17309" lon="-1.64437">
        <ele>36.701183</ele>
        <time>2019-12-08T09:56:27Z</time>
      </trkpt>
      <trkpt lat="47.17309" lon="-1.64423">
        <ele>36.759315</ele>
        <time>2019-12-08T09:56:33Z</time>
      </trkpt>
      <trkpt lat="47.17311" lon="-1.64409">
        <ele>36.896713</ele>
        <time>2019-12-08T09:56:40Z</time>
      </trkpt>
      <trkpt lat="47.1731" lon="-1.64394">
        <ele>37.012974</ele>
        <time>2019-12-08T09:56:48Z</time>
      </trkpt>
      <trkpt lat="47.17308" lon="-1.64381">
        <ele>36.875576</ele>
        <time>2019-12-08T09:56:54Z</time>
      </trkpt>
      <trkpt lat="47.17304" lon="-1.64367">
        <ele>37.29834</ele>
        <time>2019-12-08T09:57:00Z</time>
      </trkpt>
      <trkpt lat="47.17303" lon="-1.64352">
        <ele>37.45159</ele>
        <time>2019-12-08T09:57:06Z</time>
      </trkpt>
      <trkpt lat="47.17302" lon="-1.64338">
        <ele>37.744884</ele>
        <time>2019-12-08T09:57:13Z</time>
      </trkpt>
      <trkpt lat="47.173" lon="-1.64324">
        <ele>37.567852</ele>
        <time>2019-12-08T09:57:19Z</time>
      </trkpt>
      <trkpt lat="47.17298" lon="-1.64309">
        <ele>37.91663</ele>
        <time>2019-12-08T09:57:26Z</time>
      </trkpt>
      <trkpt lat="47.17292" lon="-1.64296">
        <ele>37.803013</ele>
        <time>2019-12-08T09:57:32Z</time>
      </trkpt>
      <trkpt lat="47.17287" lon="-1.64283">
        <ele>37.596916</ele>
        <time>2019-12-08T09:57:38Z</time>
      </trkpt>
      <trkpt lat="47.17281" lon="-1.64271">
        <ele>37.789803</ele>
        <time>2019-12-08T09:57:44Z</time>
      </trkpt>
      <trkpt lat="47.17274" lon="-1.6426">
        <ele>37.966835</ele>
        <time>2019-12-08T09:57:50Z</time>
      </trkpt>
      <trkpt lat="47.1727" lon="-1.64248">
        <ele>37.631264</ele>
        <time>2019-12-08T09:57:56Z</time>
      </trkpt>
      <trkpt lat="47.17264" lon="-1.64237">
        <ele>37.932484</ele>
        <time>2019-12-08T09:58:03Z</time>
      </trkpt>
      <trkpt lat="47.17255" lon="-1.64228">
        <ele>37.8585</ele>
        <time>2019-12-08T09:58:10Z</time>
      </trkpt>
      <trkpt lat="47.17246" lon="-1.64225">
        <ele>38.352604</ele>
        <time>2019-12-08T09:58:16Z</time>
      </trkpt>
      <trkpt lat="47.17238" lon="-1.64221">
        <ele>37.758095</ele>
        <time>2019-12-08T09:58:22Z</time>
      </trkpt>
      <trkpt lat="47.17227" lon="-1.6422">
        <ele>38.1835</ele>
        <time>2019-12-08T09:58:28Z</time>
      </trkpt>
      <trkpt lat="47.17217" lon="-1.64219">
        <ele>38.133297</ele>
        <time>2019-12-08T09:58:35Z</time>
      </trkpt>
      <trkpt lat="47.17208" lon="-1.64217">
        <ele>38.421307</ele>
        <time>2019-12-08T09:58:41Z</time>
      </trkpt>
      <trkpt lat="47.17199" lon="-1.64217">
        <ele>38.733093</ele>
        <time>2019-12-08T09:58:47Z</time>
      </trkpt>
      <trkpt lat="47.17189" lon="-1.64214">
        <ele>38.733093</ele>
        <time>2019-12-08T09:58:54Z</time>
      </trkpt>
      <trkpt lat="47.17179" lon="-1.64213">
        <ele>38.63797</ele>
        <time>2019-12-08T09:59:00Z</time>
      </trkpt>
      <trkpt lat="47.1717" lon="-1.6421">
        <ele>38.434517</ele>
        <time>2019-12-08T09:59:06Z</time>
      </trkpt>
      <trkpt lat="47.1716" lon="-1.64211">
        <ele>38.75423</ele>
        <time>2019-12-08T09:59:12Z</time>
      </trkpt>
      <trkpt lat="47.1715" lon="-1.64209">
        <ele>38.714596</ele>
        <time>2019-12-08T09:59:20Z</time>
      </trkpt>
      <trkpt lat="47.17141" lon="-1.64203">
        <ele>38.500572</ele>
        <time>2019-12-08T09:59:25Z</time>
      </trkpt>
      <trkpt lat="47.17133" lon="-1.64197">
        <ele>38.92598</ele>
        <time>2019-12-08T09:59:31Z</time>
      </trkpt>
      <trkpt lat="47.17123" lon="-1.64195">
        <ele>39.10037</ele>
        <time>2019-12-08T09:59:38Z</time>
      </trkpt>
      <trkpt lat="47.17115" lon="-1.642">
        <ele>39.367237</ele>
        <time>2019-12-08T09:59:49Z</time>
      </trkpt>
      <trkpt lat="47.17115" lon="-1.642">
        <ele>39.367237</ele>
        <time>2019-12-08T09:59:49Z</time>
      </trkpt>
      <trkpt lat="47.17117" lon="-1.64187">
        <ele>38.989395</ele>
        <time>2019-12-08T09:59:59Z</time>
      </trkpt>
      <trkpt lat="47.17118" lon="-1.64172">
        <ele>39.422726</ele>
        <time>2019-12-08T10:00:06Z</time>
      </trkpt>
      <trkpt lat="47.1712" lon="-1.64159">
        <ele>39.232483</ele>
        <time>2019-12-08T10:00:13Z</time>
      </trkpt>
      <trkpt lat="47.1712" lon="-1.64144">
        <ele>39.385735</ele>
        <time>2019-12-08T10:00:20Z</time>
      </trkpt>
      <trkpt lat="47.17123" lon="-1.64129">
        <ele>39.784718</ele>
        <time>2019-12-08T10:00:28Z</time>
      </trkpt>
      <trkpt lat="47.17124" lon="-1.64114">
        <ele>39.713375</ele>
        <time>2019-12-08T10:00:34Z</time>
      </trkpt>
      <trkpt lat="47.17126" lon="-1.64099">
        <ele>39.63675</ele>
        <time>2019-12-08T10:00:41Z</time>
      </trkpt>
      <trkpt lat="47.17129" lon="-1.64085">
        <ele>39.6711</ele>
        <time>2019-12-08T10:00:48Z</time>
      </trkpt>
      <trkpt lat="47.17129" lon="-1.64071">
        <ele>39.69488</ele>
        <time>2019-12-08T10:00:54Z</time>
      </trkpt>
      <trkpt lat="47.1713" lon="-1.64058">
        <ele>39.396305</ele>
        <time>2019-12-08T10:01:01Z</time>
      </trkpt>
      <trkpt lat="47.17133" lon="-1.64041">
        <ele>39.42537</ele>
        <time>2019-12-08T10:01:08Z</time>
      </trkpt>
      <trkpt lat="47.17133" lon="-1.64026">
        <ele>39.63411</ele>
        <time>2019-12-08T10:01:16Z</time>
      </trkpt>
      <trkpt lat="47.17134" lon="-1.64013">
        <ele>40.00931</ele>
        <time>2019-12-08T10:01:22Z</time>
      </trkpt>
      <trkpt lat="47.17137" lon="-1.63998">
        <ele>39.61033</ele>
        <time>2019-12-08T10:01:30Z</time>
      </trkpt>
      <trkpt lat="47.17138" lon="-1.63985">
        <ele>39.70281</ele>
        <time>2019-12-08T10:01:37Z</time>
      </trkpt>
      <trkpt lat="47.17131" lon="-1.63975">
        <ele>39.61297</ele>
        <time>2019-12-08T10:01:46Z</time>
      </trkpt>
      <trkpt lat="47.17127" lon="-1.63961">
        <ele>39.45179</ele>
        <time>2019-12-08T10:01:53Z</time>
      </trkpt>
      <trkpt lat="47.17122" lon="-1.63949">
        <ele>39.62354</ele>
        <time>2019-12-08T10:02:00Z</time>
      </trkpt>
      <trkpt lat="47.17116" lon="-1.63939">
        <ele>39.385735</ele>
        <time>2019-12-08T10:02:05Z</time>
      </trkpt>
      <trkpt lat="47.17112" lon="-1.63927">
        <ele>39.718662</ele>
        <time>2019-12-08T10:02:11Z</time>
      </trkpt>
      <trkpt lat="47.17108" lon="-1.63913">
        <ele>39.40687</ele>
        <time>2019-12-08T10:02:17Z</time>
      </trkpt>
      <trkpt lat="47.17105" lon="-1.639">
        <ele>39.523132</ele>
        <time>2019-12-08T10:02:23Z</time>
      </trkpt>
      <trkpt lat="47.171" lon="-1.63887">
        <ele>39.533703</ele>
        <time>2019-12-08T10:02:30Z</time>
      </trkpt>
      <trkpt lat="47.17095" lon="-1.63874">
        <ele>39.668457</ele>
        <time>2019-12-08T10:02:37Z</time>
      </trkpt>
      <trkpt lat="47.17091" lon="-1.63862">
        <ele>39.692238</ele>
        <time>2019-12-08T10:02:43Z</time>
      </trkpt>
      <trkpt lat="47.17086" lon="-1.6385">
        <ele>39.594475</ele>
        <time>2019-12-08T10:02:49Z</time>
      </trkpt>
      <trkpt lat="47.17082" lon="-1.63838">
        <ele>39.56805</ele>
        <time>2019-12-08T10:02:55Z</time>
      </trkpt>
      <trkpt lat="47.17078" lon="-1.63825">
        <ele>39.62354</ele>
        <time>2019-12-08T10:03:01Z</time>
      </trkpt>
      <trkpt lat="47.17073" lon="-1.63812">
        <ele>39.478214</ele>
        <time>2019-12-08T10:03:08Z</time>
      </trkpt>
      <trkpt lat="47.17069" lon="-1.63799">
        <ele>39.710735</ele>
        <time>2019-12-08T10:03:14Z</time>
      </trkpt>
      <trkpt lat="47.17063" lon="-1.63784">
        <ele>39.538986</ele>
        <time>2019-12-08T10:03:20Z</time>
      </trkpt>
      <trkpt lat="47.17057" lon="-1.63772">
        <ele>39.235126</ele>
        <time>2019-12-08T10:03:28Z</time>
      </trkpt>
      <trkpt lat="47.17049" lon="-1.63763">
        <ele>39.163784</ele>
        <time>2019-12-08T10:03:34Z</time>
      </trkpt>
      <trkpt lat="47.1704" lon="-1.63757">
        <ele>39.14793</ele>
        <time>2019-12-08T10:03:41Z</time>
      </trkpt>
      <trkpt lat="47.1703" lon="-1.63753">
        <ele>39.41216</ele>
        <time>2019-12-08T10:03:47Z</time>
      </trkpt>
      <trkpt lat="47.1702" lon="-1.63748">
        <ele>39.549557</ele>
        <time>2019-12-08T10:03:55Z</time>
      </trkpt>
      <trkpt lat="47.17011" lon="-1.63745">
        <ele>39.443863</ele>
        <time>2019-12-08T10:04:01Z</time>
      </trkpt>
      <trkpt lat="47.17002" lon="-1.63742">
        <ele>39.398945</ele>
        <time>2019-12-08T10:04:07Z</time>
      </trkpt>
      <trkpt lat="47.16992" lon="-1.63739">
        <ele>39.583904</ele>
        <time>2019-12-08T10:04:14Z</time>
      </trkpt>
      <trkpt lat="47.16983" lon="-1.63734">
        <ele>39.169067</ele>
        <time>2019-12-08T10:04:21Z</time>
      </trkpt>
      <trkpt lat="47.16974" lon="-1.63731">
        <ele>39.330246</ele>
        <time>2019-12-08T10:04:27Z</time>
      </trkpt>
      <trkpt lat="47.16964" lon="-1.63728">
        <ele>39.324963</ele>
        <time>2019-12-08T10:04:34Z</time>
      </trkpt>
      <trkpt lat="47.16955" lon="-1.63723">
        <ele>38.955044</ele>
        <time>2019-12-08T10:04:40Z</time>
      </trkpt>
      <trkpt lat="47.16945" lon="-1.63719">
        <ele>39.311752</ele>
        <time>2019-12-08T10:04:47Z</time>
      </trkpt>
      <trkpt lat="47.16936" lon="-1.63716">
        <ele>39.40159</ele>
        <time>2019-12-08T10:04:53Z</time>
      </trkpt>
      <trkpt lat="47.16927" lon="-1.63712">
        <ele>39.19813</ele>
        <time>2019-12-08T10:04:59Z</time>
      </trkpt>
      <trkpt lat="47.16918" lon="-1.63708">
        <ele>39.454433</ele>
        <time>2019-12-08T10:05:05Z</time>
      </trkpt>
      <trkpt lat="47.16909" lon="-1.63706">
        <ele>39.47557</ele>
        <time>2019-12-08T10:05:11Z</time>
      </trkpt>
      <trkpt lat="47.16899" lon="-1.63703">
        <ele>39.586548</ele>
        <time>2019-12-08T10:05:17Z</time>
      </trkpt>
      <trkpt lat="47.16889" lon="-1.637">
        <ele>39.697525</ele>
        <time>2019-12-08T10:05:24Z</time>
      </trkpt>
      <trkpt lat="47.1688" lon="-1.63697">
        <ele>39.92476</ele>
        <time>2019-12-08T10:05:30Z</time>
      </trkpt>
      <trkpt lat="47.16871" lon="-1.63693">
        <ele>39.66053</ele>
        <time>2019-12-08T10:05:37Z</time>
      </trkpt>
      <trkpt lat="47.16861" lon="-1.6369">
        <ele>39.731873</ele>
        <time>2019-12-08T10:05:43Z</time>
      </trkpt>
      <trkpt lat="47.16851" lon="-1.63686">
        <ele>39.686954</ele>
        <time>2019-12-08T10:05:50Z</time>
      </trkpt>
      <trkpt lat="47.16842" lon="-1.63683">
        <ele>39.710735</ele>
        <time>2019-12-08T10:05:57Z</time>
      </trkpt>
      <trkpt lat="47.16832" lon="-1.63679">
        <ele>39.70809</ele>
        <time>2019-12-08T10:06:03Z</time>
      </trkpt>
      <trkpt lat="47.16823" lon="-1.63675">
        <ele>39.782074</ele>
        <time>2019-12-08T10:06:09Z</time>
      </trkpt>
      <trkpt lat="47.16814" lon="-1.63671">
        <ele>39.441223</ele>
        <time>2019-12-08T10:06:15Z</time>
      </trkpt>
      <trkpt lat="47.16805" lon="-1.63668">
        <ele>39.44915</ele>
        <time>2019-12-08T10:06:21Z</time>
      </trkpt>
      <trkpt lat="47.16795" lon="-1.63665">
        <ele>39.021103</ele>
        <time>2019-12-08T10:06:27Z</time>
      </trkpt>
      <trkpt lat="47.16787" lon="-1.63662">
        <ele>39.41216</ele>
        <time>2019-12-08T10:06:33Z</time>
      </trkpt>
      <trkpt lat="47.16778" lon="-1.63657">
        <ele>39.335533</ele>
        <time>2019-12-08T10:06:39Z</time>
      </trkpt>
      <trkpt lat="47.16768" lon="-1.63654">
        <ele>39.26419</ele>
        <time>2019-12-08T10:06:45Z</time>
      </trkpt>
      <trkpt lat="47.16758" lon="-1.63652">
        <ele>38.561344</ele>
        <time>2019-12-08T10:06:51Z</time>
      </trkpt>
      <trkpt lat="47.16749" lon="-1.63649">
        <ele>38.8335</ele>
        <time>2019-12-08T10:06:57Z</time>
      </trkpt>
      <trkpt lat="47.16739" lon="-1.63648">
        <ele>38.918053</ele>
        <time>2019-12-08T10:07:04Z</time>
      </trkpt>
      <trkpt lat="47.1673" lon="-1.63645">
        <ele>38.780655</ele>
        <time>2019-12-08T10:07:10Z</time>
      </trkpt>
      <trkpt lat="47.16722" lon="-1.63639">
        <ele>38.548134</ele>
        <time>2019-12-08T10:07:16Z</time>
      </trkpt>
      <trkpt lat="47.16713" lon="-1.63636">
        <ele>38.460938</ele>
        <time>2019-12-08T10:07:22Z</time>
      </trkpt>
      <trkpt lat="47.16704" lon="-1.63631">
        <ele>38.423946</ele>
        <time>2019-12-08T10:07:29Z</time>
      </trkpt>
      <trkpt lat="47.16696" lon="-1.63625">
        <ele>38.48208</ele>
        <time>2019-12-08T10:07:34Z</time>
      </trkpt>
      <trkpt lat="47.16688" lon="-1.63616">
        <ele>38.157078</ele>
        <time>2019-12-08T10:07:40Z</time>
      </trkpt>
      <trkpt lat="47.16681" lon="-1.63607">
        <ele>38.201996</ele>
        <time>2019-12-08T10:07:46Z</time>
      </trkpt>
      <trkpt lat="47.16673" lon="-1.63598">
        <ele>37.549355</ele>
        <time>2019-12-08T10:07:53Z</time>
      </trkpt>
      <trkpt lat="47.16666" lon="-1.63587">
        <ele>37.710533</ele>
        <time>2019-12-08T10:08:00Z</time>
      </trkpt>
      <trkpt lat="47.16659" lon="-1.63577">
        <ele>37.385532</ele>
        <time>2019-12-08T10:08:07Z</time>
      </trkpt>
      <trkpt lat="47.16651" lon="-1.63569">
        <ele>37.647118</ele>
        <time>2019-12-08T10:08:14Z</time>
      </trkpt>
      <trkpt lat="47.16642" lon="-1.63571">
        <ele>37.401386</ele>
        <time>2019-12-08T10:08:20Z</time>
      </trkpt>
      <trkpt lat="47.16633" lon="-1.63576">
        <ele>37.998543</ele>
        <time>2019-12-08T10:08:26Z</time>
      </trkpt>
      <trkpt lat="47.16623" lon="-1.63575">
        <ele>37.86907</ele>
        <time>2019-12-08T10:08:33Z</time>
      </trkpt>
      <trkpt lat="47.16613" lon="-1.63575">
        <ele>37.72903</ele>
        <time>2019-12-08T10:08:40Z</time>
      </trkpt>
      <trkpt lat="47.16604" lon="-1.63574">
        <ele>37.734314</ele>
        <time>2019-12-08T10:08:46Z</time>
      </trkpt>
      <trkpt lat="47.16594" lon="-1.63574">
        <ele>37.54671</ele>
        <time>2019-12-08T10:08:53Z</time>
      </trkpt>
      <trkpt lat="47.16584" lon="-1.63574">
        <ele>37.78716</ele>
        <time>2019-12-08T10:09:01Z</time>
      </trkpt>
      <trkpt lat="47.16575" lon="-1.63573">
        <ele>37.78716</ele>
        <time>2019-12-08T10:09:07Z</time>
      </trkpt>
      <trkpt lat="47.16564" lon="-1.63572">
        <ele>37.314194</ele>
        <time>2019-12-08T10:09:13Z</time>
      </trkpt>
      <trkpt lat="47.16554" lon="-1.6357">
        <ele>37.049965</ele>
        <time>2019-12-08T10:09:19Z</time>
      </trkpt>
      <trkpt lat="47.16544" lon="-1.63569">
        <ele>37.129234</ele>
        <time>2019-12-08T10:09:25Z</time>
      </trkpt>
      <trkpt lat="47.16535" lon="-1.63568">
        <ele>37.131874</ele>
        <time>2019-12-08T10:09:30Z</time>
      </trkpt>
      <trkpt lat="47.16525" lon="-1.63565">
        <ele>37.211143</ele>
        <time>2019-12-08T10:09:37Z</time>
      </trkpt>
      <trkpt lat="47.16515" lon="-1.63563">
        <ele>37.525574</ele>
        <time>2019-12-08T10:09:43Z</time>
      </trkpt>
      <trkpt lat="47.16505" lon="-1.63561">
        <ele>38.051388</ele>
        <time>2019-12-08T10:09:50Z</time>
      </trkpt>
      <trkpt lat="47.16495" lon="-1.63559">
        <ele>38.933907</ele>
        <time>2019-12-08T10:09:57Z</time>
      </trkpt>
      <trkpt lat="47.16486" lon="-1.63557">
        <ele>39.478214</ele>
        <time>2019-12-08T10:10:03Z</time>
      </trkpt>
      <trkpt lat="47.16476" lon="-1.63556">
        <ele>39.501995</ele>
        <time>2019-12-08T10:10:10Z</time>
      </trkpt>
      <trkpt lat="47.16466" lon="-1.63555">
        <ele>40.487564</ele>
        <time>2019-12-08T10:10:17Z</time>
      </trkpt>
      <trkpt lat="47.16456" lon="-1.63555">
        <ele>40.72008</ele>
        <time>2019-12-08T10:10:24Z</time>
      </trkpt>
      <trkpt lat="47.16446" lon="-1.63554">
        <ele>41.13756</ele>
        <time>2019-12-08T10:10:31Z</time>
      </trkpt>
      <trkpt lat="47.16436" lon="-1.63554">
        <ele>41.13228</ele>
        <time>2019-12-08T10:10:37Z</time>
      </trkpt>
      <trkpt lat="47.16427" lon="-1.63553">
        <ele>40.99752</ele>
        <time>2019-12-08T10:10:43Z</time>
      </trkpt>
      <trkpt lat="47.16417" lon="-1.63553">
        <ele>40.593254</ele>
        <time>2019-12-08T10:10:50Z</time>
      </trkpt>
      <trkpt lat="47.16407" lon="-1.63551">
        <ele>40.257687</ele>
        <time>2019-12-08T10:10:56Z</time>
      </trkpt>
      <trkpt lat="47.16397" lon="-1.63551">
        <ele>39.990814</ele>
        <time>2019-12-08T10:11:03Z</time>
      </trkpt>
      <trkpt lat="47.16388" lon="-1.6355">
        <ele>39.19549</ele>
        <time>2019-12-08T10:11:10Z</time>
      </trkpt>
      <trkpt lat="47.16377" lon="-1.63549">
        <ele>38.55606</ele>
        <time>2019-12-08T10:11:16Z</time>
      </trkpt>
      <trkpt lat="47.16368" lon="-1.63551">
        <ele>38.061954</ele>
        <time>2019-12-08T10:11:22Z</time>
      </trkpt>
      <trkpt lat="47.16358" lon="-1.63552">
        <ele>37.641834</ele>
        <time>2019-12-08T10:11:29Z</time>
      </trkpt>
      <trkpt lat="47.16349" lon="-1.63555">
        <ele>36.83594</ele>
        <time>2019-12-08T10:11:35Z</time>
      </trkpt>
      <trkpt lat="47.1635" lon="-1.63568">
        <ele>36.40525</ele>
        <time>2019-12-08T10:11:46Z</time>
      </trkpt>
      <trkpt lat="47.1636" lon="-1.63567">
        <ele>36.413177</ele>
        <time>2019-12-08T10:11:52Z</time>
      </trkpt>
      <trkpt lat="47.1637" lon="-1.63564">
        <ele>36.399963</ele>
        <time>2019-12-08T10:11:58Z</time>
      </trkpt>
      <trkpt lat="47.16379" lon="-1.63565">
        <ele>36.447525</ele>
        <time>2019-12-08T10:12:04Z</time>
      </trkpt>
      <trkpt lat="47.16388" lon="-1.63568">
        <ele>36.508297</ele>
        <time>2019-12-08T10:12:09Z</time>
      </trkpt>
      <trkpt lat="47.16398" lon="-1.63572">
        <ele>36.49773</ele>
        <time>2019-12-08T10:12:16Z</time>
      </trkpt>
      <trkpt lat="47.16404" lon="-1.63582">
        <ele>36.175373</ele>
        <time>2019-12-08T10:12:22Z</time>
      </trkpt>
      <trkpt lat="47.16409" lon="-1.63596">
        <ele>36.468666</ele>
        <time>2019-12-08T10:12:28Z</time>
      </trkpt>
      <trkpt lat="47.16414" lon="-1.63608">
        <ele>36.54265</ele>
        <time>2019-12-08T10:12:34Z</time>
      </trkpt>
      <trkpt lat="47.1642" lon="-1.63621">
        <ele>36.65098</ele>
        <time>2019-12-08T10:12:41Z</time>
      </trkpt>
      <trkpt lat="47.16425" lon="-1.63633">
        <ele>36.938988</ele>
        <time>2019-12-08T10:12:47Z</time>
      </trkpt>
      <trkpt lat="47.1643" lon="-1.63646">
        <ele>36.90728</ele>
        <time>2019-12-08T10:12:53Z</time>
      </trkpt>
      <trkpt lat="47.16435" lon="-1.63657">
        <ele>36.43696</ele>
        <time>2019-12-08T10:12:59Z</time>
      </trkpt>
      <trkpt lat="47.16439" lon="-1.63669">
        <ele>36.632484</ele>
        <time>2019-12-08T10:13:05Z</time>
      </trkpt>
      <trkpt lat="47.16445" lon="-1.63681">
        <ele>36.611347</ele>
        <time>2019-12-08T10:13:11Z</time>
      </trkpt>
      <trkpt lat="47.16449" lon="-1.63693">
        <ele>36.84915</ele>
        <time>2019-12-08T10:13:17Z</time>
      </trkpt>
      <trkpt lat="47.16452" lon="-1.63707">
        <ele>36.865005</ele>
        <time>2019-12-08T10:13:23Z</time>
      </trkpt>
      <trkpt lat="47.16456" lon="-1.6372">
        <ele>36.878216</ele>
        <time>2019-12-08T10:13:29Z</time>
      </trkpt>
      <trkpt lat="47.1646" lon="-1.63734">
        <ele>36.946915</ele>
        <time>2019-12-08T10:13:37Z</time>
      </trkpt>
      <trkpt lat="47.16466" lon="-1.63747">
        <ele>36.933704</ele>
        <time>2019-12-08T10:13:44Z</time>
      </trkpt>
      <trkpt lat="47.16469" lon="-1.63761">
        <ele>37.147728</ele>
        <time>2019-12-08T10:13:50Z</time>
      </trkpt>
      <trkpt lat="47.16474" lon="-1.63775">
        <ele>36.99712</ele>
        <time>2019-12-08T10:13:57Z</time>
      </trkpt>
      <trkpt lat="47.16478" lon="-1.63787">
        <ele>36.84915</ele>
        <time>2019-12-08T10:14:03Z</time>
      </trkpt>
      <trkpt lat="47.16483" lon="-1.63799">
        <ele>36.80159</ele>
        <time>2019-12-08T10:14:09Z</time>
      </trkpt>
      <trkpt lat="47.16488" lon="-1.63812">
        <ele>37.13716</ele>
        <time>2019-12-08T10:14:16Z</time>
      </trkpt>
      <trkpt lat="47.16491" lon="-1.63826">
        <ele>37.012974</ele>
        <time>2019-12-08T10:14:22Z</time>
      </trkpt>
      <trkpt lat="47.16494" lon="-1.63839">
        <ele>37.28777</ele>
        <time>2019-12-08T10:14:28Z</time>
      </trkpt>
      <trkpt lat="47.16498" lon="-1.63853">
        <ele>37.316833</ele>
        <time>2019-12-08T10:14:34Z</time>
      </trkpt>
      <trkpt lat="47.16502" lon="-1.63865">
        <ele>37.73167</ele>
        <time>2019-12-08T10:14:40Z</time>
      </trkpt>
      <trkpt lat="47.16507" lon="-1.63879">
        <ele>37.176792</ele>
        <time>2019-12-08T10:14:47Z</time>
      </trkpt>
      <trkpt lat="47.16512" lon="-1.63893">
        <ele>37.512363</ele>
        <time>2019-12-08T10:14:54Z</time>
      </trkpt>
      <trkpt lat="47.16517" lon="-1.63904">
        <ele>37.739597</ele>
        <time>2019-12-08T10:15:00Z</time>
      </trkpt>
      <trkpt lat="47.16522" lon="-1.63917">
        <ele>37.84793</ele>
        <time>2019-12-08T10:15:07Z</time>
      </trkpt>
      <trkpt lat="47.16526" lon="-1.63929">
        <ele>37.538784</ele>
        <time>2019-12-08T10:15:13Z</time>
      </trkpt>
      <trkpt lat="47.16531" lon="-1.63941">
        <ele>37.61541</ele>
        <time>2019-12-08T10:15:19Z</time>
      </trkpt>
      <trkpt lat="47.16536" lon="-1.63953">
        <ele>37.68411</ele>
        <time>2019-12-08T10:15:26Z</time>
      </trkpt>
      <trkpt lat="47.16541" lon="-1.63965">
        <ele>37.36704</ele>
        <time>2019-12-08T10:15:33Z</time>
      </trkpt>
      <trkpt lat="47.16547" lon="-1.63977">
        <ele>37.66033</ele>
        <time>2019-12-08T10:15:39Z</time>
      </trkpt>
      <trkpt lat="47.16551" lon="-1.63991">
        <ele>37.097527</ele>
        <time>2019-12-08T10:15:46Z</time>
      </trkpt>
      <trkpt lat="47.16555" lon="-1.64002">
        <ele>37.517647</ele>
        <time>2019-12-08T10:15:51Z</time>
      </trkpt>
      <trkpt lat="47.16561" lon="-1.64015">
        <ele>37.515003</ele>
        <time>2019-12-08T10:15:58Z</time>
      </trkpt>
      <trkpt lat="47.16564" lon="-1.64028">
        <ele>37.604843</ele>
        <time>2019-12-08T10:16:04Z</time>
      </trkpt>
      <trkpt lat="47.16562" lon="-1.64042">
        <ele>37.081673</ele>
        <time>2019-12-08T10:16:10Z</time>
      </trkpt>
      <trkpt lat="47.16557" lon="-1.64056">
        <ele>37.071102</ele>
        <time>2019-12-08T10:16:15Z</time>
      </trkpt>
      <trkpt lat="47.16552" lon="-1.64068">
        <ele>37.41724</ele>
        <time>2019-12-08T10:16:20Z</time>
      </trkpt>
      <trkpt lat="47.16547" lon="-1.64079">
        <ele>37.480656</ele>
        <time>2019-12-08T10:16:26Z</time>
      </trkpt>
      <trkpt lat="47.16541" lon="-1.64091">
        <ele>37.57049</ele>
        <time>2019-12-08T10:16:32Z</time>
      </trkpt>
      <trkpt lat="47.16534" lon="-1.64101">
        <ele>37.507076</ele>
        <time>2019-12-08T10:16:39Z</time>
      </trkpt>
      <trkpt lat="47.16531" lon="-1.64113">
        <ele>37.129234</ele>
        <time>2019-12-08T10:16:45Z</time>
      </trkpt>
      <trkpt lat="47.16525" lon="-1.64124">
        <ele>37.224354</ele>
        <time>2019-12-08T10:16:51Z</time>
      </trkpt>
      <trkpt lat="47.1652" lon="-1.64136">
        <ele>36.75667</ele>
        <time>2019-12-08T10:16:58Z</time>
      </trkpt>
      <trkpt lat="47.16515" lon="-1.64148">
        <ele>36.508297</ele>
        <time>2019-12-08T10:17:05Z</time>
      </trkpt>
      <trkpt lat="47.16509" lon="-1.6416">
        <ele>36.098747</ele>
        <time>2019-12-08T10:17:12Z</time>
      </trkpt>
      <trkpt lat="47.16502" lon="-1.64172">
        <ele>36.690617</ele>
        <time>2019-12-08T10:17:19Z</time>
      </trkpt>
      <trkpt lat="47.16496" lon="-1.64183">
        <ele>36.45017</ele>
        <time>2019-12-08T10:17:26Z</time>
      </trkpt>
      <trkpt lat="47.16491" lon="-1.64195">
        <ele>36.518867</ele>
        <time>2019-12-08T10:17:32Z</time>
      </trkpt>
      <trkpt lat="47.16485" lon="-1.64206">
        <ele>36.47395</ele>
        <time>2019-12-08T10:17:38Z</time>
      </trkpt>
      <trkpt lat="47.1648" lon="-1.64218">
        <ele>36.349762</ele>
        <time>2019-12-08T10:17:44Z</time>
      </trkpt>
      <trkpt lat="47.16475" lon="-1.6423">
        <ele>36.215008</ele>
        <time>2019-12-08T10:17:50Z</time>
      </trkpt>
      <trkpt lat="47.1647" lon="-1.64241">
        <ele>36.33919</ele>
        <time>2019-12-08T10:17:56Z</time>
      </trkpt>
      <trkpt lat="47.16466" lon="-1.64255">
        <ele>36.362972</ele>
        <time>2019-12-08T10:18:03Z</time>
      </trkpt>
      <trkpt lat="47.16471" lon="-1.64267">
        <ele>36.489803</ele>
        <time>2019-12-08T10:18:09Z</time>
      </trkpt>
      <trkpt lat="47.16477" lon="-1.64278">
        <ele>36.286346</ele>
        <time>2019-12-08T10:18:15Z</time>
      </trkpt>
      <trkpt lat="47.16486" lon="-1.64287">
        <ele>36.167446</ele>
        <time>2019-12-08T10:18:22Z</time>
      </trkpt>
      <trkpt lat="47.16496" lon="-1.64293">
        <ele>36.09346</ele>
        <time>2019-12-08T10:18:29Z</time>
      </trkpt>
      <trkpt lat="47.16505" lon="-1.64293">
        <ele>36.230858</ele>
        <time>2019-12-08T10:18:36Z</time>
      </trkpt>
      <trkpt lat="47.16513" lon="-1.64284">
        <ele>36.10403</ele>
        <time>2019-12-08T10:18:42Z</time>
      </trkpt>
      <trkpt lat="47.16518" lon="-1.64273">
        <ele>36.225574</ele>
        <time>2019-12-08T10:18:48Z</time>
      </trkpt>
      <trkpt lat="47.16524" lon="-1.64261">
        <ele>36.349762</ele>
        <time>2019-12-08T10:18:54Z</time>
      </trkpt>
      <trkpt lat="47.16531" lon="-1.64249">
        <ele>36.32598</ele>
        <time>2019-12-08T10:19:01Z</time>
      </trkpt>
      <trkpt lat="47.16537" lon="-1.64239">
        <ele>36.106674</ele>
        <time>2019-12-08T10:19:07Z</time>
      </trkpt>
      <trkpt lat="47.16545" lon="-1.64229">
        <ele>35.850372</ele>
        <time>2019-12-08T10:19:14Z</time>
      </trkpt>
      <trkpt lat="47.16552" lon="-1.64219">
        <ele>35.81338</ele>
        <time>2019-12-08T10:19:20Z</time>
      </trkpt>
      <trkpt lat="47.16559" lon="-1.6421">
        <ele>36.088177</ele>
        <time>2019-12-08T10:19:26Z</time>
      </trkpt>
      <trkpt lat="47.16567" lon="-1.64201">
        <ele>36.458096</ele>
        <time>2019-12-08T10:19:34Z</time>
      </trkpt>
      <trkpt lat="47.16574" lon="-1.64189">
        <ele>36.52415</ele>
        <time>2019-12-08T10:19:40Z</time>
      </trkpt>
      <trkpt lat="47.1658" lon="-1.64178">
        <ele>36.455452</ele>
        <time>2019-12-08T10:19:47Z</time>
      </trkpt>
      <trkpt lat="47.16589" lon="-1.6417">
        <ele>36.318054</ele>
        <time>2019-12-08T10:19:53Z</time>
      </trkpt>
      <trkpt lat="47.16599" lon="-1.64169">
        <ele>35.934925</ele>
        <time>2019-12-08T10:20:01Z</time>
      </trkpt>
      <trkpt lat="47.16608" lon="-1.64171">
        <ele>36.35769</ele>
        <time>2019-12-08T10:20:08Z</time>
      </trkpt>
      <trkpt lat="47.16617" lon="-1.6418">
        <ele>36.55586</ele>
        <time>2019-12-08T10:20:15Z</time>
      </trkpt>
      <trkpt lat="47.16623" lon="-1.64192">
        <ele>36.415817</ele>
        <time>2019-12-08T10:20:21Z</time>
      </trkpt>
      <trkpt lat="47.16629" lon="-1.64206">
        <ele>36.191227</ele>
        <time>2019-12-08T10:20:27Z</time>
      </trkpt>
      <trkpt lat="47.16635" lon="-1.64219">
        <ele>36.52151</ele>
        <time>2019-12-08T10:20:34Z</time>
      </trkpt>
      <trkpt lat="47.16639" lon="-1.64232">
        <ele>36.399963</ele>
        <time>2019-12-08T10:20:40Z</time>
      </trkpt>
      <trkpt lat="47.16642" lon="-1.64245">
        <ele>36.02476</ele>
        <time>2019-12-08T10:20:46Z</time>
      </trkpt>
      <trkpt lat="47.16647" lon="-1.64258">
        <ele>35.863583</ele>
        <time>2019-12-08T10:20:53Z</time>
      </trkpt>
      <trkpt lat="47.16652" lon="-1.6427">
        <ele>35.948135</ele>
        <time>2019-12-08T10:20:59Z</time>
      </trkpt>
      <trkpt lat="47.16656" lon="-1.64282">
        <ele>35.81338</ele>
        <time>2019-12-08T10:21:05Z</time>
      </trkpt>
      <trkpt lat="47.16661" lon="-1.64295">
        <ele>35.84509</ele>
        <time>2019-12-08T10:21:11Z</time>
      </trkpt>
      <trkpt lat="47.16665" lon="-1.64307">
        <ele>35.4646</ele>
        <time>2019-12-08T10:21:18Z</time>
      </trkpt>
      <trkpt lat="47.16668" lon="-1.6432">
        <ele>35.638992</ele>
        <time>2019-12-08T10:21:24Z</time>
      </trkpt>
      <trkpt lat="47.16672" lon="-1.64334">
        <ele>35.099968</ele>
        <time>2019-12-08T10:21:31Z</time>
      </trkpt>
      <trkpt lat="47.16678" lon="-1.64346">
        <ele>35.62842</ele>
        <time>2019-12-08T10:21:37Z</time>
      </trkpt>
      <trkpt lat="47.16682" lon="-1.64358">
        <ele>35.67334</ele>
        <time>2019-12-08T10:21:44Z</time>
      </trkpt>
      <trkpt lat="47.16686" lon="-1.64371">
        <ele>35.74204</ele>
        <time>2019-12-08T10:21:50Z</time>
      </trkpt>
      <trkpt lat="47.16691" lon="-1.64383">
        <ele>35.712975</ele>
        <time>2019-12-08T10:21:56Z</time>
      </trkpt>
      <trkpt lat="47.16697" lon="-1.64395">
        <ele>35.50159</ele>
        <time>2019-12-08T10:22:03Z</time>
      </trkpt>
      <trkpt lat="47.167" lon="-1.64407">
        <ele>34.93879</ele>
        <time>2019-12-08T10:22:08Z</time>
      </trkpt>
      <trkpt lat="47.16705" lon="-1.64421">
        <ele>35.47517</ele>
        <time>2019-12-08T10:22:15Z</time>
      </trkpt>
      <trkpt lat="47.16708" lon="-1.64434">
        <ele>35.82131</ele>
        <time>2019-12-08T10:22:22Z</time>
      </trkpt>
      <trkpt lat="47.16712" lon="-1.64448">
        <ele>35.62842</ele>
        <time>2019-12-08T10:22:28Z</time>
      </trkpt>
      <trkpt lat="47.16715" lon="-1.64462">
        <ele>35.670696</ele>
        <time>2019-12-08T10:22:34Z</time>
      </trkpt>
      <trkpt lat="47.16718" lon="-1.64474">
        <ele>35.43818</ele>
        <time>2019-12-08T10:22:41Z</time>
      </trkpt>
      <trkpt lat="47.16722" lon="-1.64487">
        <ele>35.424965</ele>
        <time>2019-12-08T10:22:48Z</time>
      </trkpt>
      <trkpt lat="47.16727" lon="-1.64499">
        <ele>35.44082</ele>
        <time>2019-12-08T10:22:54Z</time>
      </trkpt>
      <trkpt lat="47.16732" lon="-1.64512">
        <ele>35.62314</ele>
        <time>2019-12-08T10:23:00Z</time>
      </trkpt>
      <trkpt lat="47.16735" lon="-1.64525">
        <ele>35.588787</ele>
        <time>2019-12-08T10:23:06Z</time>
      </trkpt>
      <trkpt lat="47.16739" lon="-1.6454">
        <ele>36.040615</ele>
        <time>2019-12-08T10:23:12Z</time>
      </trkpt>
      <trkpt lat="47.16742" lon="-1.64553">
        <ele>35.860943</ele>
        <time>2019-12-08T10:23:18Z</time>
      </trkpt>
      <trkpt lat="47.16745" lon="-1.64567">
        <ele>36.008907</ele>
        <time>2019-12-08T10:23:25Z</time>
      </trkpt>
      <trkpt lat="47.16749" lon="-1.6458">
        <ele>35.945496</ele>
        <time>2019-12-08T10:23:31Z</time>
      </trkpt>
      <trkpt lat="47.16753" lon="-1.64594">
        <ele>36.082893</ele>
        <time>2019-12-08T10:23:39Z</time>
      </trkpt>
      <trkpt lat="47.16757" lon="-1.64606">
        <ele>36.199154</ele>
        <time>2019-12-08T10:23:45Z</time>
      </trkpt>
      <trkpt lat="47.16761" lon="-1.6462">
        <ele>36.048542</ele>
        <time>2019-12-08T10:23:52Z</time>
      </trkpt>
      <trkpt lat="47.16764" lon="-1.64633">
        <ele>36.505657</ele>
        <time>2019-12-08T10:23:57Z</time>
      </trkpt>
      <trkpt lat="47.16769" lon="-1.64646">
        <ele>36.291634</ele>
        <time>2019-12-08T10:24:03Z</time>
      </trkpt>
      <trkpt lat="47.16773" lon="-1.64658">
        <ele>36.061752</ele>
        <time>2019-12-08T10:24:10Z</time>
      </trkpt>
      <trkpt lat="47.16776" lon="-1.64671">
        <ele>36.230858</ele>
        <time>2019-12-08T10:24:17Z</time>
      </trkpt>
      <trkpt lat="47.1678" lon="-1.64686">
        <ele>36.70647</ele>
        <time>2019-12-08T10:24:23Z</time>
      </trkpt>
      <trkpt lat="47.16783" lon="-1.647">
        <ele>36.48716</ele>
        <time>2019-12-08T10:24:29Z</time>
      </trkpt>
      <trkpt lat="47.16787" lon="-1.64713">
        <ele>36.841225</ele>
        <time>2019-12-08T10:24:35Z</time>
      </trkpt>
      <trkpt lat="47.1679" lon="-1.64727">
        <ele>37.071102</ele>
        <time>2019-12-08T10:24:42Z</time>
      </trkpt>
      <trkpt lat="47.16793" lon="-1.6474">
        <ele>36.772526</ele>
        <time>2019-12-08T10:24:48Z</time>
      </trkpt>
      <trkpt lat="47.16795" lon="-1.64754">
        <ele>36.600777</ele>
        <time>2019-12-08T10:24:55Z</time>
      </trkpt>
      <trkpt lat="47.168" lon="-1.64766">
        <ele>36.872932</ele>
        <time>2019-12-08T10:25:01Z</time>
      </trkpt>
      <trkpt lat="47.16806" lon="-1.64779">
        <ele>36.978622</ele>
        <time>2019-12-08T10:25:08Z</time>
      </trkpt>
      <trkpt lat="47.16809" lon="-1.64793">
        <ele>36.809517</ele>
        <time>2019-12-08T10:25:14Z</time>
      </trkpt>
      <trkpt lat="47.16809" lon="-1.64807">
        <ele>36.946915</ele>
        <time>2019-12-08T10:25:20Z</time>
      </trkpt>
      <trkpt lat="47.16806" lon="-1.64821">
        <ele>36.820087</ele>
        <time>2019-12-08T10:25:26Z</time>
      </trkpt>
      <trkpt lat="47.16803" lon="-1.64834">
        <ele>36.608704</ele>
        <time>2019-12-08T10:25:32Z</time>
      </trkpt>
      <trkpt lat="47.168" lon="-1.64849">
        <ele>37.100166</ele>
        <time>2019-12-08T10:25:39Z</time>
      </trkpt>
      <trkpt lat="47.16798" lon="-1.64863">
        <ele>36.946915</ele>
        <time>2019-12-08T10:25:45Z</time>
      </trkpt>
      <trkpt lat="47.16796" lon="-1.64878">
        <ele>37.01033</ele>
        <time>2019-12-08T10:25:51Z</time>
      </trkpt>
      <trkpt lat="47.16794" lon="-1.64892">
        <ele>36.40789</ele>
        <time>2019-12-08T10:25:58Z</time>
      </trkpt>
      <trkpt lat="47.16791" lon="-1.64907">
        <ele>36.584923</ele>
        <time>2019-12-08T10:26:05Z</time>
      </trkpt>
      <trkpt lat="47.1679" lon="-1.6492">
        <ele>36.52415</ele>
        <time>2019-12-08T10:26:12Z</time>
      </trkpt>
      <trkpt lat="47.16791" lon="-1.64935">
        <ele>36.772526</ele>
        <time>2019-12-08T10:26:19Z</time>
      </trkpt>
      <trkpt lat="47.16791" lon="-1.64951">
        <ele>36.693256</ele>
        <time>2019-12-08T10:26:26Z</time>
      </trkpt>
      <trkpt lat="47.1679" lon="-1.64966">
        <ele>36.328625</ele>
        <time>2019-12-08T10:26:32Z</time>
      </trkpt>
      <trkpt lat="47.16793" lon="-1.6498">
        <ele>36.46338</ele>
        <time>2019-12-08T10:26:39Z</time>
      </trkpt>
      <trkpt lat="47.16794" lon="-1.64994">
        <ele>37.168865</ele>
        <time>2019-12-08T10:26:44Z</time>
      </trkpt>
      <trkpt lat="47.16798" lon="-1.65006">
        <ele>36.92842</ele>
        <time>2019-12-08T10:26:50Z</time>
      </trkpt>
      <trkpt lat="47.168" lon="-1.65019">
        <ele>36.90728</ele>
        <time>2019-12-08T10:26:55Z</time>
      </trkpt>
      <trkpt lat="47.16803" lon="-1.65032">
        <ele>36.89407</ele>
        <time>2019-12-08T10:27:01Z</time>
      </trkpt>
      <trkpt lat="47.16805" lon="-1.65045">
        <ele>36.938988</ele>
        <time>2019-12-08T10:27:06Z</time>
      </trkpt>
      <trkpt lat="47.16806" lon="-1.6506">
        <ele>37.39346</ele>
        <time>2019-12-08T10:27:11Z</time>
      </trkpt>
      <trkpt lat="47.16807" lon="-1.65074">
        <ele>37.234924</ele>
        <time>2019-12-08T10:27:17Z</time>
      </trkpt>
      <trkpt lat="47.16808" lon="-1.65089">
        <ele>37.05789</ele>
        <time>2019-12-08T10:27:23Z</time>
      </trkpt>
      <trkpt lat="47.1681" lon="-1.65102">
        <ele>37.026184</ele>
        <time>2019-12-08T10:27:29Z</time>
      </trkpt>
      <trkpt lat="47.16811" lon="-1.65115">
        <ele>37.049965</ele>
        <time>2019-12-08T10:27:35Z</time>
      </trkpt>
      <trkpt lat="47.16812" lon="-1.65129">
        <ele>37.110737</ele>
        <time>2019-12-08T10:27:41Z</time>
      </trkpt>
      <trkpt lat="47.16813" lon="-1.65143">
        <ele>37.007687</ele>
        <time>2019-12-08T10:27:48Z</time>
      </trkpt>
      <trkpt lat="47.16816" lon="-1.65156">
        <ele>37.11338</ele>
        <time>2019-12-08T10:27:54Z</time>
      </trkpt>
      <trkpt lat="47.16819" lon="-1.65171">
        <ele>36.888786</ele>
        <time>2019-12-08T10:28:00Z</time>
      </trkpt>
      <trkpt lat="47.16819" lon="-1.65186">
        <ele>37.45952</ele>
        <time>2019-12-08T10:28:05Z</time>
      </trkpt>
      <trkpt lat="47.16821" lon="-1.652">
        <ele>36.77517</ele>
        <time>2019-12-08T10:28:11Z</time>
      </trkpt>
      <trkpt lat="47.16822" lon="-1.65213">
        <ele>36.946915</ele>
        <time>2019-12-08T10:28:18Z</time>
      </trkpt>
      <trkpt lat="47.16824" lon="-1.65228">
        <ele>36.48452</ele>
        <time>2019-12-08T10:28:26Z</time>
      </trkpt>
      <trkpt lat="47.16826" lon="-1.65241">
        <ele>36.294273</ele>
        <time>2019-12-08T10:28:32Z</time>
      </trkpt>
      <trkpt lat="47.16827" lon="-1.65257">
        <ele>36.83594</ele>
        <time>2019-12-08T10:28:40Z</time>
      </trkpt>
      <trkpt lat="47.16827" lon="-1.65272">
        <ele>36.537365</ele>
        <time>2019-12-08T10:28:46Z</time>
      </trkpt>
      <trkpt lat="47.16828" lon="-1.65286">
        <ele>36.67212</ele>
        <time>2019-12-08T10:28:52Z</time>
      </trkpt>
      <trkpt lat="47.16829" lon="-1.65302">
        <ele>36.632484</ele>
        <time>2019-12-08T10:28:58Z</time>
      </trkpt>
      <trkpt lat="47.16832" lon="-1.65315">
        <ele>36.434315</ele>
        <time>2019-12-08T10:29:03Z</time>
      </trkpt>
      <trkpt lat="47.16833" lon="-1.65328">
        <ele>36.259926</ele>
        <time>2019-12-08T10:29:09Z</time>
      </trkpt>
      <trkpt lat="47.16835" lon="-1.65344">
        <ele>36.323338</ele>
        <time>2019-12-08T10:29:15Z</time>
      </trkpt>
      <trkpt lat="47.16839" lon="-1.65357">
        <ele>36.43696</ele>
        <time>2019-12-08T10:29:21Z</time>
      </trkpt>
      <trkpt lat="47.16841" lon="-1.65372">
        <ele>36.18594</ele>
        <time>2019-12-08T10:29:28Z</time>
      </trkpt>
      <trkpt lat="47.16843" lon="-1.65385">
        <ele>36.225574</ele>
        <time>2019-12-08T10:29:34Z</time>
      </trkpt>
      <trkpt lat="47.16843" lon="-1.65398">
        <ele>36.606064</ele>
        <time>2019-12-08T10:29:40Z</time>
      </trkpt>
      <trkpt lat="47.16845" lon="-1.65413">
        <ele>36.291634</ele>
        <time>2019-12-08T10:29:47Z</time>
      </trkpt>
      <trkpt lat="47.16847" lon="-1.65428">
        <ele>36.413177</ele>
        <time>2019-12-08T10:29:54Z</time>
      </trkpt>
      <trkpt lat="47.16849" lon="-1.65443">
        <ele>36.767242</ele>
        <time>2019-12-08T10:30:01Z</time>
      </trkpt>
      <trkpt lat="47.16851" lon="-1.65457">
        <ele>36.52151</ele>
        <time>2019-12-08T10:30:08Z</time>
      </trkpt>
      <trkpt lat="47.16852" lon="-1.65471">
        <ele>36.399963</ele>
        <time>2019-12-08T10:30:14Z</time>
      </trkpt>
      <trkpt lat="47.16853" lon="-1.65485">
        <ele>36.119884</ele>
        <time>2019-12-08T10:30:20Z</time>
      </trkpt>
      <trkpt lat="47.16853" lon="-1.65499">
        <ele>36.170086</ele>
        <time>2019-12-08T10:30:26Z</time>
      </trkpt>
      <trkpt lat="47.16856" lon="-1.65512">
        <ele>36.180656</ele>
        <time>2019-12-08T10:30:33Z</time>
      </trkpt>
      <trkpt lat="47.16856" lon="-1.65527">
        <ele>36.355045</ele>
        <time>2019-12-08T10:30:40Z</time>
      </trkpt>
      <trkpt lat="47.16859" lon="-1.6554">
        <ele>36.3022</ele>
        <time>2019-12-08T10:30:46Z</time>
      </trkpt>
      <trkpt lat="47.1686" lon="-1.65554">
        <ele>36.098747</ele>
        <time>2019-12-08T10:30:52Z</time>
      </trkpt>
      <trkpt lat="47.16863" lon="-1.6557">
        <ele>36.291634</ele>
        <time>2019-12-08T10:30:58Z</time>
      </trkpt>
      <trkpt lat="47.16864" lon="-1.65584">
        <ele>36.085533</ele>
        <time>2019-12-08T10:31:03Z</time>
      </trkpt>
      <trkpt lat="47.16866" lon="-1.65599">
        <ele>35.641632</ele>
        <time>2019-12-08T10:31:09Z</time>
      </trkpt>
      <trkpt lat="47.16869" lon="-1.65613">
        <ele>35.945496</ele>
        <time>2019-12-08T10:31:16Z</time>
      </trkpt>
      <trkpt lat="47.1687" lon="-1.65627">
        <ele>36.048542</ele>
        <time>2019-12-08T10:31:22Z</time>
      </trkpt>
      <trkpt lat="47.16872" lon="-1.65641">
        <ele>35.337772</ele>
        <time>2019-12-08T10:31:29Z</time>
      </trkpt>
      <trkpt lat="47.16871" lon="-1.65657">
        <ele>35.81602</ele>
        <time>2019-12-08T10:31:35Z</time>
      </trkpt>
      <trkpt lat="47.16873" lon="-1.6567">
        <ele>35.68391</ele>
        <time>2019-12-08T10:31:41Z</time>
      </trkpt>
      <trkpt lat="47.16874" lon="-1.65684">
        <ele>35.892647</ele>
        <time>2019-12-08T10:31:48Z</time>
      </trkpt>
      <trkpt lat="47.16876" lon="-1.65698">
        <ele>36.014194</ele>
        <time>2019-12-08T10:31:54Z</time>
      </trkpt>
      <trkpt lat="47.16876" lon="-1.65713">
        <ele>36.02212</ele>
        <time>2019-12-08T10:32:00Z</time>
      </trkpt>
      <trkpt lat="47.16878" lon="-1.65727">
        <ele>35.948135</ele>
        <time>2019-12-08T10:32:06Z</time>
      </trkpt>
      <trkpt lat="47.16881" lon="-1.6574">
        <ele>36.18594</ele>
        <time>2019-12-08T10:32:14Z</time>
      </trkpt>
      <trkpt lat="47.16882" lon="-1.65756">
        <ele>35.9085</ele>
        <time>2019-12-08T10:32:20Z</time>
      </trkpt>
      <trkpt lat="47.16885" lon="-1.6577">
        <ele>36.262566</ele>
        <time>2019-12-08T10:32:26Z</time>
      </trkpt>
      <trkpt lat="47.16886" lon="-1.65784">
        <ele>36.167446</ele>
        <time>2019-12-08T10:32:32Z</time>
      </trkpt>
      <trkpt lat="47.16887" lon="-1.65799">
        <ele>35.84509</ele>
        <time>2019-12-08T10:32:39Z</time>
      </trkpt>
      <trkpt lat="47.1689" lon="-1.65813">
        <ele>36.03005</ele>
        <time>2019-12-08T10:32:46Z</time>
      </trkpt>
      <trkpt lat="47.16893" lon="-1.65826">
        <ele>36.19651</ele>
        <time>2019-12-08T10:32:51Z</time>
      </trkpt>
      <trkpt lat="47.16893" lon="-1.65839">
        <ele>36.352406</ele>
        <time>2019-12-08T10:32:56Z</time>
      </trkpt>
      <trkpt lat="47.16894" lon="-1.65852">
        <ele>36.191227</ele>
        <time>2019-12-08T10:33:02Z</time>
      </trkpt>
      <trkpt lat="47.16896" lon="-1.65868">
        <ele>36.03005</ele>
        <time>2019-12-08T10:33:09Z</time>
      </trkpt>
      <trkpt lat="47.16892" lon="-1.6588">
        <ele>35.68655</ele>
        <time>2019-12-08T10:33:15Z</time>
      </trkpt>
      <trkpt lat="47.16888" lon="-1.65895">
        <ele>35.435535</ele>
        <time>2019-12-08T10:33:22Z</time>
      </trkpt>
      <trkpt lat="47.16883" lon="-1.65909">
        <ele>35.887363</ele>
        <time>2019-12-08T10:33:29Z</time>
      </trkpt>
      <trkpt lat="47.16877" lon="-1.65921">
        <ele>35.689194</ele>
        <time>2019-12-08T10:33:35Z</time>
      </trkpt>
      <trkpt lat="47.16873" lon="-1.65934">
        <ele>36.13574</ele>
        <time>2019-12-08T10:33:42Z</time>
      </trkpt>
      <trkpt lat="47.16881" lon="-1.65934">
        <ele>38.445084</ele>
        <time>2019-12-08T10:34:03Z</time>
      </trkpt>
      <trkpt lat="47.16881" lon="-1.65934">
        <ele>38.445084</ele>
        <time>2019-12-08T10:34:03Z</time>
      </trkpt>
      <trkpt lat="47.16885" lon="-1.65921">
        <ele>38.445084</ele>
        <time>2019-12-08T10:35:28Z</time>
      </trkpt>
      <trkpt lat="47.1689" lon="-1.6591">
        <ele>38.62476</ele>
        <time>2019-12-08T10:35:35Z</time>
      </trkpt>
      <trkpt lat="47.16897" lon="-1.65898">
        <ele>38.72781</ele>
        <time>2019-12-08T10:35:42Z</time>
      </trkpt>
      <trkpt lat="47.16901" lon="-1.65885">
        <ele>38.571915</ele>
        <time>2019-12-08T10:35:49Z</time>
      </trkpt>
      <trkpt lat="47.16908" lon="-1.65873">
        <ele>38.603622</ele>
        <time>2019-12-08T10:35:56Z</time>
      </trkpt>
      <trkpt lat="47.16913" lon="-1.65861">
        <ele>38.838783</ele>
        <time>2019-12-08T10:36:02Z</time>
      </trkpt>
      <trkpt lat="47.16919" lon="-1.65849">
        <ele>39.219273</ele>
        <time>2019-12-08T10:36:09Z</time>
      </trkpt>
      <trkpt lat="47.16925" lon="-1.65839">
        <ele>39.45179</ele>
        <time>2019-12-08T10:36:15Z</time>
      </trkpt>
      <trkpt lat="47.1693" lon="-1.65828">
        <ele>39.428013</ele>
        <time>2019-12-08T10:36:22Z</time>
      </trkpt>
      <trkpt lat="47.16935" lon="-1.65816">
        <ele>39.742443</ele>
        <time>2019-12-08T10:36:28Z</time>
      </trkpt>
      <trkpt lat="47.16941" lon="-1.65805">
        <ele>39.718662</ele>
        <time>2019-12-08T10:36:35Z</time>
      </trkpt>
      <trkpt lat="47.16948" lon="-1.65795">
        <ele>40.13614</ele>
        <time>2019-12-08T10:36:42Z</time>
      </trkpt>
      <trkpt lat="47.16954" lon="-1.65782">
        <ele>40.247116</ele>
        <time>2019-12-08T10:36:49Z</time>
      </trkpt>
      <trkpt lat="47.16959" lon="-1.65771">
        <ele>40.39244</ele>
        <time>2019-12-08T10:36:56Z</time>
      </trkpt>
      <trkpt lat="47.16964" lon="-1.65759">
        <ele>40.072727</ele>
        <time>2019-12-08T10:37:02Z</time>
      </trkpt>
      <trkpt lat="47.16965" lon="-1.65745">
        <ele>40.43736</ele>
        <time>2019-12-08T10:37:09Z</time>
      </trkpt>
      <trkpt lat="47.16966" lon="-1.6573">
        <ele>40.548336</ele>
        <time>2019-12-08T10:37:17Z</time>
      </trkpt>
      <trkpt lat="47.16971" lon="-1.65717">
        <ele>40.511345</ele>
        <time>2019-12-08T10:37:24Z</time>
      </trkpt>
      <trkpt lat="47.1698" lon="-1.65711">
        <ele>40.445286</ele>
        <time>2019-12-08T10:37:30Z</time>
      </trkpt>
      <trkpt lat="47.1699" lon="-1.65708">
        <ele>40.860123</ele>
        <time>2019-12-08T10:37:37Z</time>
      </trkpt>
      <trkpt lat="47.16998" lon="-1.65698">
        <ele>41.13492</ele>
        <time>2019-12-08T10:37:44Z</time>
      </trkpt>
      <trkpt lat="47.17004" lon="-1.65687">
        <ele>41.13492</ele>
        <time>2019-12-08T10:37:51Z</time>
      </trkpt>
      <trkpt lat="47.17009" lon="-1.65674">
        <ele>41.08736</ele>
        <time>2019-12-08T10:37:58Z</time>
      </trkpt>
      <trkpt lat="47.17016" lon="-1.65663">
        <ele>41.45728</ele>
        <time>2019-12-08T10:38:04Z</time>
      </trkpt>
      <trkpt lat="47.17022" lon="-1.65652">
        <ele>41.792847</ele>
        <time>2019-12-08T10:38:12Z</time>
      </trkpt>
      <trkpt lat="47.17029" lon="-1.65641">
        <ele>41.940815</ele>
        <time>2019-12-08T10:38:19Z</time>
      </trkpt>
      <trkpt lat="47.17036" lon="-1.65631">
        <ele>42.503616</ele>
        <time>2019-12-08T10:38:27Z</time>
      </trkpt>
      <trkpt lat="47.17043" lon="-1.65619">
        <ele>43.507683</ele>
        <time>2019-12-08T10:38:34Z</time>
      </trkpt>
      <trkpt lat="47.17048" lon="-1.65607">
        <ele>43.859104</ele>
        <time>2019-12-08T10:38:42Z</time>
      </trkpt>
      <trkpt lat="47.17055" lon="-1.65596">
        <ele>43.91195</ele>
        <time>2019-12-08T10:38:49Z</time>
      </trkpt>
      <trkpt lat="47.17061" lon="-1.65587">
        <ele>44.136543</ele>
        <time>2019-12-08T10:38:55Z</time>
      </trkpt>
      <trkpt lat="47.17068" lon="-1.65575">
        <ele>44.205242</ele>
        <time>2019-12-08T10:39:02Z</time>
      </trkpt>
      <trkpt lat="47.17074" lon="-1.65564">
        <ele>44.165607</ele>
        <time>2019-12-08T10:39:09Z</time>
      </trkpt>
      <trkpt lat="47.1708" lon="-1.65553">
        <ele>43.967438</ele>
        <time>2019-12-08T10:39:16Z</time>
      </trkpt>
      <trkpt lat="47.17087" lon="-1.65542">
        <ele>44.310932</ele>
        <time>2019-12-08T10:39:23Z</time>
      </trkpt>
      <trkpt lat="47.17091" lon="-1.6553">
        <ele>43.555244</ele>
        <time>2019-12-08T10:39:29Z</time>
      </trkpt>
      <trkpt lat="47.17096" lon="-1.65517">
        <ele>43.346504</ele>
        <time>2019-12-08T10:39:36Z</time>
      </trkpt>
      <trkpt lat="47.17101" lon="-1.65505">
        <ele>42.84447</ele>
        <time>2019-12-08T10:39:43Z</time>
      </trkpt>
      <trkpt lat="47.17104" lon="-1.65491">
        <ele>42.3213</ele>
        <time>2019-12-08T10:39:50Z</time>
      </trkpt>
      <trkpt lat="47.17107" lon="-1.65477">
        <ele>42.02008</ele>
        <time>2019-12-08T10:39:57Z</time>
      </trkpt>
      <trkpt lat="47.17109" lon="-1.65463">
        <ele>41.43878</ele>
        <time>2019-12-08T10:40:03Z</time>
      </trkpt>
      <trkpt lat="47.1711" lon="-1.65449">
        <ele>40.77293</ele>
        <time>2019-12-08T10:40:10Z</time>
      </trkpt>
      <trkpt lat="47.17111" lon="-1.65433">
        <ele>40.149353</ele>
        <time>2019-12-08T10:40:17Z</time>
      </trkpt>
      <trkpt lat="47.17111" lon="-1.65419">
        <ele>39.858704</ele>
        <time>2019-12-08T10:40:24Z</time>
      </trkpt>
      <trkpt lat="47.17111" lon="-1.65404">
        <ele>39.274757</ele>
        <time>2019-12-08T10:40:31Z</time>
      </trkpt>
      <trkpt lat="47.17111" lon="-1.65391">
        <ele>39.237766</ele>
        <time>2019-12-08T10:40:37Z</time>
      </trkpt>
      <trkpt lat="47.1711" lon="-1.65377">
        <ele>39.483498</ele>
        <time>2019-12-08T10:40:44Z</time>
      </trkpt>
      <trkpt lat="47.1711" lon="-1.65361">
        <ele>38.762157</ele>
        <time>2019-12-08T10:40:52Z</time>
      </trkpt>
      <trkpt lat="47.17107" lon="-1.65347">
        <ele>38.460938</ele>
        <time>2019-12-08T10:40:59Z</time>
      </trkpt>
      <trkpt lat="47.171" lon="-1.65337">
        <ele>38.582485</ele>
        <time>2019-12-08T10:41:06Z</time>
      </trkpt>
      <trkpt lat="47.17093" lon="-1.65326">
        <ele>38.408092</ele>
        <time>2019-12-08T10:41:12Z</time>
      </trkpt>
      <trkpt lat="47.17088" lon="-1.65313">
        <ele>38.328827</ele>
        <time>2019-12-08T10:41:19Z</time>
      </trkpt>
      <trkpt lat="47.17085" lon="-1.653">
        <ele>38.233704</ele>
        <time>2019-12-08T10:41:26Z</time>
      </trkpt>
      <trkpt lat="47.1709" lon="-1.65289">
        <ele>38.553417</ele>
        <time>2019-12-08T10:41:33Z</time>
      </trkpt>
      <trkpt lat="47.17094" lon="-1.65278">
        <ele>38.18086</ele>
        <time>2019-12-08T10:41:39Z</time>
      </trkpt>
      <trkpt lat="47.171" lon="-1.65267">
        <ele>38.238987</ele>
        <time>2019-12-08T10:41:45Z</time>
      </trkpt>
      <trkpt lat="47.17107" lon="-1.65256">
        <ele>37.75545</ele>
        <time>2019-12-08T10:41:51Z</time>
      </trkpt>
      <trkpt lat="47.17117" lon="-1.65253">
        <ele>37.87964</ele>
        <time>2019-12-08T10:41:58Z</time>
      </trkpt>
      <trkpt lat="47.17127" lon="-1.65255">
        <ele>37.919273</ele>
        <time>2019-12-08T10:42:04Z</time>
      </trkpt>
      <trkpt lat="47.17134" lon="-1.65266">
        <ele>38.249557</ele>
        <time>2019-12-08T10:42:10Z</time>
      </trkpt>
      <trkpt lat="47.17141" lon="-1.65274">
        <ele>38.26805</ele>
        <time>2019-12-08T10:42:16Z</time>
      </trkpt>
      <trkpt lat="47.17149" lon="-1.65283">
        <ele>37.692036</ele>
        <time>2019-12-08T10:42:23Z</time>
      </trkpt>
      <trkpt lat="47.17156" lon="-1.65292">
        <ele>37.906063</ele>
        <time>2019-12-08T10:42:31Z</time>
      </trkpt>
      <trkpt lat="47.17164" lon="-1.65299">
        <ele>37.686752</ele>
        <time>2019-12-08T10:42:37Z</time>
      </trkpt>
      <trkpt lat="47.17172" lon="-1.65309">
        <ele>37.789803</ele>
        <time>2019-12-08T10:42:44Z</time>
      </trkpt>
      <trkpt lat="47.17177" lon="-1.65321">
        <ele>37.31155</ele>
        <time>2019-12-08T10:42:50Z</time>
      </trkpt>
      <trkpt lat="47.1718" lon="-1.65333">
        <ele>37.38025</ele>
        <time>2019-12-08T10:42:56Z</time>
      </trkpt>
      <trkpt lat="47.1718" lon="-1.65348">
        <ele>36.936348</ele>
        <time>2019-12-08T10:43:03Z</time>
      </trkpt>
      <trkpt lat="47.17179" lon="-1.65362">
        <ele>36.920494</ele>
        <time>2019-12-08T10:43:10Z</time>
      </trkpt>
      <trkpt lat="47.17177" lon="-1.65377">
        <ele>36.841225</ele>
        <time>2019-12-08T10:43:16Z</time>
      </trkpt>
      <trkpt lat="47.17175" lon="-1.6539">
        <ele>36.698544</ele>
        <time>2019-12-08T10:43:23Z</time>
      </trkpt>
      <trkpt lat="47.17172" lon="-1.65404">
        <ele>36.7461</ele>
        <time>2019-12-08T10:43:29Z</time>
      </trkpt>
      <trkpt lat="47.17172" lon="-1.65418">
        <ele>36.690617</ele>
        <time>2019-12-08T10:43:36Z</time>
      </trkpt>
      <trkpt lat="47.1717" lon="-1.65432">
        <ele>36.99712</ele>
        <time>2019-12-08T10:43:42Z</time>
      </trkpt>
      <trkpt lat="47.17172" lon="-1.65446">
        <ele>36.082893</ele>
        <time>2019-12-08T10:43:50Z</time>
      </trkpt>
      <trkpt lat="47.17181" lon="-1.65446">
        <ele>35.364193</ele>
        <time>2019-12-08T10:44:00Z</time>
      </trkpt>
      <trkpt lat="47.1719" lon="-1.65443">
        <ele>35.189804</ele>
        <time>2019-12-08T10:44:07Z</time>
      </trkpt>
      <trkpt lat="47.17199" lon="-1.65438">
        <ele>34.41033</ele>
        <time>2019-12-08T10:44:14Z</time>
      </trkpt>
      <trkpt lat="47.17209" lon="-1.65435">
        <ele>34.463177</ele>
        <time>2019-12-08T10:44:21Z</time>
      </trkpt>
      <trkpt lat="47.17218" lon="-1.6543">
        <ele>34.32578</ele>
        <time>2019-12-08T10:44:28Z</time>
      </trkpt>
      <trkpt lat="47.17228" lon="-1.65426">
        <ele>34.30464</ele>
        <time>2019-12-08T10:44:35Z</time>
      </trkpt>
      <trkpt lat="47.17237" lon="-1.65421">
        <ele>33.961147</ele>
        <time>2019-12-08T10:44:42Z</time>
      </trkpt>
      <trkpt lat="47.17244" lon="-1.65412">
        <ele>33.961147</ele>
        <time>2019-12-08T10:44:49Z</time>
      </trkpt>
      <trkpt lat="47.17254" lon="-1.65406">
        <ele>33.97964</ele>
        <time>2019-12-08T10:44:57Z</time>
      </trkpt>
      <trkpt lat="47.17263" lon="-1.65399">
        <ele>34.320496</ele>
        <time>2019-12-08T10:45:04Z</time>
      </trkpt>
      <trkpt lat="47.17272" lon="-1.65393">
        <ele>33.805252</ele>
        <time>2019-12-08T10:45:10Z</time>
      </trkpt>
      <trkpt lat="47.17281" lon="-1.65387">
        <ele>33.699562</ele>
        <time>2019-12-08T10:45:17Z</time>
      </trkpt>
      <trkpt lat="47.17291" lon="-1.65386">
        <ele>34.053627</ele>
        <time>2019-12-08T10:45:24Z</time>
      </trkpt>
      <trkpt lat="47.173" lon="-1.6538">
        <ele>34.02192</ele>
        <time>2019-12-08T10:45:31Z</time>
      </trkpt>
      <trkpt lat="47.17309" lon="-1.65379">
        <ele>33.73127</ele>
        <time>2019-12-08T10:45:37Z</time>
      </trkpt>
      <trkpt lat="47.17318" lon="-1.65372">
        <ele>33.770905</ele>
        <time>2019-12-08T10:45:44Z</time>
      </trkpt>
      <trkpt lat="47.17328" lon="-1.65373">
        <ele>33.818462</ele>
        <time>2019-12-08T10:45:50Z</time>
      </trkpt>
      <trkpt lat="47.17337" lon="-1.65372">
        <ele>33.622936</ele>
        <time>2019-12-08T10:45:58Z</time>
      </trkpt>
      <trkpt lat="47.17346" lon="-1.6537">
        <ele>33.474968</ele>
        <time>2019-12-08T10:46:04Z</time>
      </trkpt>
      <trkpt lat="47.17356" lon="-1.65367">
        <ele>33.78147</ele>
        <time>2019-12-08T10:46:11Z</time>
      </trkpt>
      <trkpt lat="47.17367" lon="-1.65364">
        <ele>33.657284</ele>
        <time>2019-12-08T10:46:18Z</time>
      </trkpt>
      <trkpt lat="47.17376" lon="-1.65362">
        <ele>33.932083</ele>
        <time>2019-12-08T10:46:23Z</time>
      </trkpt>
      <trkpt lat="47.17386" lon="-1.65359">
        <ele>33.74448</ele>
        <time>2019-12-08T10:46:30Z</time>
      </trkpt>
      <trkpt lat="47.17395" lon="-1.65357">
        <ele>34.214806</ele>
        <time>2019-12-08T10:46:36Z</time>
      </trkpt>
      <trkpt lat="47.17404" lon="-1.65351">
        <ele>33.805252</ele>
        <time>2019-12-08T10:46:44Z</time>
      </trkpt>
      <trkpt lat="47.17414" lon="-1.65351">
        <ele>33.97964</ele>
        <time>2019-12-08T10:46:51Z</time>
      </trkpt>
      <trkpt lat="47.17423" lon="-1.65348">
        <ele>34.04834</ele>
        <time>2019-12-08T10:46:58Z</time>
      </trkpt>
      <trkpt lat="47.17434" lon="-1.65347">
        <ele>34.23066</ele>
        <time>2019-12-08T10:47:05Z</time>
      </trkpt>
      <trkpt lat="47.17442" lon="-1.65344">
        <ele>34.38655</ele>
        <time>2019-12-08T10:47:12Z</time>
      </trkpt>
      <trkpt lat="47.17451" lon="-1.65337">
        <ele>34.370697</ele>
        <time>2019-12-08T10:47:20Z</time>
      </trkpt>
      <trkpt lat="47.1746" lon="-1.65335">
        <ele>34.317852</ele>
        <time>2019-12-08T10:47:27Z</time>
      </trkpt>
      <trkpt lat="47.17471" lon="-1.65334">
        <ele>34.632282</ele>
        <time>2019-12-08T10:47:36Z</time>
      </trkpt>
      <trkpt lat="47.1748" lon="-1.65333">
        <ele>34.62436</ele>
        <time>2019-12-08T10:47:41Z</time>
      </trkpt>
      <trkpt lat="47.17489" lon="-1.65336">
        <ele>35.03391</ele>
        <time>2019-12-08T10:47:47Z</time>
      </trkpt>
      <trkpt lat="47.17497" lon="-1.65343">
        <ele>35.250576</ele>
        <time>2019-12-08T10:47:54Z</time>
      </trkpt>
      <trkpt lat="47.17507" lon="-1.65346">
        <ele>35.364193</ele>
        <time>2019-12-08T10:48:00Z</time>
      </trkpt>
      <trkpt lat="47.17515" lon="-1.65354">
        <ele>35.483097</ele>
        <time>2019-12-08T10:48:07Z</time>
      </trkpt>
      <trkpt lat="47.17522" lon="-1.65364">
        <ele>35.62314</ele>
        <time>2019-12-08T10:48:14Z</time>
      </trkpt>
      <trkpt lat="47.17526" lon="-1.65376">
        <ele>35.535942</ele>
        <time>2019-12-08T10:48:21Z</time>
      </trkpt>
      <trkpt lat="47.1753" lon="-1.65389">
        <ele>35.853016</ele>
        <time>2019-12-08T10:48:27Z</time>
      </trkpt>
      <trkpt lat="47.1753" lon="-1.65404">
        <ele>36.143665</ele>
        <time>2019-12-08T10:48:35Z</time>
      </trkpt>
      <trkpt lat="47.17532" lon="-1.65419">
        <ele>35.985126</ele>
        <time>2019-12-08T10:48:42Z</time>
      </trkpt>
      <trkpt lat="47.17534" lon="-1.65433">
        <ele>36.42903</ele>
        <time>2019-12-08T10:48:49Z</time>
      </trkpt>
      <trkpt lat="47.17534" lon="-1.65447">
        <ele>36.426388</ele>
        <time>2019-12-08T10:48:55Z</time>
      </trkpt>
      <trkpt lat="47.17534" lon="-1.6546">
        <ele>36.680046</ele>
        <time>2019-12-08T10:49:01Z</time>
      </trkpt>
      <trkpt lat="47.17531" lon="-1.65475">
        <ele>36.42903</ele>
        <time>2019-12-08T10:49:07Z</time>
      </trkpt>
      <trkpt lat="47.1753" lon="-1.6549">
        <ele>36.606064</ele>
        <time>2019-12-08T10:49:13Z</time>
      </trkpt>
      <trkpt lat="47.1753" lon="-1.65504">
        <ele>36.471306</ele>
        <time>2019-12-08T10:49:19Z</time>
      </trkpt>
      <trkpt lat="47.17532" lon="-1.65518">
        <ele>36.52415</ele>
        <time>2019-12-08T10:49:25Z</time>
      </trkpt>
      <trkpt lat="47.17532" lon="-1.65532">
        <ele>36.51094</ele>
        <time>2019-12-08T10:49:31Z</time>
      </trkpt>
      <trkpt lat="47.17535" lon="-1.65545">
        <ele>36.81216</ele>
        <time>2019-12-08T10:49:36Z</time>
      </trkpt>
      <trkpt lat="47.17537" lon="-1.65558">
        <ele>36.78838</ele>
        <time>2019-12-08T10:49:42Z</time>
      </trkpt>
      <trkpt lat="47.17538" lon="-1.65572">
        <ele>36.769882</ele>
        <time>2019-12-08T10:49:48Z</time>
      </trkpt>
      <trkpt lat="47.17542" lon="-1.65585">
        <ele>37.187363</ele>
        <time>2019-12-08T10:49:55Z</time>
      </trkpt>
      <trkpt lat="47.17545" lon="-1.65598">
        <ele>37.586346</ele>
        <time>2019-12-08T10:50:01Z</time>
      </trkpt>
      <trkpt lat="47.17545" lon="-1.65612">
        <ele>37.422523</ele>
        <time>2019-12-08T10:50:07Z</time>
      </trkpt>
      <trkpt lat="47.17547" lon="-1.65625">
        <ele>37.353825</ele>
        <time>2019-12-08T10:50:13Z</time>
      </trkpt>
      <trkpt lat="47.17547" lon="-1.65639">
        <ele>37.72903</ele>
        <time>2019-12-08T10:50:19Z</time>
      </trkpt>
      <trkpt lat="47.1755" lon="-1.65652">
        <ele>37.61541</ele>
        <time>2019-12-08T10:50:25Z</time>
      </trkpt>
      <trkpt lat="47.17551" lon="-1.65665">
        <ele>37.39346</ele>
        <time>2019-12-08T10:50:31Z</time>
      </trkpt>
      <trkpt lat="47.17553" lon="-1.65679">
        <ele>37.33797</ele>
        <time>2019-12-08T10:50:37Z</time>
      </trkpt>
      <trkpt lat="47.17555" lon="-1.65692">
        <ele>37.32476</ele>
        <time>2019-12-08T10:50:43Z</time>
      </trkpt>
      <trkpt lat="47.17556" lon="-1.65705">
        <ele>37.04732</ele>
        <time>2019-12-08T10:50:49Z</time>
      </trkpt>
      <trkpt lat="47.17558" lon="-1.65719">
        <ele>37.213787</ele>
        <time>2019-12-08T10:50:55Z</time>
      </trkpt>
      <trkpt lat="47.17559" lon="-1.65733">
        <ele>36.711754</ele>
        <time>2019-12-08T10:51:02Z</time>
      </trkpt>
      <trkpt lat="47.1756" lon="-1.65748">
        <ele>36.664192</ele>
        <time>2019-12-08T10:51:09Z</time>
      </trkpt>
      <trkpt lat="47.1756" lon="-1.65763">
        <ele>37.060535</ele>
        <time>2019-12-08T10:51:16Z</time>
      </trkpt>
      <trkpt lat="47.1756" lon="-1.65776">
        <ele>36.912567</ele>
        <time>2019-12-08T10:51:23Z</time>
      </trkpt>
      <trkpt lat="47.17566" lon="-1.65789">
        <ele>37.190006</ele>
        <time>2019-12-08T10:51:29Z</time>
      </trkpt>
      <trkpt lat="47.17572" lon="-1.658">
        <ele>37.538784</ele>
        <time>2019-12-08T10:51:35Z</time>
      </trkpt>
      <trkpt lat="47.17578" lon="-1.6581">
        <ele>36.780453</ele>
        <time>2019-12-08T10:51:43Z</time>
      </trkpt>
      <trkpt lat="47.17584" lon="-1.65821">
        <ele>36.859722</ele>
        <time>2019-12-08T10:51:49Z</time>
      </trkpt>
      <trkpt lat="47.1759" lon="-1.65831">
        <ele>37.279842</ele>
        <time>2019-12-08T10:51:54Z</time>
      </trkpt>
      <trkpt lat="47.17598" lon="-1.65841">
        <ele>37.028828</ele>
        <time>2019-12-08T10:52:01Z</time>
      </trkpt>
      <trkpt lat="47.17601" lon="-1.65854">
        <ele>36.75403</ele>
        <time>2019-12-08T10:52:08Z</time>
      </trkpt>
      <trkpt lat="47.17606" lon="-1.65866">
        <ele>37.293053</ele>
        <time>2019-12-08T10:52:15Z</time>
      </trkpt>
      <trkpt lat="47.17611" lon="-1.65878">
        <ele>37.118664</ele>
        <time>2019-12-08T10:52:21Z</time>
      </trkpt>
      <trkpt lat="47.17613" lon="-1.65892">
        <ele>37.0896</ele>
        <time>2019-12-08T10:52:27Z</time>
      </trkpt>
      <trkpt lat="47.17618" lon="-1.65905">
        <ele>37.09224</ele>
        <time>2019-12-08T10:52:33Z</time>
      </trkpt>
      <trkpt lat="47.17623" lon="-1.65917">
        <ele>37.036755</ele>
        <time>2019-12-08T10:52:40Z</time>
      </trkpt>
      <trkpt lat="47.1763" lon="-1.65927">
        <ele>37.097527</ele>
        <time>2019-12-08T10:52:48Z</time>
      </trkpt>
      <trkpt lat="47.17636" lon="-1.65937">
        <ele>36.94956</ele>
        <time>2019-12-08T10:52:54Z</time>
      </trkpt>
      <trkpt lat="47.17645" lon="-1.65945">
        <ele>36.99712</ele>
        <time>2019-12-08T10:53:01Z</time>
      </trkpt>
      <trkpt lat="47.17653" lon="-1.65956">
        <ele>37.16358</ele>
        <time>2019-12-08T10:53:07Z</time>
      </trkpt>
      <trkpt lat="47.17658" lon="-1.65968">
        <ele>37.168865</ele>
        <time>2019-12-08T10:53:14Z</time>
      </trkpt>
      <trkpt lat="47.17661" lon="-1.65983">
        <ele>36.899357</ele>
        <time>2019-12-08T10:53:21Z</time>
      </trkpt>
      <trkpt lat="47.17663" lon="-1.65997">
        <ele>37.224354</ele>
        <time>2019-12-08T10:53:26Z</time>
      </trkpt>
      <trkpt lat="47.17665" lon="-1.66011">
        <ele>36.82537</ele>
        <time>2019-12-08T10:53:33Z</time>
      </trkpt>
      <trkpt lat="47.17668" lon="-1.66025">
        <ele>36.796307</ele>
        <time>2019-12-08T10:53:40Z</time>
      </trkpt>
      <trkpt lat="47.17668" lon="-1.66038">
        <ele>36.664192</ele>
        <time>2019-12-08T10:53:46Z</time>
      </trkpt>
      <trkpt lat="47.1767" lon="-1.66053">
        <ele>36.7646</ele>
        <time>2019-12-08T10:53:52Z</time>
      </trkpt>
      <trkpt lat="47.17669" lon="-1.66067">
        <ele>36.899357</ele>
        <time>2019-12-08T10:53:58Z</time>
      </trkpt>
      <trkpt lat="47.17671" lon="-1.66081">
        <ele>36.680046</ele>
        <time>2019-12-08T10:54:07Z</time>
      </trkpt>
      <trkpt lat="47.17675" lon="-1.66094">
        <ele>37.0896</ele>
        <time>2019-12-08T10:54:14Z</time>
      </trkpt>
      <trkpt lat="47.17678" lon="-1.66109">
        <ele>36.77517</ele>
        <time>2019-12-08T10:54:20Z</time>
      </trkpt>
      <trkpt lat="47.1768" lon="-1.66122">
        <ele>36.96013</ele>
        <time>2019-12-08T10:54:26Z</time>
      </trkpt>
      <trkpt lat="47.17685" lon="-1.66133">
        <ele>37.026184</ele>
        <time>2019-12-08T10:54:32Z</time>
      </trkpt>
      <trkpt lat="47.17686" lon="-1.66147">
        <ele>36.96277</ele>
        <time>2019-12-08T10:54:37Z</time>
      </trkpt>
      <trkpt lat="47.17686" lon="-1.6616">
        <ele>36.96013</ele>
        <time>2019-12-08T10:54:43Z</time>
      </trkpt>
      <trkpt lat="47.17688" lon="-1.66174">
        <ele>37.036755</ele>
        <time>2019-12-08T10:54:49Z</time>
      </trkpt>
      <trkpt lat="47.1769" lon="-1.66188">
        <ele>36.89407</ele>
        <time>2019-12-08T10:54:55Z</time>
      </trkpt>
      <trkpt lat="47.17692" lon="-1.662">
        <ele>36.82273</ele>
        <time>2019-12-08T10:55:02Z</time>
      </trkpt>
      <trkpt lat="47.17694" lon="-1.66214">
        <ele>36.909924</ele>
        <time>2019-12-08T10:55:08Z</time>
      </trkpt>
      <trkpt lat="47.17697" lon="-1.66227">
        <ele>36.854435</ele>
        <time>2019-12-08T10:55:14Z</time>
      </trkpt>
      <trkpt lat="47.17698" lon="-1.66241">
        <ele>36.78838</ele>
        <time>2019-12-08T10:55:20Z</time>
      </trkpt>
      <trkpt lat="47.17697" lon="-1.66256">
        <ele>37.224354</ele>
        <time>2019-12-08T10:55:27Z</time>
      </trkpt>
      <trkpt lat="47.177" lon="-1.66271">
        <ele>37.105453</ele>
        <time>2019-12-08T10:55:33Z</time>
      </trkpt>
      <trkpt lat="47.17703" lon="-1.66285">
        <ele>36.793663</ele>
        <time>2019-12-08T10:55:39Z</time>
      </trkpt>
      <trkpt lat="47.17704" lon="-1.66298">
        <ele>36.722324</ele>
        <time>2019-12-08T10:55:46Z</time>
      </trkpt>
      <trkpt lat="47.17706" lon="-1.66311">
        <ele>36.096104</ele>
        <time>2019-12-08T10:55:52Z</time>
      </trkpt>
      <trkpt lat="47.1771" lon="-1.66325">
        <ele>36.458096</ele>
        <time>2019-12-08T10:55:58Z</time>
      </trkpt>
      <trkpt lat="47.17712" lon="-1.66338">
        <ele>36.376186</ele>
        <time>2019-12-08T10:56:04Z</time>
      </trkpt>
      <trkpt lat="47.17715" lon="-1.66351">
        <ele>36.215008</ele>
        <time>2019-12-08T10:56:10Z</time>
      </trkpt>
      <trkpt lat="47.17711" lon="-1.66363">
        <ele>36.576996</ele>
        <time>2019-12-08T10:56:23Z</time>
      </trkpt>
      <trkpt lat="47.17703" lon="-1.66372">
        <ele>36.624557</ele>
        <time>2019-12-08T10:56:30Z</time>
      </trkpt>
      <trkpt lat="47.17695" lon="-1.66377">
        <ele>36.635128</ele>
        <time>2019-12-08T10:56:37Z</time>
      </trkpt>
      <trkpt lat="47.17687" lon="-1.66384">
        <ele>36.42903</ele>
        <time>2019-12-08T10:56:42Z</time>
      </trkpt>
      <trkpt lat="47.17678" lon="-1.66393">
        <ele>36.32598</ele>
        <time>2019-12-08T10:56:49Z</time>
      </trkpt>
      <trkpt lat="47.17669" lon="-1.664">
        <ele>36.27578</ele>
        <time>2019-12-08T10:56:55Z</time>
      </trkpt>
      <trkpt lat="47.17661" lon="-1.66408">
        <ele>36.281063</ele>
        <time>2019-12-08T10:57:02Z</time>
      </trkpt>
      <trkpt lat="47.17652" lon="-1.66414">
        <ele>36.154232</ele>
        <time>2019-12-08T10:57:08Z</time>
      </trkpt>
      <trkpt lat="47.17644" lon="-1.66422">
        <ele>36.582283</ele>
        <time>2019-12-08T10:57:15Z</time>
      </trkpt>
      <trkpt lat="47.17637" lon="-1.6643">
        <ele>36.355045</ele>
        <time>2019-12-08T10:57:21Z</time>
      </trkpt>
      <trkpt lat="47.17629" lon="-1.66437">
        <ele>36.526794</ele>
        <time>2019-12-08T10:57:27Z</time>
      </trkpt>
      <trkpt lat="47.17619" lon="-1.66444">
        <ele>36.79895</ele>
        <time>2019-12-08T10:57:33Z</time>
      </trkpt>
      <trkpt lat="47.17611" lon="-1.6645">
        <ele>36.96013</ele>
        <time>2019-12-08T10:57:39Z</time>
      </trkpt>
      <trkpt lat="47.17603" lon="-1.66455">
        <ele>36.748745</ele>
        <time>2019-12-08T10:57:46Z</time>
      </trkpt>
      <trkpt lat="47.17595" lon="-1.66465">
        <ele>36.783096</ele>
        <time>2019-12-08T10:57:52Z</time>
      </trkpt>
      <trkpt lat="47.17587" lon="-1.66475">
        <ele>36.48716</ele>
        <time>2019-12-08T10:57:58Z</time>
      </trkpt>
      <trkpt lat="47.1758" lon="-1.66484">
        <ele>36.495087</ele>
        <time>2019-12-08T10:58:05Z</time>
      </trkpt>
      <trkpt lat="47.17571" lon="-1.66492">
        <ele>36.624557</ele>
        <time>2019-12-08T10:58:11Z</time>
      </trkpt>
      <trkpt lat="47.17563" lon="-1.66499">
        <ele>36.82537</ele>
        <time>2019-12-08T10:58:17Z</time>
      </trkpt>
      <trkpt lat="47.17554" lon="-1.66507">
        <ele>36.664192</ele>
        <time>2019-12-08T10:58:25Z</time>
      </trkpt>
      <trkpt lat="47.17547" lon="-1.66514">
        <ele>36.698544</ele>
        <time>2019-12-08T10:58:31Z</time>
      </trkpt>
      <trkpt lat="47.17537" lon="-1.66522">
        <ele>36.86765</ele>
        <time>2019-12-08T10:58:38Z</time>
      </trkpt>
      <trkpt lat="47.17528" lon="-1.66533">
        <ele>36.767242</ele>
        <time>2019-12-08T10:58:47Z</time>
      </trkpt>
      <trkpt lat="47.17519" lon="-1.66542">
        <ele>36.63777</ele>
        <time>2019-12-08T10:58:54Z</time>
      </trkpt>
      <trkpt lat="47.1751" lon="-1.66549">
        <ele>36.761955</ele>
        <time>2019-12-08T10:59:01Z</time>
      </trkpt>
      <trkpt lat="47.17501" lon="-1.66555">
        <ele>36.6457</ele>
        <time>2019-12-08T10:59:07Z</time>
      </trkpt>
      <trkpt lat="47.17493" lon="-1.66563">
        <ele>37.049965</ele>
        <time>2019-12-08T10:59:13Z</time>
      </trkpt>
      <trkpt lat="47.17485" lon="-1.66572">
        <ele>37.121307</ele>
        <time>2019-12-08T10:59:20Z</time>
      </trkpt>
      <trkpt lat="47.17477" lon="-1.6658">
        <ele>37.028828</ele>
        <time>2019-12-08T10:59:26Z</time>
      </trkpt>
      <trkpt lat="47.17471" lon="-1.6659">
        <ele>37.176792</ele>
        <time>2019-12-08T10:59:33Z</time>
      </trkpt>
      <trkpt lat="47.17474" lon="-1.66604">
        <ele>37.692036</ele>
        <time>2019-12-08T10:59:39Z</time>
      </trkpt>
      <trkpt lat="47.17479" lon="-1.66616">
        <ele>37.049965</ele>
        <time>2019-12-08T10:59:46Z</time>
      </trkpt>
      <trkpt lat="47.17485" lon="-1.66627">
        <ele>37.11338</ele>
        <time>2019-12-08T10:59:52Z</time>
      </trkpt>
      <trkpt lat="47.1749" lon="-1.66639">
        <ele>37.05525</ele>
        <time>2019-12-08T10:59:59Z</time>
      </trkpt>
      <trkpt lat="47.17497" lon="-1.66648">
        <ele>37.24285</ele>
        <time>2019-12-08T11:00:06Z</time>
      </trkpt>
      <trkpt lat="47.17503" lon="-1.66659">
        <ele>37.39346</ele>
        <time>2019-12-08T11:00:12Z</time>
      </trkpt>
      <trkpt lat="47.17508" lon="-1.66672">
        <ele>37.56521</ele>
        <time>2019-12-08T11:00:21Z</time>
      </trkpt>
      <trkpt lat="47.17514" lon="-1.66683">
        <ele>37.44102</ele>
        <time>2019-12-08T11:00:27Z</time>
      </trkpt>
      <trkpt lat="47.1752" lon="-1.66696">
        <ele>37.552</ele>
        <time>2019-12-08T11:00:33Z</time>
      </trkpt>
      <trkpt lat="47.17526" lon="-1.66706">
        <ele>37.35647</ele>
        <time>2019-12-08T11:00:39Z</time>
      </trkpt>
      <trkpt lat="47.17532" lon="-1.66719">
        <ele>37.538784</ele>
        <time>2019-12-08T11:00:46Z</time>
      </trkpt>
      <trkpt lat="47.17538" lon="-1.6673">
        <ele>37.641834</ele>
        <time>2019-12-08T11:00:53Z</time>
      </trkpt>
      <trkpt lat="47.17546" lon="-1.66739">
        <ele>37.77659</ele>
        <time>2019-12-08T11:00:59Z</time>
      </trkpt>
      <trkpt lat="47.17551" lon="-1.6675">
        <ele>37.702606</ele>
        <time>2019-12-08T11:01:04Z</time>
      </trkpt>
      <trkpt lat="47.17556" lon="-1.66761">
        <ele>37.710533</ele>
        <time>2019-12-08T11:01:11Z</time>
      </trkpt>
      <trkpt lat="47.17563" lon="-1.66774">
        <ele>37.71846</ele>
        <time>2019-12-08T11:01:18Z</time>
      </trkpt>
      <trkpt lat="47.17567" lon="-1.66786">
        <ele>37.998543</ele>
        <time>2019-12-08T11:01:24Z</time>
      </trkpt>
      <trkpt lat="47.17574" lon="-1.66796">
        <ele>37.91399</ele>
        <time>2019-12-08T11:01:30Z</time>
      </trkpt>
      <trkpt lat="47.17581" lon="-1.66806">
        <ele>37.448948</ele>
        <time>2019-12-08T11:01:37Z</time>
      </trkpt>
      <trkpt lat="47.17587" lon="-1.66818">
        <ele>37.66826</ele>
        <time>2019-12-08T11:01:44Z</time>
      </trkpt>
      <trkpt lat="47.17592" lon="-1.66828">
        <ele>37.721104</ele>
        <time>2019-12-08T11:01:50Z</time>
      </trkpt>
      <trkpt lat="47.17598" lon="-1.66839">
        <ele>37.77395</ele>
        <time>2019-12-08T11:01:55Z</time>
      </trkpt>
      <trkpt lat="47.17604" lon="-1.6685">
        <ele>37.72903</ele>
        <time>2019-12-08T11:02:01Z</time>
      </trkpt>
      <trkpt lat="47.17611" lon="-1.66862">
        <ele>37.57842</ele>
        <time>2019-12-08T11:02:07Z</time>
      </trkpt>
      <trkpt lat="47.17617" lon="-1.66872">
        <ele>37.491226</ele>
        <time>2019-12-08T11:02:13Z</time>
      </trkpt>
      <trkpt lat="47.17623" lon="-1.66884">
        <ele>37.47273</ele>
        <time>2019-12-08T11:02:20Z</time>
      </trkpt>
      <trkpt lat="47.17629" lon="-1.66896">
        <ele>37.16358</ele>
        <time>2019-12-08T11:02:27Z</time>
      </trkpt>
      <trkpt lat="47.17635" lon="-1.66909">
        <ele>37.179436</ele>
        <time>2019-12-08T11:02:35Z</time>
      </trkpt>
      <trkpt lat="47.17642" lon="-1.66919">
        <ele>37.351185</ele>
        <time>2019-12-08T11:02:42Z</time>
      </trkpt>
      <trkpt lat="47.17648" lon="-1.66931">
        <ele>37.504436</ele>
        <time>2019-12-08T11:02:48Z</time>
      </trkpt>
      <trkpt lat="47.17654" lon="-1.66943">
        <ele>37.23228</ele>
        <time>2019-12-08T11:02:55Z</time>
      </trkpt>
      <trkpt lat="47.17661" lon="-1.66953">
        <ele>36.912567</ele>
        <time>2019-12-08T11:03:01Z</time>
      </trkpt>
      <trkpt lat="47.17666" lon="-1.66965">
        <ele>36.94956</ele>
        <time>2019-12-08T11:03:07Z</time>
      </trkpt>
      <trkpt lat="47.17672" lon="-1.66975">
        <ele>37.887566</ele>
        <time>2019-12-08T11:03:14Z</time>
      </trkpt>
      <trkpt lat="47.17678" lon="-1.66988">
        <ele>37.314194</ele>
        <time>2019-12-08T11:03:21Z</time>
      </trkpt>
      <trkpt lat="47.17683" lon="-1.66999">
        <ele>36.769882</ele>
        <time>2019-12-08T11:03:27Z</time>
      </trkpt>
      <trkpt lat="47.1769" lon="-1.6701">
        <ele>37.303623</ele>
        <time>2019-12-08T11:03:34Z</time>
      </trkpt>
      <trkpt lat="47.17696" lon="-1.67022">
        <ele>36.97334</ele>
        <time>2019-12-08T11:03:40Z</time>
      </trkpt>
      <trkpt lat="47.17702" lon="-1.67034">
        <ele>37.303623</ele>
        <time>2019-12-08T11:03:46Z</time>
      </trkpt>
      <trkpt lat="47.17709" lon="-1.67046">
        <ele>36.915207</ele>
        <time>2019-12-08T11:03:52Z</time>
      </trkpt>
      <trkpt lat="47.17715" lon="-1.67057">
        <ele>37.05789</ele>
        <time>2019-12-08T11:03:58Z</time>
      </trkpt>
      <trkpt lat="47.17721" lon="-1.67067">
        <ele>37.19529</ele>
        <time>2019-12-08T11:04:05Z</time>
      </trkpt>
      <trkpt lat="47.17727" lon="-1.67079">
        <ele>37.76866</ele>
        <time>2019-12-08T11:04:12Z</time>
      </trkpt>
      <trkpt lat="47.17734" lon="-1.67089">
        <ele>37.123947</ele>
        <time>2019-12-08T11:04:18Z</time>
      </trkpt>
      <trkpt lat="47.1774" lon="-1.67101">
        <ele>37.36175</ele>
        <time>2019-12-08T11:04:25Z</time>
      </trkpt>
      <trkpt lat="47.17746" lon="-1.67113">
        <ele>37.44102</ele>
        <time>2019-12-08T11:04:31Z</time>
      </trkpt>
      <trkpt lat="47.17753" lon="-1.67125">
        <ele>37.271915</ele>
        <time>2019-12-08T11:04:37Z</time>
      </trkpt>
      <trkpt lat="47.17759" lon="-1.67136">
        <ele>37.293053</ele>
        <time>2019-12-08T11:04:44Z</time>
      </trkpt>
      <trkpt lat="47.17764" lon="-1.67149">
        <ele>37.623337</ele>
        <time>2019-12-08T11:04:51Z</time>
      </trkpt>
      <trkpt lat="47.1777" lon="-1.67161">
        <ele>37.67618</ele>
        <time>2019-12-08T11:04:58Z</time>
      </trkpt>
      <trkpt lat="47.17776" lon="-1.67173">
        <ele>37.82415</ele>
        <time>2019-12-08T11:05:05Z</time>
      </trkpt>
      <trkpt lat="47.17783" lon="-1.67184">
        <ele>37.945694</ele>
        <time>2019-12-08T11:05:11Z</time>
      </trkpt>
      <trkpt lat="47.17788" lon="-1.67195">
        <ele>37.515003</ele>
        <time>2019-12-08T11:05:17Z</time>
      </trkpt>
      <trkpt lat="47.17795" lon="-1.67206">
        <ele>38.011753</ele>
        <time>2019-12-08T11:05:24Z</time>
      </trkpt>
      <trkpt lat="47.17801" lon="-1.67219">
        <ele>37.895493</ele>
        <time>2019-12-08T11:05:31Z</time>
      </trkpt>
      <trkpt lat="47.17806" lon="-1.6723">
        <ele>37.55728</ele>
        <time>2019-12-08T11:05:38Z</time>
      </trkpt>
      <trkpt lat="47.17813" lon="-1.67241">
        <ele>37.28777</ele>
        <time>2019-12-08T11:05:45Z</time>
      </trkpt>
      <trkpt lat="47.17818" lon="-1.67252">
        <ele>37.726387</ele>
        <time>2019-12-08T11:05:51Z</time>
      </trkpt>
      <trkpt lat="47.17824" lon="-1.67263">
        <ele>37.72903</ele>
        <time>2019-12-08T11:05:57Z</time>
      </trkpt>
      <trkpt lat="47.1783" lon="-1.67275">
        <ele>37.908703</ele>
        <time>2019-12-08T11:06:03Z</time>
      </trkpt>
      <trkpt lat="47.17836" lon="-1.67287">
        <ele>37.95098</ele>
        <time>2019-12-08T11:06:09Z</time>
      </trkpt>
      <trkpt lat="47.17841" lon="-1.67298">
        <ele>38.030247</ele>
        <time>2019-12-08T11:06:15Z</time>
      </trkpt>
      <trkpt lat="47.17847" lon="-1.67308">
        <ele>37.91399</ele>
        <time>2019-12-08T11:06:21Z</time>
      </trkpt>
      <trkpt lat="47.17854" lon="-1.6732">
        <ele>38.45301</ele>
        <time>2019-12-08T11:06:27Z</time>
      </trkpt>
      <trkpt lat="47.1786" lon="-1.6733">
        <ele>38.28655</ele>
        <time>2019-12-08T11:06:34Z</time>
      </trkpt>
      <trkpt lat="47.17866" lon="-1.67343">
        <ele>38.315613</ele>
        <time>2019-12-08T11:06:41Z</time>
      </trkpt>
      <trkpt lat="47.17872" lon="-1.67354">
        <ele>38.10159</ele>
        <time>2019-12-08T11:06:47Z</time>
      </trkpt>
      <trkpt lat="47.17878" lon="-1.67364">
        <ele>38.196712</ele>
        <time>2019-12-08T11:06:53Z</time>
      </trkpt>
      <trkpt lat="47.17883" lon="-1.67375">
        <ele>37.82415</ele>
        <time>2019-12-08T11:06:59Z</time>
      </trkpt>
      <trkpt lat="47.17888" lon="-1.67387">
        <ele>37.980045</ele>
        <time>2019-12-08T11:07:05Z</time>
      </trkpt>
      <trkpt lat="47.17891" lon="-1.67396">
        <ele>37.68147</ele>
        <time>2019-12-08T11:07:15Z</time>
      </trkpt>
      <trkpt lat="47.17891" lon="-1.67396">
        <ele>37.68147</ele>
        <time>2019-12-08T11:07:15Z</time>
      </trkpt>
      <trkpt lat="47.179" lon="-1.67404">
        <ele>37.702606</ele>
        <time>2019-12-08T11:08:33Z</time>
      </trkpt>
      <trkpt lat="47.17905" lon="-1.67415">
        <ele>36.94163</ele>
        <time>2019-12-08T11:08:40Z</time>
      </trkpt>
      <trkpt lat="47.1791" lon="-1.67426">
        <ele>37.411957</ele>
        <time>2019-12-08T11:08:47Z</time>
      </trkpt>
      <trkpt lat="47.17913" lon="-1.6744">
        <ele>37.54407</ele>
        <time>2019-12-08T11:08:53Z</time>
      </trkpt>
      <trkpt lat="47.17918" lon="-1.67453">
        <ele>37.351185</ele>
        <time>2019-12-08T11:09:00Z</time>
      </trkpt>
      <trkpt lat="47.17921" lon="-1.67466">
        <ele>37.290413</ele>
        <time>2019-12-08T11:09:06Z</time>
      </trkpt>
      <trkpt lat="47.17924" lon="-1.6748">
        <ele>37.086956</ele>
        <time>2019-12-08T11:09:12Z</time>
      </trkpt>
      <trkpt lat="47.17927" lon="-1.67495">
        <ele>37.562565</ele>
        <time>2019-12-08T11:09:20Z</time>
      </trkpt>
      <trkpt lat="47.17931" lon="-1.67508">
        <ele>37.744884</ele>
        <time>2019-12-08T11:09:27Z</time>
      </trkpt>
      <trkpt lat="47.17935" lon="-1.67522">
        <ele>37.168865</ele>
        <time>2019-12-08T11:09:35Z</time>
      </trkpt>
      <trkpt lat="47.17938" lon="-1.67534">
        <ele>37.26927</ele>
        <time>2019-12-08T11:09:41Z</time>
      </trkpt>
      <trkpt lat="47.17942" lon="-1.67547">
        <ele>37.726387</ele>
        <time>2019-12-08T11:09:48Z</time>
      </trkpt>
      <trkpt lat="47.17946" lon="-1.67561">
        <ele>37.512363</ele>
        <time>2019-12-08T11:09:55Z</time>
      </trkpt>
      <trkpt lat="47.17949" lon="-1.67574">
        <ele>37.174152</ele>
        <time>2019-12-08T11:10:01Z</time>
      </trkpt>
      <trkpt lat="47.17954" lon="-1.67587">
        <ele>37.28777</ele>
        <time>2019-12-08T11:10:08Z</time>
      </trkpt>
      <trkpt lat="47.17955" lon="-1.67602">
        <ele>37.79773</ele>
        <time>2019-12-08T11:10:14Z</time>
      </trkpt>
      <trkpt lat="47.17959" lon="-1.67616">
        <ele>37.673542</ele>
        <time>2019-12-08T11:10:21Z</time>
      </trkpt>
      <trkpt lat="47.17967" lon="-1.67624">
        <ele>37.237568</ele>
        <time>2019-12-08T11:10:27Z</time>
      </trkpt>
      <trkpt lat="47.17975" lon="-1.67631">
        <ele>36.806877</ele>
        <time>2019-12-08T11:10:34Z</time>
      </trkpt>
      <trkpt lat="47.17976" lon="-1.67644">
        <ele>37.258705</ele>
        <time>2019-12-08T11:10:42Z</time>
      </trkpt>
      <trkpt lat="47.1798" lon="-1.67657">
        <ele>37.13716</ele>
        <time>2019-12-08T11:10:49Z</time>
      </trkpt>
      <trkpt lat="47.17983" lon="-1.67671">
        <ele>37.24549</ele>
        <time>2019-12-08T11:10:57Z</time>
      </trkpt>
      <trkpt lat="47.17986" lon="-1.67684">
        <ele>36.95484</ele>
        <time>2019-12-08T11:11:03Z</time>
      </trkpt>
      <trkpt lat="47.17992" lon="-1.67696">
        <ele>36.989193</ele>
        <time>2019-12-08T11:11:09Z</time>
      </trkpt>
      <trkpt lat="47.17996" lon="-1.67709">
        <ele>36.769882</ele>
        <time>2019-12-08T11:11:16Z</time>
      </trkpt>
      <trkpt lat="47.18002" lon="-1.6772">
        <ele>37.596916</ele>
        <time>2019-12-08T11:11:23Z</time>
      </trkpt>
      <trkpt lat="47.18012" lon="-1.67723">
        <ele>36.854435</ele>
        <time>2019-12-08T11:11:33Z</time>
      </trkpt>
      <trkpt lat="47.18022" lon="-1.67722">
        <ele>36.872932</ele>
        <time>2019-12-08T11:11:39Z</time>
      </trkpt>
      <trkpt lat="47.18031" lon="-1.67717">
        <ele>36.75667</ele>
        <time>2019-12-08T11:11:45Z</time>
      </trkpt>
      <trkpt lat="47.1804" lon="-1.6771">
        <ele>36.99976</ele>
        <time>2019-12-08T11:11:53Z</time>
      </trkpt>
      <trkpt lat="47.1805" lon="-1.67704">
        <ele>36.9522</ele>
        <time>2019-12-08T11:12:00Z</time>
      </trkpt>
      <trkpt lat="47.18057" lon="-1.67696">
        <ele>37.27456</ele>
        <time>2019-12-08T11:12:06Z</time>
      </trkpt>
      <trkpt lat="47.18066" lon="-1.67691">
        <ele>37.07903</ele>
        <time>2019-12-08T11:12:12Z</time>
      </trkpt>
      <trkpt lat="47.18075" lon="-1.67687">
        <ele>37.097527</ele>
        <time>2019-12-08T11:12:18Z</time>
      </trkpt>
      <trkpt lat="47.18084" lon="-1.6768">
        <ele>37.23228</ele>
        <time>2019-12-08T11:12:25Z</time>
      </trkpt>
      <trkpt lat="47.18092" lon="-1.67674">
        <ele>37.18472</ele>
        <time>2019-12-08T11:12:31Z</time>
      </trkpt>
      <trkpt lat="47.18101" lon="-1.67669">
        <ele>36.965412</ele>
        <time>2019-12-08T11:12:37Z</time>
      </trkpt>
      <trkpt lat="47.1811" lon="-1.67663">
        <ele>36.666836</ele>
        <time>2019-12-08T11:12:44Z</time>
      </trkpt>
      <trkpt lat="47.18119" lon="-1.67657">
        <ele>36.7461</ele>
        <time>2019-12-08T11:12:51Z</time>
      </trkpt>
      <trkpt lat="47.18129" lon="-1.67652">
        <ele>36.804234</ele>
        <time>2019-12-08T11:12:59Z</time>
      </trkpt>
      <trkpt lat="47.18138" lon="-1.67647">
        <ele>37.04732</ele>
        <time>2019-12-08T11:13:05Z</time>
      </trkpt>
      <trkpt lat="47.18148" lon="-1.67641">
        <ele>37.028828</ele>
        <time>2019-12-08T11:13:12Z</time>
      </trkpt>
      <trkpt lat="47.18156" lon="-1.67636">
        <ele>37.049965</ele>
        <time>2019-12-08T11:13:19Z</time>
      </trkpt>
      <trkpt lat="47.18165" lon="-1.67632">
        <ele>36.83858</ele>
        <time>2019-12-08T11:13:26Z</time>
      </trkpt>
      <trkpt lat="47.18174" lon="-1.67627">
        <ele>36.138382</ele>
        <time>2019-12-08T11:13:32Z</time>
      </trkpt>
      <trkpt lat="47.18183" lon="-1.67621">
        <ele>37.306267</ele>
        <time>2019-12-08T11:13:40Z</time>
      </trkpt>
      <trkpt lat="47.18191" lon="-1.67612">
        <ele>36.711754</ele>
        <time>2019-12-08T11:13:47Z</time>
      </trkpt>
      <trkpt lat="47.182" lon="-1.67605">
        <ele>36.193867</ele>
        <time>2019-12-08T11:13:54Z</time>
      </trkpt>
      <trkpt lat="47.18208" lon="-1.67599">
        <ele>36.315414</ele>
        <time>2019-12-08T11:14:01Z</time>
      </trkpt>
      <trkpt lat="47.18218" lon="-1.67598">
        <ele>36.61663</ele>
        <time>2019-12-08T11:14:07Z</time>
      </trkpt>
      <trkpt lat="47.18226" lon="-1.67593">
        <ele>36.619274</ele>
        <time>2019-12-08T11:14:13Z</time>
      </trkpt>
      <trkpt lat="47.18236" lon="-1.6759">
        <ele>36.915207</ele>
        <time>2019-12-08T11:14:20Z</time>
      </trkpt>
      <trkpt lat="47.18245" lon="-1.67591">
        <ele>36.6959</ele>
        <time>2019-12-08T11:14:27Z</time>
      </trkpt>
      <trkpt lat="47.18254" lon="-1.67587">
        <ele>36.96013</ele>
        <time>2019-12-08T11:14:33Z</time>
      </trkpt>
      <trkpt lat="47.18263" lon="-1.67581">
        <ele>36.46074</ele>
        <time>2019-12-08T11:14:40Z</time>
      </trkpt>
      <trkpt lat="47.18271" lon="-1.67575">
        <ele>36.40525</ele>
        <time>2019-12-08T11:14:47Z</time>
      </trkpt>
      <trkpt lat="47.1828" lon="-1.67571">
        <ele>36.89407</ele>
        <time>2019-12-08T11:14:53Z</time>
      </trkpt>
      <trkpt lat="47.18289" lon="-1.67564">
        <ele>36.621918</ele>
        <time>2019-12-08T11:15:00Z</time>
      </trkpt>
      <trkpt lat="47.18298" lon="-1.67558">
        <ele>36.20708</ele>
        <time>2019-12-08T11:15:08Z</time>
      </trkpt>
      <trkpt lat="47.18308" lon="-1.67554">
        <ele>36.365616</ele>
        <time>2019-12-08T11:15:14Z</time>
      </trkpt>
      <trkpt lat="47.18316" lon="-1.67549">
        <ele>36.119884</ele>
        <time>2019-12-08T11:15:20Z</time>
      </trkpt>
      <trkpt lat="47.18325" lon="-1.67544">
        <ele>36.92842</ele>
        <time>2019-12-08T11:15:27Z</time>
      </trkpt>
      <trkpt lat="47.18333" lon="-1.67538">
        <ele>37.21907</ele>
        <time>2019-12-08T11:15:34Z</time>
      </trkpt>
      <trkpt lat="47.18343" lon="-1.67537">
        <ele>37.068462</ele>
        <time>2019-12-08T11:15:40Z</time>
      </trkpt>
      <trkpt lat="47.18349" lon="-1.67539">
        <ele>37.541428</ele>
        <time>2019-12-08T11:15:45Z</time>
      </trkpt>
      <trkpt lat="47.18349" lon="-1.67539">
        <ele>37.541428</ele>
        <time>2019-12-08T11:15:45Z</time>
      </trkpt>
    </trkseg>
  </trk>
</gpx>